GFSSGP_con_mlcape_003.txt.gz
CAPE
0 0 0 0 0 0 0 1 14 0 0 0 18 27 28 89 38 65 495 513 465 480 662 685 656 643 785 877 947 1053 1004 958 907 863 840 822 823 755 599 392 399 649 709 906 985 1230 1460 1189 955
0 0 0 0 0 0 9 0 0 0 0 10 14 1 6 44 101 283 469 557 631 737 758 798 765 810 947 957 983 1049 1059 1056 1032 1108 1130 1046 933 691 378 341 350 418 484 557 463 406 322 307 440
0 0 0 0 0 0 0 3 0 0 0 0 29 0 2 22 121 316 726 1063 1082 980 968 966 964 1143 1216 1118 1012 987 977 1121 1186 1282 1119 966 703 394 247 140 60 72 108 195 214 211 228 252 311
0 0 0 0 0 2 0 0 0 5 1 14 0 19 0 0 142 346 1072 1200 1141 1062 1219 1290 1307 1448 1374 1295 1201 1117 1089 1042 1105 978 781 644 377 176 72 11 0 0 0 0 0 0 0 1 11
0 0 0 0 0 2 0 0 0 2 2 4 10 44 0 31 139 300 874 828 616 1094 1315 1455 1542 1537 1493 1459 1404 1221 939 685 554 441 444 355 157 59 21 0 0 0 0 0 0 0 0 0 0
0 0 0 0 0 0 0 0 11 4 0 56 103 99 16 21 50 107 340 423 411 657 1060 1166 1117 1019 935 843 671 503 428 379 255 190 192 100 26 9 0 0 0 0 0 0 0 0 0 0 0
0 0 0 0 1 0 0 0 0 0 0 35 93 119 58 18 0 1 102 378 433 421 330 426 364 257 186 209 225 147 77 37 20 12 24 7 35 0 0 0 0 0 0 0 0 0 0 0 0
0 0 0 0 0 0 0 0 0 0 0 0 34 124 157 29 0 0 0 93 135 232 293 123 88 7 1 10 22 11 8 0 0 14 26 115 106 1 0 0 0 0 0 0 0 0 0 0 0
0 0 0 0 0 0 0 0 0 0 0 0 0 139 193 12 0 0 0 0 68 224 299 380 394 317 24 0 5 0 0 10 54 144 145 273 331 132 37 28 0 0 0 0 0 0 0 0 0
0 0 0 0 0 0 0 0 0 0 0 0 96 181 125 27 0 0 0 0 27 116 331 408 363 673 125 77 52 4 160 286 392 482 392 326 345 259 117 101 101 45 18 13 0 0 0 0 0
0 0 0 0 0 0 0 0 0 0 0 0 129 175 142 94 0 0 0 0 12 46 345 355 227 36 196 137 168 248 408 507 556 513 357 395 169 310 154 208 129 34 45 38 37 0 0 0 0
0 0 0 0 0 0 0 0 0 0 0 0 8 296 241 145 75 0 0 0 8 95 543 551 430 263 110 0 63 220 324 481 574 597 482 345 168 28 2 0 0 0 0 10 48 19 0 0 0
0 0 0 0 0 0 0 0 0 0 0 0 0 275 251 156 108 8 0 0 3 125 723 694 366 165 189 238 220 105 198 90 133 362 262 74 92 15 9 9 0 0 0 0 0 0 0 0 0
0 0 0 0 0 0 0 0 0 0 0 0 0 76 149 147 97 23 7 0 0 55 794 760 596 716 380 131 343 388 145 76 174 42 8 17 4 70 39 20 17 6 23 27 2 0 0 0 0
0 0 0 0 0 0 0 0 0 0 0 0 0 1 38 204 211 209 90 19 1 44 748 568 552 572 108 208 202 589 6 0 0 1 0 1 23 39 28 23 11 5 28 56 34 21 17 5 0
0 0 0 0 0 0 0 0 0 0 0 0 0 0 0 127 192 200 93 43 35 132 884 709 98 187 92 123 109 58 29 14 24 1 3 0 0 0 0 0 0 5 15 9 0 1 29 43 21
0 0 0 0 0 0 0 0 0 0 0 0 0 0 0 0 8 34 76 45 32 2 362 618 74 199 71 6 43 38 31 16 1 0 0 0 0 0 0 0 0 0 0 0 0 0 0 0 0
0 0 0 0 0 0 0 0 0 0 0 0 0 0 0 0 3 1 0 0 0 8 220 85 113 68 3 33 1 0 0 0 0 0 0 0 0 0 0 0 0 0 0 0 0 0 0 0 0
0 0 0 0 0 0 0 0 0 0 0 0 0 0 0 0 0 0 0 0 0 57 20 9 0 0 0 0 0 0 0 0 0 0 0 0 0 0 0 0 0 0 0 0 0 0 0 0 0
0 0 0 0 0 0 0 0 0 0 0 0 0 0 0 0 0 0 0 0 0 0 0 0 0 0 0 0 0 0 0 0 0 0 0 0 0 0 0 0 0 0 0 0 0 0 0 0 0
0 0 0 0 0 0 0 0 0 0 0 0 0 0 0 0 0 0 0 0 0 0 0 0 0 0 0 0 0 0 0 0 0 0 0 0 0 0 0 0 0 0 0 0 0 0 0 0 0
0 0 0 0 0 0 0 0 0 0 0 0 0 0 0 0 0 0 0 0 0 0 0 0 0 0 0 0 0 0 0 0 0 0 0 0 0 0 0 0 0 0 0 0 0 0 0 0 0
0 0 0 0 0 0 0 0 0 0 0 0 0 0 0 0 0 0 0 0 0 0 0 0 0 0 0 0 0 0 0 0 0 0 0 0 0 0 0 0 0 0 0 0 0 0 0 0 0
0 0 0 0 0 3 26 29 0 0 0 0 0 0 0 0 0 0 0 0 0 0 0 0 0 0 0 0 0 0 0 0 0 0 0 0 0 0 0 0 0 0 0 0 0 0 0 0 8
0 0 21 11 14 11 67 23 16 0 0 0 0 0 0 0 0 0 0 0 0 0 0 0 0 0 0 0 0 0 0 0 0 0 0 0 0 0 0 0 0 0 0 0 0 0 0 2 7
0 0 0 0 0 0 0 0 0 0 0 0 0 0 0 0 0 0 0 0 0 0 0 0 0 0 0 0 0 0 0 0 0 0 0 0 0 0 0 0 0 0 0 0 0 0 0 2 0
0 0 0 0 0 0 0 0 0 0 0 0 0 0 1 1 0 0 0 0 0 0 0 0 0 0 0 0 0 0 0 0 0 0 0 0 0 0 0 0 0 0 0 0 0 0 0 0 0
0 0 0 0 0 0 0 34 19 0 0 0 0 0 0 0 0 0 0 0 0 0 0 0 0 0 0 0 0 0 0 0 0 0 0 0 0 0 0 0 0 0 0 0 0 0 0 0 0
0 0 0 0 0 0 0 0 15 2 0 0 0 0 0 0 0 0 0 0 0 0 0 0 0 0 0 0 0 0 0 0 0 0 0 0 0 0 0 0 0 0 0 0 2 0 0 0 0
0 0 0 0 0 0 0 0 0 0 0 0 0 0 0 0 0 0 0 0 0 0 0 0 0 0 0 0 0 0 0 0 0 0 0 0 0 0 0 0 0 0 0 0 0 0 1 0 0

GFSSGP_con_mlcape_006.txt.gz
CAPE
0 0 0 0 0 0 0 0 4 0 0 47 45 52 57 63 80 114 317 317 462 540 522 509 568 671 710 747 746 730 737 758 778 787 721 650 542 305 137 159 179 210 251 319 354 362 280 339 431
0 0 0 0 0 0 2 7 1 0 0 5 24 47 56 199 421 478 377 404 522 574 566 549 673 767 863 953 967 919 946 950 909 876 806 684 380 181 84 21 9 22 91 168 176 202 102 67 68
0 0 0 0 0 0 6 0 0 0 0 2 36 20 50 338 435 468 405 470 593 617 643 721 811 829 823 821 871 904 907 958 937 817 669 444 217 98 17 0 0 0 5 8 5 2 0 0 0
0 0 0 0 0 0 0 0 21 0 2 4 6 23 97 221 477 661 846 812 650 790 812 924 1028 968 887 817 782 843 932 950 720 456 446 242 126 34 0 0 0 0 0 0 0 0 0 0 0
0 0 0 0 0 5 8 8 12 0 35 7 0 18 75 454 863 992 987 691 685 916 1039 1209 1196 1156 1075 1037 971 821 730 564 358 343 266 138 29 0 0 0 0 0 0 0 0 0 0 0 0
0 0 0 0 0 0 0 0 0 41 24 0 12 121 104 473 924 1024 962 800 993 1103 1315 1425 1384 1303 1214 1075 778 451 194 103 112 162 105 12 0 0 0 0 0 0 0 0 0 0 0 0 0
0 0 0 0 0 0 0 0 0 20 84 75 54 91 7 365 757 481 580 747 935 1194 1181 1081 944 826 615 394 169 109 83 10 18 9 0 0 0 0 0 0 0 0 0 0 0 0 0 0 0
0 0 0 0 0 0 0 0 0 2 41 51 131 57 26 19 212 307 487 413 447 427 464 406 305 134 54 58 52 17 0 0 0 0 20 29 0 0 0 0 0 0 0 0 0 0 0 0 0
0 0 0 0 0 0 0 0 0 0 29 15 15 89 13 0 20 91 148 134 69 104 34 90 17 0 0 0 0 0 0 0 35 76 187 160 96 2 0 13 2 3 0 0 0 0 0 0 0
0 0 0 0 0 0 0 0 0 0 0 59 143 67 0 0 0 0 63 156 203 257 176 180 84 0 0 2 0 0 41 135 192 249 274 271 229 212 75 81 88 55 27 12 13 5 4 0 0
0 0 0 0 0 0 0 0 0 0 0 48 123 40 0 0 0 0 10 143 246 323 384 357 294 57 10 34 0 78 189 260 301 436 353 370 389 183 250 84 5 0 0 4 26 24 5 0 0
0 0 0 0 0 0 0 0 0 0 0 48 130 67 0 0 0 0 0 0 112 412 380 317 320 275 126 98 98 130 300 449 511 491 322 185 106 0 0 0 0 0 0 0 0 4 0 0 0
0 0 0 0 0 0 0 0 0 0 0 117 144 126 69 2 0 0 0 0 44 394 352 258 114 151 108 36 185 264 342 512 578 532 342 49 31 0 0 0 0 0 0 0 0 0 0 0 0
0 0 0 0 0 0 0 0 0 0 0 85 146 178 171 92 9 0 0 0 16 452 460 440 45 195 157 179 110 172 104 81 256 286 108 2 0 34 23 2 0 0 1 1 0 0 0 0 0
0 0 0 0 0 0 0 0 0 0 0 23 87 151 200 157 89 29 0 0 1 508 626 484 579 421 93 225 307 166 2 7 69 40 1 4 7 18 1 0 0 0 0 0 0 0 0 0 0
0 0 0 0 0 0 0 0 0 0 0 0 0 84 153 171 175 112 53 0 1 591 782 635 5 124 61 94 146 159 0 0 0 0 0 0 0 0 0 0 0 0 0 0 0 0 0 0 0
0 0 0 0 0 0 0 0 0 0 0 0 0 0 0 1 11 4 0 0 172 646 815 295 66 251 61 54 10 0 0 0 0 0 0 0 0 0 0 0 0 0 0 0 0 0 0 0 0
0 0 0 0 0 0 0 0 0 0 0 0 0 0 0 0 0 0 0 0 176 653 307 198 70 89 7 0 0 0 0 0 0 0 0 0 0 0 0 0 0 0 0 0 0 0 0 0 0
0 0 0 0 0 0 0 0 0 0 0 0 0 0 0 0 0 0 0 0 5 39 39 14 59 13 0 0 0 0 0 0 0 0 0 0 0 0 0 0 0 0 0 0 0 0 0 0 0
0 0 0 0 0 0 0 0 0 0 0 0 0 0 0 0 0 0 0 0 0 0 0 0 0 0 0 0 0 0 0 0 0 0 0 0 0 0 0 0 0 0 0 0 0 0 0 0 0
0 0 0 0 0 0 0 0 0 0 0 0 0 0 0 0 0 0 0 0 0 0 0 0 0 0 0 0 0 0 0 0 0 0 0 0 0 0 0 0 0 0 0 0 0 0 0 0 0
0 0 0 0 0 0 0 0 0 0 0 0 0 0 0 0 0 0 0 0 0 0 0 0 0 0 0 0 0 0 0 0 0 0 0 0 0 0 0 0 0 0 0 0 0 0 0 0 0
0 0 0 0 0 0 0 0 0 0 0 0 0 0 0 0 0 0 0 0 0 0 0 0 0 0 0 0 0 0 0 0 0 0 0 0 0 0 0 0 0 0 0 0 0 0 0 0 0
0 0 0 0 0 0 0 0 0 0 0 0 0 0 0 0 0 0 0 0 0 0 0 0 0 0 0 0 0 0 0 0 0 0 0 0 0 0 0 0 0 0 0 0 0 0 0 0 0
0 0 0 2 7 7 0 1 0 0 0 0 0 0 0 0 0 0 0 0 0 0 0 0 0 0 0 0 0 0 0 0 0 0 0 0 0 0 0 0 0 0 0 0 0 0 0 0 0
0 0 0 2 0 0 0 0 0 0 0 0 0 0 0 0 0 0 0 0 0 0 0 0 0 0 0 0 0 0 0 0 0 0 0 0 0 0 0 0 0 0 0 0 0 0 0 0 0
0 0 0 0 0 0 0 0 0 0 0 0 0 0 0 0 0 0 0 0 0 0 0 0 0 0 0 0 0 0 0 0 0 0 0 0 0 0 0 0 0 0 0 0 0 0 0 0 0
0 0 0 0 0 0 0 0 0 0 0 0 0 0 0 0 0 0 0 0 0 0 0 0 0 0 0 0 0 0 0 0 0 0 0 0 0 0 0 0 0 0 0 0 0 0 0 0 0
0 0 0 0 0 0 0 0 0 0 0 0 0 0 0 0 0 0 0 0 0 0 0 0 0 0 0 0 0 0 0 0 0 0 0 0 0 0 0 0 0 0 0 0 0 0 0 0 0
0 0 0 0 0 0 0 0 0 0 0 0 0 0 0 0 0 0 0 0 0 0 0 0 0 0 0 0 0 0 0 0 0 0 0 0 0 0 0 0 0 0 0 0 0 0 0 0 0

GFSSGP_con_mlcape_009.txt.gz
CAPE
0 0 0 0 0 0 0 0 0 1 0 12 10 68 113 141 62 72 271 298 469 463 503 548 618 592 561 578 553 517 600 711 710 663 588 468 234 127 79 17 5 25 116 100 111 124 97 39 51
0 0 0 0 0 0 5 0 37 45 18 12 22 103 172 199 453 416 349 528 484 484 513 611 668 714 688 642 673 735 819 845 784 710 608 313 142 36 2 0 0 0 9 15 6 4 0 0 0
0 0 0 0 0 0 4 38 21 38 20 12 12 1 109 229 568 421 409 593 551 493 550 715 719 779 829 839 897 909 882 822 788 747 458 210 80 14 0 0 0 0 0 0 0 0 0 0 0
0 0 0 0 0 0 0 4 17 9 23 21 7 47 160 407 475 442 548 635 540 545 679 724 732 818 887 872 827 762 794 727 498 386 207 129 55 0 0 0 0 0 0 0 0 0 0 0 0
0 0 0 0 0 0 0 0 10 34 53 44 20 58 236 652 515 560 779 705 672 677 811 802 771 743 716 684 733 819 727 421 220 70 36 29 13 0 0 0 0 0 0 0 0 0 0 0 0
0 0 0 0 2 0 1 0 50 87 55 66 141 208 260 720 672 840 833 737 786 891 1117 1022 925 808 797 857 714 554 350 174 47 12 6 5 0 0 0 0 0 0 0 0 0 0 0 0 0
0 0 0 0 0 2 1 0 96 56 99 146 181 150 377 698 740 1000 784 843 856 985 1013 1116 1133 1075 948 708 404 168 11 0 0 0 4 0 0 0 0 0 0 0 0 0 0 0 0 0 0
0 0 0 0 9 0 0 0 48 128 176 91 104 91 446 649 815 977 877 944 994 980 975 954 884 775 516 307 87 0 0 0 0 0 7 0 0 0 0 0 0 0 0 0 0 0 0 0 0
0 0 0 0 0 0 0 0 0 29 111 38 0 67 522 699 580 468 451 516 608 600 462 386 297 164 62 22 0 0 0 0 0 46 67 51 5 0 5 32 16 21 3 0 0 0 0 0 0
0 0 0 0 0 0 0 0 17 71 93 77 4 37 419 167 232 138 31 0 39 32 127 25 3 0 0 0 0 0 1 5 62 115 159 118 127 131 89 59 84 101 82 50 20 29 29 28 0
0 0 0 0 0 0 0 0 0 25 20 40 24 47 162 215 169 19 0 0 0 4 72 16 0 0 0 0 0 5 43 101 143 255 227 249 253 185 90 71 3 1 15 1 8 19 27 14 0
0 0 0 0 0 0 0 0 0 0 2 84 66 39 53 76 16 0 8 40 99 95 147 117 41 0 0 0 0 27 112 189 211 294 312 209 151 15 0 0 0 0 0 0 0 0 0 0 0
0 0 0 0 0 0 0 0 0 0 0 147 60 0 0 0 0 0 20 91 197 261 313 323 284 36 6 30 2 125 222 380 446 389 277 143 32 0 0 0 0 0 0 0 0 0 0 0 0
0 0 0 0 0 0 0 0 0 0 82 89 43 0 0 0 0 0 0 75 273 359 401 336 365 261 121 59 135 193 275 394 520 435 280 94 0 0 0 0 0 0 0 0 0 0 0 0 0
0 0 0 0 0 0 0 0 0 0 100 73 53 20 5 0 0 0 0 2 237 367 449 365 248 123 94 108 135 145 249 126 329 207 83 0 0 0 0 0 0 0 0 0 0 0 0 0 0
0 0 0 0 0 0 0 0 0 0 37 52 95 90 33 10 3 0 0 0 9 401 473 330 216 9 7 71 94 11 0 0 5 0 0 0 0 0 0 0 0 0 0 0 0 0 0 0 0
0 0 0 0 0 0 0 0 0 0 0 3 45 37 11 16 0 0 0 0 0 397 441 161 60 8 9 0 0 0 0 0 0 0 0 0 0 0 0 0 0 0 0 0 0 0 0 0 0
0 0 0 0 0 0 0 0 0 0 0 0 0 0 0 0 0 0 0 25 41 192 118 6 5 0 0 0 0 0 0 0 0 0 0 0 0 0 0 0 0 0 0 0 0 0 0 0 0
0 0 0 0 0 0 0 0 0 0 0 0 0 0 0 0 0 0 0 10 37 28 50 0 0 0 0 0 0 0 0 0 0 0 0 0 0 0 0 0 0 0 0 0 0 0 0 0 0
0 0 0 0 0 0 0 0 0 0 0 0 0 0 0 0 0 0 0 23 33 1 0 0 0 0 0 0 0 0 0 0 0 0 0 0 0 0 0 0 0 0 0 0 0 0 0 0 0
0 0 0 0 0 0 0 0 0 0 0 0 0 0 0 0 0 0 0 0 0 0 0 0 0 0 0 0 0 0 0 0 0 0 0 0 0 0 0 0 0 0 0 0 0 0 0 0 0
0 0 0 0 0 0 0 0 0 0 0 0 0 0 0 0 0 0 0 0 0 0 0 0 0 0 0 0 0 0 0 0 0 0 0 0 0 0 0 0 0 0 0 0 0 0 0 0 0
0 0 0 0 0 0 0 0 0 0 0 0 0 0 0 0 0 0 0 0 0 0 0 0 0 0 0 0 0 0 0 0 0 0 0 0 0 0 0 0 0 0 0 0 0 0 0 0 0
0 0 0 0 0 0 0 0 0 0 0 0 0 0 0 0 0 0 0 0 0 0 0 0 0 0 0 0 0 0 0 0 0 0 0 0 0 0 0 0 0 0 0 0 0 0 0 0 0
0 0 0 0 0 0 0 0 0 0 0 0 0 0 0 0 0 0 0 0 0 0 0 0 0 0 0 0 0 0 0 0 0 0 0 0 0 0 0 0 0 0 0 0 0 0 0 0 0
0 0 0 0 0 0 0 0 0 0 0 0 0 0 0 0 0 0 0 0 0 0 0 0 0 0 0 0 0 0 0 0 0 0 0 0 0 0 0 0 0 0 0 0 0 0 0 0 0
0 0 0 0 0 0 0 0 0 0 0 0 0 0 0 0 0 0 0 0 0 0 0 0 0 0 0 0 0 0 0 0 0 0 0 0 0 0 0 0 0 0 0 0 0 0 0 0 0
0 0 0 0 0 0 0 0 0 0 0 0 0 0 0 0 0 0 0 0 0 0 0 0 0 0 0 0 0 0 0 0 0 0 0 0 0 0 0 0 0 0 0 0 0 0 0 0 0
0 0 0 0 0 0 0 0 0 0 0 0 0 0 0 0 0 0 0 0 0 0 0 0 0 0 0 0 0 0 0 0 0 0 0 0 0 0 0 0 0 0 0 0 0 0 0 0 0
0 0 0 0 0 0 0 0 0 0 0 0 0 0 0 0 0 0 0 0 0 0 0 0 0 0 0 0 0 0 0 0 0 0 0 0 0 0 0 0 0 0 0 0 0 0 0 0 0

GFSSGP_con_mlcape_012.txt.gz
CAPE
0 0 0 0 0 0 0 0 7 16 46 58 86 87 88 108 49 37 308 436 482 553 672 524 454 469 483 420 336 458 616 635 576 573 440 172 63 13 0 0 20 44 26 20 23 30 16 12 12
0 0 0 0 0 0 0 0 100 89 58 18 9 10 55 48 301 336 391 619 523 589 633 593 546 570 537 482 482 679 782 696 632 561 272 74 21 0 0 0 0 0 0 0 0 0 0 0 0
0 0 0 0 0 0 0 66 113 46 33 12 9 1 15 35 399 323 546 578 538 531 656 662 611 592 584 580 664 780 792 744 633 439 200 82 3 0 0 0 0 0 0 0 0 0 0 0 0
0 0 0 0 0 0 0 64 20 1 0 0 0 0 11 138 365 439 717 591 502 566 631 721 675 691 753 759 838 801 688 653 554 260 143 47 0 0 0 0 0 0 0 0 0 0 0 0 0
0 0 0 0 0 0 0 25 29 13 25 2 0 0 17 579 534 665 666 582 531 585 666 761 788 811 815 860 775 648 637 390 235 100 71 5 0 0 0 0 0 0 0 0 0 0 0 0 0
0 0 0 0 0 0 1 40 66 100 81 13 33 96 190 767 607 782 764 681 597 717 758 748 733 732 673 638 672 679 462 191 95 47 7 0 0 0 0 0 0 0 0 0 0 0 0 0 0
0 0 0 0 10 0 0 88 117 45 4 97 135 110 440 567 579 889 879 802 866 906 860 770 710 656 638 707 645 459 308 89 21 0 10 0 0 0 0 0 0 0 0 0 0 0 0 0 0
0 0 0 19 30 0 0 8 15 17 38 108 120 131 336 663 885 839 697 619 667 768 813 901 843 840 796 645 377 116 24 11 11 2 13 0 0 0 0 0 0 0 0 0 0 0 0 0 0
0 0 0 12 21 0 0 0 11 26 95 53 31 257 449 771 848 671 669 653 679 792 839 807 855 814 593 299 118 43 3 0 0 8 67 12 0 0 0 14 7 4 11 2 3 3 0 0 0
0 0 0 0 6 5 2 0 36 132 107 70 55 470 810 971 930 637 501 341 431 385 658 623 555 397 191 83 7 0 0 0 53 96 144 52 47 42 43 39 24 19 30 27 26 17 16 9 0
0 0 0 0 1 0 0 0 9 155 135 73 133 428 925 868 555 132 92 9 0 4 254 250 112 26 0 0 0 0 0 24 98 162 156 149 167 128 26 6 0 0 0 0 0 0 0 0 0
0 0 0 0 0 0 0 0 75 97 24 89 172 543 732 288 130 4 0 0 0 0 68 52 3 0 0 0 0 0 28 64 162 279 253 206 146 26 0 0 0 0 0 0 0 0 0 0 0
0 0 0 0 0 0 0 0 0 2 41 79 289 462 266 187 115 3 0 0 0 2 76 30 0 0 0 0 0 1 84 201 242 325 314 153 68 0 0 0 0 0 0 0 0 0 0 0 0
0 0 0 0 0 0 0 0 0 0 48 51 154 177 151 176 85 1 0 0 12 87 89 116 25 0 0 0 0 8 116 274 384 372 285 162 7 7 0 0 0 0 0 0 0 0 0 0 0
0 0 0 0 0 0 0 0 0 0 112 41 62 123 36 3 0 0 0 1 54 170 209 213 129 48 0 14 24 53 48 108 237 256 78 10 0 0 0 0 0 0 0 0 0 0 0 0 0
0 0 0 0 0 0 0 0 0 13 80 72 41 2 0 0 0 0 0 0 0 143 283 186 109 1 3 0 0 1 1 0 0 0 0 0 0 0 0 0 0 0 0 0 0 0 0 0 0
0 0 0 0 0 0 0 0 0 0 153 76 31 0 0 0 0 0 0 0 0 136 274 110 23 1 0 0 0 0 0 0 0 0 0 0 0 0 0 0 0 0 0 0 0 0 0 0 0
0 0 0 0 0 0 0 0 0 0 29 12 5 0 0 0 0 0 0 0 0 33 65 7 4 0 0 0 0 0 0 0 0 0 0 0 0 0 0 0 0 0 0 0 0 0 0 0 0
0 0 0 0 0 0 0 0 0 0 0 0 0 0 0 0 0 0 0 0 0 0 5 0 0 0 0 0 0 0 0 0 0 0 0 0 0 0 0 0 0 0 0 0 0 0 0 0 0
0 0 0 0 0 0 0 0 0 0 0 0 0 0 0 0 0 0 0 0 0 0 0 0 0 0 0 0 0 0 0 0 0 0 0 0 0 0 0 0 0 0 0 0 0 0 0 0 0
0 0 0 0 0 0 0 0 0 0 0 0 0 0 0 0 0 0 0 0 0 0 0 0 0 0 0 0 0 0 0 0 0 0 0 0 0 0 0 0 0 0 0 0 0 0 0 0 0
0 0 0 0 0 0 0 0 0 0 0 0 0 0 0 0 0 0 0 0 0 0 0 0 0 0 0 0 0 0 0 0 0 0 0 0 0 0 0 0 0 0 0 0 0 0 0 0 0
0 0 0 0 0 0 0 0 0 0 0 0 0 0 0 0 0 0 0 0 0 0 0 0 0 0 0 0 0 0 0 0 0 0 0 0 0 0 0 0 0 0 0 0 0 0 0 0 0
0 0 0 0 0 0 0 0 0 0 0 0 0 0 0 0 0 0 0 0 0 0 0 0 0 0 0 0 0 0 0 0 0 0 0 0 0 0 0 0 0 0 0 0 0 0 0 0 0
0 0 0 0 0 0 0 0 0 0 0 0 0 0 0 0 0 0 0 0 0 0 0 0 0 0 0 0 0 0 0 0 0 0 0 0 0 0 0 0 0 0 0 0 0 0 0 0 0
0 0 0 0 0 0 0 0 0 0 0 0 0 0 0 0 0 0 0 0 0 0 0 0 0 0 0 0 0 0 0 0 0 0 0 0 0 0 0 0 0 0 0 0 0 0 0 0 0
0 0 0 0 0 0 0 0 0 0 0 0 0 0 0 0 0 0 0 0 0 0 0 0 0 0 0 0 0 0 0 0 0 0 0 0 0 0 0 0 0 0 0 0 0 0 0 0 0
0 0 0 0 0 0 0 0 0 0 0 0 0 0 0 0 0 0 0 0 0 0 0 0 0 0 0 0 0 0 0 0 0 0 0 0 0 0 0 0 0 0 0 0 0 0 0 0 0
0 0 0 0 0 0 0 0 0 0 0 0 0 0 0 0 0 0 0 0 0 0 0 0 0 0 0 0 0 0 0 0 0 0 0 0 0 0 0 0 0 0 0 0 0 0 0 0 0
0 0 0 0 0 0 0 0 0 0 0 0 0 0 0 0 0 0 0 0 0 0 0 0 0 0 0 0 0 0 0 0 0 0 0 0 0 0 0 0 0 0 0 0 0 0 0 0 0

GFSSGP_con_mlcape_015.txt.gz
CAPE
0 0 0 0 0 0 0 0 0 39 79 55 95 136 99 108 62 50 354 447 614 741 852 507 346 380 270 249 329 458 476 450 382 247 58 0 0 0 0 10 22 14 0 0 0 0 0 0 0
0 0 0 0 0 0 0 2 71 39 53 7 7 12 47 20 67 413 461 638 811 856 855 577 399 420 367 353 492 613 624 545 470 238 59 0 0 0 0 0 0 0 0 0 0 0 0 0 0
0 0 0 0 0 0 0 102 47 20 26 11 2 10 37 3 66 376 591 734 744 851 804 632 499 494 483 487 653 771 684 601 448 172 83 11 0 0 0 0 0 0 0 0 0 0 0 0 0
0 0 0 0 0 0 5 87 71 44 0 0 0 1 5 23 176 358 854 805 767 768 725 616 545 599 558 630 882 775 656 576 320 177 134 0 0 0 0 0 0 0 0 0 0 0 0 0 0
0 0 0 0 0 0 0 127 81 38 0 0 0 1 58 486 556 925 798 786 790 745 791 723 641 624 725 941 873 716 627 559 242 190 132 12 0 0 0 0 0 0 0 0 0 0 0 0 0
0 0 0 0 0 0 4 128 95 77 15 0 54 24 206 792 910 861 812 779 807 733 991 1018 787 829 940 922 775 651 540 274 79 123 38 0 0 0 0 0 0 0 0 0 0 0 0 0 0
0 0 0 0 0 8 14 122 131 128 74 46 137 118 468 883 958 968 895 825 839 983 965 1017 1113 968 843 726 714 617 353 110 68 20 1 0 0 0 0 0 0 0 0 0 0 0 0 0 0
0 0 0 8 12 19 22 8 10 43 101 122 221 182 641 826 1016 1034 1008 975 1047 927 985 925 936 883 818 876 721 478 204 37 6 0 0 0 0 0 0 0 0 0 0 0 0 0 0 0 0
0 0 0 23 28 36 3 0 1 70 154 85 15 426 686 991 1088 997 816 727 782 774 755 801 744 751 846 769 545 214 25 2 0 35 0 3 9 26 30 7 6 14 7 0 0 0 0 0 0
0 0 0 5 44 27 3 3 7 183 200 77 237 909 1018 975 924 894 884 853 844 816 762 735 780 782 819 547 342 197 73 59 58 117 149 78 94 137 136 100 21 5 0 0 0 0 0 0 0
0 0 0 0 35 22 0 0 18 193 232 160 212 647 884 1022 925 791 721 591 521 758 740 656 721 708 538 321 231 39 37 35 102 207 229 203 231 262 182 120 5 0 0 0 0 0 0 0 0
0 0 0 0 2 19 5 0 66 244 158 135 501 761 848 963 549 285 303 301 368 259 384 607 614 400 222 120 72 3 25 78 209 343 320 353 377 167 28 0 0 0 0 0 0 0 0 0 0
0 0 0 0 0 6 0 5 152 155 21 229 765 941 825 975 757 424 307 154 86 68 202 426 261 89 19 4 6 8 101 236 300 429 505 384 227 41 0 0 0 0 0 0 0 0 0 0 0
0 0 0 0 0 0 0 0 0 0 120 315 471 601 959 803 407 110 4 0 0 45 166 202 92 3 0 15 37 25 112 166 194 216 178 127 68 24 0 0 0 0 0 0 0 0 0 0 0
0 0 0 0 0 0 0 0 0 0 101 287 658 488 559 301 141 93 0 0 0 107 199 223 41 14 6 57 7 24 4 2 20 13 0 0 0 0 0 0 0 0 0 0 0 0 0 0 0
0 0 0 0 0 0 0 0 0 0 87 143 238 286 255 52 0 0 0 0 4 188 345 243 87 22 0 0 0 0 0 0 0 0 0 0 0 0 0 0 0 0 0 0 0 0 0 0 0
0 0 0 0 0 0 0 0 0 0 91 43 53 88 69 26 0 0 0 0 1 176 279 260 137 1 0 0 0 0 0 0 0 0 0 0 0 0 0 0 0 0 0 0 0 0 0 0 0
0 0 0 0 0 0 0 0 0 0 63 31 0 0 0 0 0 0 0 0 8 101 175 115 1 0 0 0 0 0 0 0 0 0 0 0 0 0 0 0 0 0 0 0 0 0 0 0 0
0 0 0 0 0 0 0 0 0 0 0 32 29 4 0 0 0 0 0 0 5 62 59 0 0 0 0 0 0 0 0 0 0 0 0 0 0 0 0 0 0 0 0 0 0 0 0 0 0
0 0 0 0 0 0 0 0 0 0 0 0 0 0 0 0 0 0 7 24 122 150 35 9 1 0 0 0 0 0 0 0 0 0 0 0 0 0 0 0 0 0 0 0 0 0 0 0 0
0 0 0 0 0 0 0 0 0 0 0 0 0 0 0 0 2 0 3 2 0 0 0 0 0 0 0 0 0 0 0 0 0 0 0 0 0 0 0 0 0 0 0 0 0 0 0 0 0
0 0 0 0 0 1 0 0 0 0 0 0 0 0 0 0 0 0 0 0 0 0 0 0 0 0 0 0 0 0 0 0 0 0 0 0 0 0 0 0 0 0 0 0 0 0 0 0 0
0 0 0 0 0 0 0 0 0 0 1 0 0 0 0 0 0 0 0 0 0 0 0 0 0 0 0 0 0 0 0 0 0 0 0 0 0 0 0 0 0 0 0 0 0 0 0 0 0
0 0 0 0 0 0 0 0 0 0 0 0 0 0 0 0 0 0 0 0 0 0 0 0 0 0 0 0 0 0 0 0 0 0 0 0 0 0 0 0 0 0 0 0 0 0 0 0 0
0 0 0 0 0 0 0 0 0 0 0 0 0 0 0 0 0 0 0 0 0 0 0 0 0 0 0 0 0 0 0 0 0 0 0 0 0 0 0 0 0 0 0 0 0 0 0 0 0
0 0 0 0 0 0 0 0 0 0 0 0 0 0 0 0 0 0 0 0 0 0 0 0 0 0 0 0 0 0 0 0 0 0 0 0 0 0 0 0 0 0 0 0 0 0 0 0 0
0 0 0 0 0 0 0 0 0 0 0 0 0 0 0 0 0 0 0 0 0 0 0 0 0 0 0 0 0 0 0 0 0 0 0 0 0 0 0 0 0 0 0 0 0 0 0 0 0
0 0 0 0 0 0 0 0 0 0 0 0 0 0 0 0 0 0 0 0 0 0 0 0 0 0 0 0 0 0 0 0 0 0 0 0 0 0 0 0 0 1 1 0 0 0 0 0 0
0 0 0 0 0 0 0 0 0 0 0 0 0 0 0 0 0 0 0 0 0 0 0 0 0 0 0 0 0 0 0 0 0 0 0 0 0 0 0 1 3 5 1 2 0 0 0 0 0
0 0 0 0 0 0 0 0 0 0 0 0 0 0 0 0 0 0 0 0 0 0 0 0 0 0 0 0 0 0 0 0 0 0 0 0 0 0 0 0 0 2 8 0 0 0 0 0 0

GFSSGP_con_mlcape_018.txt.gz
CAPE
0 0 0 0 0 0 0 0 0 388 290 328 378 276 168 147 245 127 484 560 672 667 561 323 251 260 243 285 358 425 430 413 306 139 79 9 0 0 0 0 0 0 0 0 0 0 0 0 0
0 0 0 0 0 0 0 0 22 361 153 9 0 25 85 12 189 506 437 719 743 854 620 469 274 290 318 400 470 535 606 500 269 90 13 0 0 0 0 0 0 0 0 0 0 0 0 0 0
0 0 0 0 0 0 0 77 130 218 31 5 0 16 22 49 74 445 733 972 929 807 867 669 353 336 362 412 537 623 650 449 201 69 2 0 0 0 0 0 0 0 0 0 0 0 0 0 0
0 0 0 0 0 0 23 180 213 147 80 10 0 0 0 3 1 201 848 817 743 913 974 579 452 367 376 499 655 759 641 399 173 124 92 0 0 0 0 0 0 0 0 0 0 0 0 0 0
0 0 0 0 0 0 38 456 321 116 65 27 32 22 0 46 148 561 509 348 314 635 991 701 519 445 444 610 956 749 612 376 224 214 96 0 0 0 0 0 0 0 0 0 0 0 0 0 0
0 0 0 0 0 0 0 472 378 54 5 33 35 113 450 915 707 867 363 311 526 939 1054 818 552 516 588 1075 903 676 601 332 209 129 75 0 0 0 0 0 0 0 0 0 0 0 0 0 0
0 0 0 0 52 56 42 409 397 41 8 99 193 265 907 1048 948 764 696 865 939 1153 1105 831 683 754 902 972 763 598 396 195 142 94 19 0 0 0 0 0 0 0 0 0 0 0 0 0 0
0 0 0 7 132 196 202 159 11 27 123 275 465 296 649 1210 1269 1081 1000 1025 1166 1138 1095 994 990 959 949 884 720 493 265 77 55 32 0 0 0 0 0 0 0 0 0 0 0 0 0 0 0
0 0 0 74 151 143 52 14 0 29 178 279 225 704 1024 1417 1173 1059 955 1088 1000 914 995 997 799 847 830 759 753 338 115 73 27 19 0 17 72 113 76 9 0 0 2 0 0 0 0 0 0
0 0 0 55 177 149 29 1 0 171 289 279 906 1265 1320 1442 1408 1337 1180 1069 1011 851 906 750 921 907 984 526 444 250 45 21 167 212 273 251 407 347 203 86 0 0 0 0 0 0 0 0 0
0 0 0 41 195 45 7 0 13 147 454 469 947 1355 1467 1469 1461 1346 1161 965 980 802 764 741 761 810 654 385 205 1 23 187 461 596 613 677 677 634 256 107 51 54 0 1 0 0 0 0 0
0 0 0 2 181 31 13 33 64 278 255 368 994 1423 1412 1347 1286 1138 1001 597 493 644 658 672 704 854 565 201 21 54 122 426 610 778 920 952 744 599 233 53 83 78 14 0 0 0 0 0 0
0 0 0 0 0 94 46 47 183 274 201 803 1217 1335 1439 1138 867 582 471 408 402 353 502 670 582 505 375 185 161 293 559 603 883 928 1044 978 796 629 160 176 51 0 0 0 0 0 0 0 0
0 0 0 0 15 14 34 10 134 25 505 1049 1151 1155 1280 1185 765 434 344 265 263 258 553 633 387 292 186 303 450 533 584 564 614 760 693 278 198 287 305 98 0 0 0 0 0 0 0 0 0
0 0 0 0 0 11 0 0 0 11 401 867 803 918 1133 1061 805 391 166 70 54 256 574 595 466 318 405 157 16 1 3 64 164 154 48 10 9 7 1 0 0 0 0 0 0 0 0 0 0
0 0 0 0 0 0 0 0 0 8 330 701 795 928 961 639 461 317 210 82 40 363 632 742 496 432 17 1 0 1 0 0 14 12 0 0 0 0 0 0 0 0 0 0 0 0 0 0 0
0 0 0 0 0 0 0 0 0 94 346 582 702 619 607 313 287 354 357 142 268 578 846 802 673 365 118 0 0 0 0 0 0 0 0 0 0 0 0 0 0 0 0 0 0 0 0 0 0
0 0 0 0 0 0 0 0 0 142 327 357 392 451 433 397 306 304 360 347 470 722 936 942 586 322 31 0 0 0 0 0 0 0 0 0 0 0 0 0 0 0 0 0 0 0 0 0 0
0 0 0 0 0 13 4 12 0 34 285 318 334 357 364 306 225 355 457 509 575 716 787 740 288 129 81 26 0 0 0 0 0 0 0 0 0 0 0 0 0 0 0 0 0 0 0 0 0
0 0 2 0 0 44 57 88 22 2 93 290 391 362 339 263 346 418 594 635 685 720 696 608 415 157 19 5 7 4 0 0 0 0 0 0 0 0 0 0 0 0 0 0 0 0 0 0 6
3 28 12 11 0 30 65 71 75 6 2 6 82 282 310 389 454 523 662 857 793 577 587 391 93 5 1 0 0 0 0 0 0 0 0 0 0 0 0 0 0 0 0 0 0 0 0 0 0
56 0 7 6 9 30 16 57 127 113 64 65 53 98 180 359 596 592 369 210 335 114 1 0 0 0 0 0 0 0 0 0 0 0 0 0 0 0 0 0 0 0 0 0 1 0 0 0 0
58 2 51 22 64 33 12 16 124 132 135 131 161 256 374 467 137 4 0 2 0 0 0 0 0 0 0 0 0 0 0 0 0 0 0 0 0 0 0 0 0 0 0 0 0 0 0 0 0
0 15 16 14 20 2 29 14 35 169 134 161 153 96 102 9 0 0 0 0 0 0 0 0 0 0 0 0 0 0 0 0 0 0 0 0 0 0 0 0 1 2 2 1 0 0 0 0 0
41 32 16 7 0 8 0 0 0 22 36 176 108 0 0 0 0 0 0 0 0 0 0 0 0 0 0 0 0 0 0 0 0 0 0 0 0 0 0 0 0 3 10 0 0 0 6 0 0
20 34 5 0 1 0 0 0 0 0 0 87 70 0 0 0 0 0 0 0 0 0 0 0 0 0 0 0 0 0 0 0 0 0 0 0 0 0 0 0 0 9 5 4 0 16 23 6 1
0 0 0 0 0 0 0 0 0 0 0 0 19 0 0 0 0 0 0 0 0 0 0 0 0 0 0 0 0 0 0 0 0 0 0 0 0 0 0 0 6 24 27 24 20 25 30 15 7
0 0 0 0 0 0 0 0 0 0 0 0 2 0 0 0 0 0 0 0 0 0 0 0 0 0 0 0 0 0 0 0 0 0 0 0 0 0 0 0 12 24 25 32 17 30 15 5 6
0 0 0 0 0 0 0 0 0 0 0 0 0 0 0 0 0 0 0 0 0 0 0 0 0 0 0 0 0 0 0 0 0 0 0 0 0 0 0 0 3 24 28 15 14 11 27 10 3
0 0 0 0 0 0 0 0 0 0 0 0 0 0 0 0 0 0 0 0 0 0 0 0 0 0 0 0 0 0 0 0 0 0 0 0 0 0 0 0 3 14 27 20 18 24 5 0 3

GFSSGP_con_mlcape_021.txt.gz
CAPE
0 0 0 0 0 0 0 1 0 526 463 464 476 423 282 358 642 346 429 592 575 313 119 137 190 155 182 229 284 328 376 254 167 142 20 0 0 0 0 0 0 0 0 0 0 0 0 0 0
0 0 0 0 0 0 1 8 70 559 275 214 222 292 149 185 679 749 661 751 680 421 154 182 236 251 315 369 472 487 467 273 165 44 0 0 0 0 0 0 0 0 0 0 0 0 0 0 0
0 0 0 0 0 0 23 85 474 354 310 244 60 18 22 38 654 732 627 649 651 433 324 290 296 321 352 439 542 561 467 227 139 81 0 0 0 0 0 0 0 0 0 0 0 0 0 0 0
0 0 0 0 0 3 0 350 360 190 307 103 50 11 2 4 247 671 835 682 621 435 414 292 332 328 350 455 595 576 364 203 130 89 0 0 0 0 0 0 0 0 0 0 0 0 0 0 0
0 0 0 0 0 4 62 280 118 171 181 86 64 0 0 3 24 509 898 662 344 305 405 368 329 305 357 551 628 589 362 206 187 97 0 0 0 0 0 0 0 0 0 0 0 0 0 0 0
0 0 0 2 25 2 0 228 233 169 26 26 95 89 171 97 122 300 663 158 0 43 374 493 395 328 406 578 629 565 362 221 180 59 0 0 0 0 0 0 0 0 0 0 0 0 0 0 0
0 0 0 10 55 52 0 314 96 102 2 43 17 181 745 450 500 789 138 3 0 47 457 665 524 461 532 767 614 528 293 145 74 27 0 0 0 0 0 0 0 0 0 0 0 0 0 0 0
0 0 0 6 90 193 136 394 223 46 0 225 223 414 457 857 1072 545 12 165 4 5 628 764 745 748 897 795 541 348 117 28 22 2 0 0 0 0 0 0 0 0 0 0 0 0 0 0 0
0 0 0 14 120 18 158 163 40 0 0 218 496 661 968 1315 1217 832 482 642 383 654 836 790 748 728 752 777 579 190 24 9 0 0 0 3 35 75 23 0 0 0 0 0 0 0 0 0 0
0 0 6 54 57 2 60 0 0 0 0 110 839 1075 1422 1323 1177 956 964 809 722 703 727 751 815 756 628 460 367 88 1 0 124 122 63 175 194 296 131 25 0 0 0 0 0 0 0 0 0
0 0 0 19 87 174 42 3 8 33 20 202 710 1068 1307 1338 1160 920 755 732 728 669 750 824 884 962 426 288 94 0 0 241 463 536 506 503 334 395 280 179 113 162 0 111 20 22 9 0 0
0 0 0 25 35 6 0 9 4 0 0 178 602 1266 1387 1095 1312 1173 838 384 373 540 760 847 810 788 380 108 3 20 169 425 390 503 730 699 650 495 193 139 158 168 120 50 26 36 0 0 0
0 0 0 30 41 0 0 8 7 5 73 313 911 1443 1038 1049 735 406 280 303 290 344 497 609 554 412 310 71 240 430 361 825 786 836 987 1015 826 779 328 345 266 176 74 52 22 5 0 0 0
0 0 0 0 8 37 22 2 2 61 180 484 855 789 380 435 337 235 206 189 197 252 437 391 305 207 146 397 580 694 521 494 687 835 742 529 536 29 4 16 206 67 48 9 0 0 0 0 0
0 0 0 0 4 50 38 0 0 108 263 390 414 349 336 315 217 146 98 144 161 269 468 399 363 294 549 603 69 4 5 20 181 386 364 162 122 116 197 63 58 5 0 0 0 0 0 0 0
0 0 0 0 19 23 22 2 1 107 233 257 289 333 407 510 334 141 76 51 138 361 670 622 418 607 437 28 0 0 1 0 38 59 45 33 29 0 0 1 0 0 0 0 0 0 0 0 0
0 0 0 0 11 24 8 0 4 96 188 324 393 552 605 476 411 345 243 133 156 543 932 955 739 702 259 37 0 0 0 0 0 0 0 0 0 0 0 0 0 0 0 0 0 0 0 0 0
0 0 1 7 3 19 0 0 0 109 180 368 454 548 624 467 469 534 492 312 287 586 1060 1156 1059 602 395 38 9 25 46 33 0 0 0 0 0 0 0 0 0 0 0 0 0 0 0 0 0
0 0 0 0 0 0 0 0 5 81 184 300 352 475 598 627 655 676 680 663 726 1040 1296 1063 738 609 311 378 350 206 0 0 0 0 0 0 0 0 0 0 0 0 0 0 0 0 0 0 0
0 0 2 0 0 11 0 27 4 53 154 258 315 362 438 563 649 778 878 919 935 1081 1149 952 730 647 574 445 148 25 57 1 0 0 0 0 0 0 0 0 0 0 0 0 0 0 0 0 0
0 0 10 35 29 24 66 66 98 88 185 322 417 420 434 553 702 849 994 1061 1163 1036 895 782 668 550 259 106 11 2 0 0 0 0 0 0 0 0 0 0 0 0 0 0 0 0 0 0 0
14 33 17 80 59 11 4 22 10 128 91 123 250 426 581 595 742 959 1074 1207 1090 955 863 597 291 71 14 0 0 0 5 18 0 0 0 0 0 0 0 0 0 0 0 0 0 0 0 0 0
44 69 131 99 45 0 50 24 26 202 213 143 179 221 355 513 756 924 966 697 524 206 67 11 0 0 0 0 0 0 0 0 0 0 0 0 0 0 0 0 0 0 0 0 2 5 5 6 12
46 130 128 102 44 41 21 37 179 261 220 224 300 398 551 757 678 247 138 45 3 0 0 0 0 0 0 0 0 0 0 0 0 0 0 0 0 0 0 0 0 0 0 1 7 14 12 21 19
62 102 70 26 49 68 67 59 19 7 118 189 381 471 622 430 72 0 0 0 0 0 0 0 0 0 0 0 0 0 0 0 0 0 0 0 0 0 0 0 0 0 0 2 9 12 6 18 11
79 60 86 6 39 34 79 0 34 76 7 93 368 347 375 132 0 0 0 0 0 0 0 0 0 0 0 0 0 0 0 0 0 0 0 0 0 0 0 0 0 0 1 10 18 6 13 11 10
32 6 41 82 36 7 0 0 20 31 30 88 316 242 211 4 0 0 0 0 0 0 0 0 0 0 0 0 0 0 0 0 0 0 0 0 0 0 0 0 0 1 3 10 20 23 23 8 13
0 10 2 0 0 0 3 1 3 58 0 22 263 184 88 0 0 0 0 0 0 0 0 0 0 0 0 0 0 0 0 0 0 0 0 0 0 0 0 0 0 0 1 28 32 22 17 12 25
8 0 0 7 23 0 0 0 0 0 0 1 74 178 61 1 0 0 0 0 0 0 0 0 0 0 0 0 0 0 0 0 0 0 0 0 0 0 0 0 0 0 0 10 17 9 10 15 24
0 13 5 0 0 0 0 0 0 0 0 0 8 88 50 18 0 0 0 0 0 0 0 0 0 0 0 0 0 0 0 0 0 0 0 0 0 0 0 0 0 3 12 10 25 16 15 18 6

GFSSGP_con_mlcape_027.txt.gz
CAPE
0 0 0 0 0 0 0 0 4 109 539 586 560 630 738 934 885 414 415 101 21 106 517 501 345 220 190 198 205 119 22 4 1 0 0 0 0 0 0 0 0 0 0 0 0 0 0 0 0
0 0 0 0 0 0 0 0 556 526 609 509 431 477 657 873 837 618 169 33 22 36 218 337 240 220 267 263 214 129 76 24 3 0 0 0 0 0 0 0 0 0 0 0 0 0 0 0 0
0 0 0 0 0 0 0 71 397 501 390 347 345 278 223 891 934 893 258 4 1 64 195 169 189 200 259 290 237 111 69 21 0 0 0 0 2 1 3 0 0 0 0 0 0 0 0 0 0
0 0 0 0 0 0 0 226 533 455 154 167 67 22 0 627 1002 749 270 31 12 98 79 47 100 160 249 325 186 105 50 9 2 0 0 1 8 14 3 0 0 0 0 0 0 0 0 0 0
0 0 0 0 0 0 1 510 497 247 59 9 25 4 17 927 941 526 247 235 194 65 72 71 129 211 355 262 158 109 20 2 0 0 0 0 4 9 0 0 0 0 0 0 0 0 0 0 0
0 0 0 0 0 15 297 81 8 29 17 100 25 50 77 922 782 442 282 88 33 2 29 107 149 263 371 252 137 68 22 0 0 0 0 0 0 0 0 0 0 0 0 0 0 0 0 0 0
0 0 0 0 0 155 461 132 82 132 116 32 84 252 285 713 248 147 64 2 54 25 11 86 205 319 308 143 60 37 12 0 0 0 0 0 0 0 0 0 0 0 0 0 0 0 0 0 0
0 0 0 0 0 162 138 79 65 91 93 69 132 115 348 223 43 1 0 0 0 9 42 11 237 334 266 93 25 22 12 0 0 0 0 0 0 0 0 0 0 0 0 0 0 0 0 0 0
0 0 0 0 14 116 8 10 22 0 7 22 268 516 425 64 0 3 1 0 0 0 75 29 210 236 182 36 5 0 0 0 0 0 0 0 0 0 0 0 0 0 0 0 0 0 0 0 0
0 0 0 78 120 77 37 11 0 0 4 66 58 233 64 10 0 0 0 0 0 0 43 192 213 307 96 5 0 0 0 0 0 0 0 0 6 0 7 0 0 0 0 0 0 0 0 2 0
0 0 0 50 109 72 27 66 0 0 5 10 1 59 116 89 0 0 0 0 0 2 86 191 274 316 40 3 0 0 0 0 0 0 4 3 91 0 0 0 0 0 0 2 14 1 0 0 0
0 0 0 191 104 22 18 5 0 0 7 2 0 249 201 260 3 0 2 18 7 37 121 190 382 373 66 30 7 0 36 156 110 364 457 235 205 78 4 0 0 3 0 0 0 0 0 0 0
0 0 0 184 94 17 2 6 0 0 0 104 261 290 294 344 47 13 12 20 76 280 401 326 361 91 112 128 135 259 434 568 609 500 409 387 192 3 0 0 0 0 0 0 0 0 0 0 0
0 0 0 152 80 84 23 1 9 40 17 143 388 432 697 489 278 274 170 202 515 406 253 379 242 57 263 286 255 191 251 436 426 359 219 237 46 0 3 0 0 0 0 0 0 0 0 0 0
10 0 0 10 36 20 2 9 5 17 40 137 421 530 300 199 163 430 487 476 295 206 262 445 83 257 270 153 85 0 0 1 0 11 39 72 10 1 0 0 0 0 0 0 0 0 0 0 0
0 0 0 0 18 0 0 0 60 1 39 220 169 97 111 69 31 220 225 590 362 180 211 314 175 391 183 95 0 0 0 1 0 0 0 0 3 0 0 0 0 0 0 0 0 0 0 0 0
0 0 0 0 1 14 11 0 148 78 135 123 81 61 63 36 48 68 77 311 283 188 318 242 242 339 185 7 0 0 0 0 0 0 0 0 0 0 0 0 0 0 0 0 0 0 0 0 0
0 0 0 0 6 8 4 0 4 67 165 164 121 103 90 47 26 25 12 144 279 296 228 291 337 293 115 0 0 0 0 0 0 0 0 0 0 0 0 0 0 0 0 0 0 0 0 0 0
0 0 0 0 0 5 0 0 0 5 120 99 138 151 204 113 47 18 0 70 317 319 319 348 276 212 40 0 0 22 21 0 0 0 0 0 0 0 0 0 0 0 0 0 0 0 0 0 0
0 2 0 0 0 0 0 0 0 2 104 192 22 251 277 247 209 185 210 140 678 448 459 440 403 267 49 0 2 65 0 0 0 0 0 0 0 0 0 0 0 0 0 0 0 0 0 0 0
2 16 8 0 0 0 0 0 0 1 30 156 126 215 319 313 357 428 418 629 964 767 524 519 469 382 273 75 99 11 0 0 0 0 0 0 0 0 0 0 0 0 0 0 0 0 0 0 0
0 0 3 0 0 0 0 5 24 8 10 15 177 296 384 279 505 584 626 570 1022 943 690 571 494 313 251 211 23 0 0 0 0 0 0 0 0 0 0 0 0 0 0 0 0 0 0 0 0
2 0 0 1 0 1 0 0 0 3 0 0 15 77 256 399 579 666 778 885 1007 963 704 529 269 284 380 144 0 0 0 0 0 0 0 0 0 0 0 0 0 0 0 0 0 0 0 0 0
1 0 3 12 0 2 0 0 0 0 0 0 0 105 245 266 594 737 881 880 864 751 558 405 186 2 0 0 0 0 0 0 0 0 0 0 0 0 0 0 0 0 0 0 0 0 0 0 0
2 0 0 0 0 0 18 0 0 0 1 0 0 20 95 464 618 793 927 845 580 386 247 45 0 0 0 0 0 0 0 0 0 0 0 0 0 0 0 0 0 0 0 0 0 0 0 0 0
0 0 3 0 0 0 5 20 0 0 0 0 0 1 16 498 661 708 575 389 181 10 0 0 0 0 0 0 0 0 0 0 0 0 0 0 0 0 0 0 0 0 0 0 0 0 0 0 0
4 0 12 0 0 0 19 4 12 2 0 6 0 0 357 478 540 405 163 75 1 0 0 0 0 0 0 0 0 0 0 0 0 0 0 0 0 0 0 0 0 0 0 0 0 0 0 4 3
5 0 5 1 0 0 0 0 26 5 5 85 9 297 533 506 283 133 25 0 0 0 0 0 0 0 0 0 0 0 0 0 0 0 0 0 0 0 0 0 0 0 0 0 0 0 0 0 0
0 0 0 0 0 0 13 0 0 0 0 62 282 489 545 412 90 1 0 0 0 0 0 0 0 0 0 0 0 0 0 0 0 0 0 0 0 0 0 0 0 0 0 0 0 0 0 0 0
9 2 14 0 0 0 0 0 0 0 0 0 6 364 434 292 43 0 0 0 0 0 0 0 0 0 0 0 0 0 0 0 0 0 0 0 0 0 0 0 0 0 0 0 0 0 0 0 0

GFSSGP_con_mlcape_033.txt.gz
CAPE
0 0 0 0 0 0 0 0 0 0 0 791 766 827 737 872 718 327 417 359 697 723 622 366 148 66 63 8 4 6 6 3 1 0 0 0 0 0 0 0 0 0 0 0 0 0 0 0 0
0 0 0 0 0 0 0 0 0 2 340 776 654 861 770 783 683 562 404 587 749 672 524 283 168 157 160 27 4 5 8 4 1 0 0 0 0 0 0 0 0 0 0 0 0 0 0 0 0
0 0 0 0 0 0 0 0 155 554 484 266 279 373 886 833 669 570 573 653 791 647 443 344 202 112 95 6 0 5 13 4 4 8 25 14 5 1 2 0 1 0 0 0 0 0 0 0 0
0 0 0 0 0 0 0 0 0 212 278 110 60 291 983 929 675 621 679 660 578 599 488 381 210 113 34 23 18 4 13 15 47 69 72 37 19 26 5 0 0 0 0 0 0 0 0 0 0
0 0 0 0 0 0 28 228 294 379 240 158 207 596 804 542 597 547 557 402 392 457 383 181 237 164 86 26 17 13 19 57 109 115 82 63 45 31 7 0 0 0 0 0 0 0 0 0 0
0 0 0 0 0 0 65 279 308 309 77 4 121 479 609 626 392 358 466 323 293 317 212 121 106 54 75 54 33 27 54 108 128 90 77 68 28 2 0 0 0 0 0 0 0 0 0 0 0
0 0 0 0 0 0 95 306 279 139 100 28 46 282 483 615 357 308 142 6 1 0 9 96 61 35 77 70 73 46 71 48 68 66 25 1 0 0 0 0 0 0 0 0 0 0 0 0 0
0 0 0 0 0 0 205 338 257 160 100 91 485 458 397 286 172 105 1 1 0 1 1 4 0 33 22 11 41 7 2 27 22 0 0 0 0 0 0 0 0 0 0 0 0 0 0 0 0
0 0 0 0 0 106 307 279 113 174 266 502 624 406 245 188 109 40 2 0 0 0 0 2 42 45 61 49 0 0 0 6 4 0 0 0 0 0 0 0 0 0 0 0 0 0 0 0 0
0 0 0 0 1 63 239 139 147 101 286 380 204 169 100 104 118 51 1 4 0 0 0 0 0 27 37 17 6 0 0 0 0 0 0 0 0 0 0 0 0 0 0 0 0 0 0 0 0
0 0 0 0 0 69 126 30 12 53 146 188 102 56 61 82 44 10 8 8 2 0 0 0 3 120 93 66 18 0 0 0 0 0 0 0 0 0 0 0 0 0 0 0 0 0 0 0 0
0 0 0 0 10 99 105 7 0 15 22 231 22 15 11 34 22 11 20 4 12 10 6 0 12 187 70 25 1 0 0 0 0 0 0 8 0 6 0 0 0 0 0 0 0 0 0 0 0
0 0 0 0 14 102 20 0 7 38 18 45 54 29 11 53 46 7 32 22 3 16 30 33 132 259 70 5 0 0 0 0 3 15 22 14 2 2 0 0 0 0 0 0 0 0 0 0 0
0 0 105 120 142 113 56 115 119 22 128 50 32 0 14 3 24 0 0 1 4 10 20 112 180 250 49 0 0 0 0 21 275 196 80 0 0 0 0 0 0 0 0 0 0 0 0 0 0
6 16 80 166 134 98 27 16 158 43 214 141 60 24 33 18 0 0 0 0 0 2 44 116 174 184 45 0 0 2 95 247 273 163 8 0 0 0 0 0 0 0 0 0 0 0 0 0 0
4 0 0 178 179 130 0 32 147 116 234 312 284 161 95 36 0 0 0 0 5 120 176 234 253 197 23 0 0 40 236 255 149 102 36 0 0 0 0 0 0 0 0 0 0 0 0 0 0
0 0 0 214 176 30 3 9 113 171 330 409 409 299 133 71 0 5 2 0 40 277 342 265 280 216 11 7 90 184 173 55 0 0 0 0 0 0 0 0 0 0 0 0 0 0 0 0 0
1 0 0 0 0 8 44 22 151 186 266 414 304 339 278 80 44 48 24 42 168 418 426 351 281 196 41 20 27 6 0 0 0 0 0 0 0 0 0 0 0 0 0 0 0 0 0 0 0
1 0 0 0 0 0 0 9 105 217 238 313 310 323 432 318 267 269 175 194 317 454 419 291 180 74 11 0 4 0 0 0 0 0 0 0 0 0 0 0 0 0 0 0 0 0 0 0 0
0 0 0 0 0 0 0 0 21 149 283 326 294 268 281 480 469 539 436 362 453 488 404 278 151 58 10 0 0 0 0 0 0 0 0 0 0 0 0 0 0 0 0 0 0 0 0 0 0
0 0 0 0 0 0 0 0 8 43 148 183 196 143 135 224 407 575 621 565 470 436 345 354 196 120 24 0 0 0 0 0 0 0 0 0 0 0 0 0 0 0 0 0 0 0 0 0 0
0 0 0 0 0 0 0 0 0 8 144 181 209 37 82 84 188 345 561 601 491 316 286 359 259 167 56 0 0 0 0 0 0 0 0 0 0 0 0 0 0 0 0 0 0 0 0 0 0
0 0 0 0 0 0 0 0 0 0 0 40 77 108 10 19 59 129 364 523 512 253 135 188 194 101 69 11 0 0 0 0 0 0 0 0 0 0 0 0 0 0 0 0 0 0 0 0 0
0 0 0 0 0 0 0 0 0 0 0 0 4 84 36 7 18 48 38 280 351 268 124 69 135 148 82 51 0 0 0 0 0 0 0 0 0 0 0 0 0 0 0 0 0 0 0 0 0
0 0 0 0 0 0 0 0 0 0 0 0 0 19 31 0 2 26 133 208 320 331 321 239 241 178 153 179 39 0 0 0 0 0 0 0 0 0 0 0 0 0 0 0 0 0 0 0 0
0 0 0 0 0 0 0 0 0 0 0 0 0 0 0 0 8 159 267 354 270 302 324 244 347 184 77 78 15 0 0 0 0 0 0 0 0 0 0 0 0 0 0 0 0 0 0 0 0
0 0 0 0 0 0 0 0 0 0 1 0 0 0 0 0 51 240 428 565 576 555 469 404 184 78 1 0 0 0 0 0 0 0 0 0 0 0 0 0 0 0 0 0 0 0 0 0 0
0 0 0 0 0 0 0 0 0 0 0 0 0 0 0 6 116 273 432 528 555 496 149 55 48 0 0 0 0 0 0 0 0 0 0 0 0 0 0 0 0 0 0 0 0 0 0 0 0
0 0 0 0 0 0 0 0 0 0 0 0 0 0 0 55 193 347 431 380 332 136 170 50 0 0 0 0 0 0 0 0 0 0 0 0 0 0 0 0 0 0 0 0 0 0 0 0 0
0 0 0 0 0 0 0 0 0 0 0 0 0 0 0 49 171 337 413 280 197 266 67 0 0 0 0 0 0 0 0 0 0 0 0 0 0 0 0 0 0 0 0 0 0 0 0 0 0

GFSSGP_con_mlcape_036.txt.gz
CAPE
0 0 0 0 0 0 0 0 0 0 0 990 988 965 801 759 510 288 450 442 733 780 606 394 172 34 5 0 1 0 0 0 0 0 0 0 0 0 0 0 0 0 0 0 0 18 73 26 0
0 0 0 0 0 0 0 0 0 221 467 486 406 683 843 621 530 482 496 738 736 719 531 334 174 75 33 1 0 0 1 0 0 0 0 3 0 0 1 0 0 0 0 0 0 0 4 44 49
0 0 0 0 0 0 0 0 0 202 317 374 386 452 733 730 657 575 580 801 660 614 450 384 258 104 79 16 4 4 5 4 4 11 13 6 10 7 6 0 2 0 0 0 0 0 0 0 5
0 0 0 0 0 0 0 0 223 229 304 243 238 483 842 686 854 722 867 939 579 579 434 309 258 93 5 18 4 0 0 27 50 63 56 56 56 17 7 8 13 7 0 0 0 0 0 0 0
0 0 0 0 0 0 0 126 414 436 367 399 340 385 624 592 904 886 857 710 690 639 409 368 185 102 92 85 24 10 40 64 130 87 95 96 97 34 5 2 0 0 0 0 0 0 0 0 0
0 0 0 0 0 0 0 346 475 485 319 329 369 336 597 678 689 412 323 306 447 433 372 281 148 140 156 135 21 68 93 150 162 163 137 151 84 6 0 0 0 0 0 0 0 0 0 0 0
0 0 0 0 0 0 26 370 436 426 163 108 231 294 643 765 269 82 21 29 54 201 130 31 6 0 7 74 93 110 130 185 163 137 99 70 10 0 0 0 0 0 0 0 0 0 0 0 0
0 0 0 0 0 0 69 468 348 286 361 419 636 262 476 658 120 0 1 1 1 0 4 3 0 0 66 157 89 125 116 201 106 57 23 0 0 0 0 0 0 0 0 0 0 0 0 0 0
0 0 0 0 0 0 246 417 321 532 536 515 547 631 537 423 68 3 0 0 1 0 1 4 12 18 83 68 81 116 125 9 10 10 1 0 0 0 0 0 0 0 0 0 0 0 0 0 0
0 0 0 0 0 0 56 312 386 383 397 360 428 466 429 319 127 1 1 0 0 2 3 0 9 61 59 50 23 2 2 1 0 0 0 0 0 0 0 0 0 0 0 0 0 0 0 0 0
0 0 0 0 0 0 92 247 144 302 212 249 318 327 224 192 79 3 0 0 0 0 0 0 5 1 0 17 0 0 0 0 0 0 0 0 0 0 0 0 0 0 0 0 0 0 0 0 0
0 0 0 0 0 45 187 66 82 49 53 338 219 257 156 58 38 5 0 0 0 1 0 0 9 1 83 44 1 0 0 0 0 0 0 0 0 0 0 0 0 0 0 0 0 0 0 0 0
0 0 0 0 0 146 47 15 49 144 339 257 39 22 20 57 50 28 15 0 4 4 0 0 2 114 99 21 1 0 0 0 0 0 0 7 2 0 0 0 0 0 0 0 0 0 0 0 0
1 2 71 36 159 151 161 184 80 128 231 24 35 52 71 88 101 57 47 8 0 0 0 0 12 138 128 1 0 0 0 0 0 0 5 0 0 0 0 0 0 0 0 0 0 0 0 0 0
6 66 195 226 207 157 86 7 88 170 117 12 44 37 28 50 38 54 10 36 32 16 9 0 16 190 167 0 0 0 0 0 86 68 8 0 0 0 0 0 0 0 0 0 0 0 0 0 0
0 0 0 197 170 95 5 3 77 199 68 59 11 14 33 13 0 2 3 0 0 1 3 34 155 193 188 0 0 0 0 53 131 13 0 0 0 0 0 0 0 0 0 0 0 0 0 0 0
0 0 0 151 160 72 8 5 145 231 134 92 75 47 74 52 0 3 2 0 0 6 44 126 195 163 157 0 0 0 19 109 56 19 5 0 0 0 0 0 0 0 0 0 0 0 0 0 0
7 0 1 2 0 103 42 0 138 202 244 233 208 241 191 134 7 0 0 0 0 13 196 180 182 152 99 0 0 2 33 24 1 1 0 0 0 0 0 0 0 0 0 0 0 0 0 0 0
14 5 0 0 0 0 0 0 7 155 258 344 285 320 311 161 91 11 5 0 0 57 260 238 203 131 84 7 2 27 39 0 0 0 0 0 0 0 0 0 0 0 0 0 0 0 0 0 0
7 2 0 0 0 0 0 0 11 125 193 271 248 213 264 302 159 51 84 38 30 105 270 306 259 146 84 23 0 1 0 0 0 0 0 0 0 0 0 0 0 0 0 0 0 0 0 0 0
0 0 0 0 0 0 0 0 0 65 152 217 241 252 241 314 343 240 198 127 82 146 232 353 277 117 47 2 0 0 0 0 0 0 0 0 0 0 0 0 0 0 0 0 0 0 0 0 0
0 0 0 0 0 0 0 0 0 1 148 145 261 254 236 224 336 416 393 365 211 225 259 345 304 116 4 0 0 0 0 0 0 0 0 0 0 0 0 0 0 0 0 0 0 0 0 0 0
0 0 0 0 0 0 0 0 0 0 39 137 192 227 196 164 202 326 415 459 416 303 239 284 316 249 5 0 0 0 0 0 0 0 0 0 0 0 0 0 0 0 0 0 0 0 0 0 0
0 0 0 0 0 0 0 0 0 0 0 0 70 151 201 99 42 114 235 328 508 359 268 265 283 246 63 0 0 0 0 0 0 0 0 0 0 0 0 0 0 0 0 0 0 0 0 0 0
0 0 0 0 0 0 0 0 0 0 0 0 0 0 91 143 67 11 37 130 324 411 283 253 232 201 83 7 0 0 0 0 0 0 0 0 0 0 0 0 0 0 0 0 0 0 0 0 0
0 0 0 0 0 0 0 0 0 0 0 0 0 0 0 0 7 26 5 18 122 269 285 248 244 73 41 72 29 0 0 0 0 0 0 0 0 0 0 0 0 0 0 0 0 0 0 0 0
0 0 0 0 0 0 0 0 0 0 0 0 0 0 0 0 0 44 14 32 55 123 193 229 268 152 91 50 21 0 0 0 0 0 0 0 0 0 0 0 0 0 0 0 0 0 0 0 0
0 0 0 0 0 0 0 0 0 0 0 0 0 0 0 0 0 0 49 159 154 131 154 168 191 190 20 8 0 0 0 0 0 0 0 0 0 0 0 0 0 0 0 0 0 0 0 0 0
0 0 0 0 0 0 0 0 0 0 0 0 0 0 0 0 0 24 134 249 274 261 160 95 27 19 0 0 0 0 0 0 0 0 0 0 0 0 0 0 0 0 0 0 0 0 0 0 0
0 0 0 0 0 0 0 0 0 0 0 0 0 0 0 0 16 102 186 188 197 251 121 58 39 10 0 0 0 0 0 0 0 0 0 0 0 0 0 0 0 0 0 0 0 0 0 0 0

GFSSGP_con_mlcape_039.txt.gz
CAPE
0 0 0 0 0 0 0 0 0 1 17 815 1165 1046 865 652 597 382 589 569 879 651 417 457 310 159 66 53 22 7 16 15 0 1 7 0 0 0 0 0 0 0 11 147 221 54 11 1 90
0 0 0 0 0 0 0 0 0 245 361 654 490 720 884 782 618 531 631 856 937 690 428 299 268 212 152 92 109 101 29 7 1 18 4 0 1 14 0 0 0 0 18 164 245 246 109 53 131
0 0 0 0 0 0 0 0 0 166 426 617 566 859 1000 885 641 590 784 998 881 704 550 383 249 234 182 107 46 23 10 7 37 16 9 17 35 24 18 5 0 0 0 14 100 151 115 61 1
0 0 0 0 0 0 0 0 139 240 524 471 577 848 975 874 1078 879 1016 1053 905 733 548 426 240 186 47 16 40 48 24 32 53 49 24 54 69 77 55 0 0 0 0 0 0 0 5 0 0
0 0 0 0 0 0 0 1 390 584 606 682 671 787 867 821 1053 979 1007 989 837 654 459 391 274 73 55 57 26 41 33 64 68 67 81 78 97 74 83 29 5 1 0 0 0 0 0 0 0
0 0 0 0 0 0 0 255 638 725 613 676 718 687 772 865 861 663 625 720 699 462 373 339 130 245 161 42 27 33 76 97 90 144 152 89 38 25 30 24 5 0 0 0 0 0 0 0 0
0 0 0 0 0 0 56 475 582 648 472 361 714 641 782 550 399 381 337 338 403 306 179 31 5 18 130 83 49 75 148 135 176 213 139 43 1 0 2 0 0 0 0 0 0 0 0 0 0
0 0 0 0 0 0 70 559 420 456 473 719 848 510 618 365 246 215 150 75 41 5 2 0 0 0 0 146 119 102 121 204 176 97 32 3 0 0 0 0 0 0 0 0 0 0 0 0 0
0 0 0 0 0 0 172 537 439 656 749 744 746 857 736 170 96 115 38 4 3 2 3 0 0 26 63 211 191 170 118 216 123 24 6 3 8 9 0 0 0 0 0 0 0 0 0 0 0
0 0 0 0 0 0 6 375 538 589 576 510 583 685 343 142 80 70 1 1 4 3 1 0 2 23 8 100 137 130 172 95 11 0 0 0 0 0 0 0 0 0 0 0 0 0 0 0 0
0 0 0 0 0 0 0 257 245 411 314 373 328 578 506 320 31 0 3 2 2 4 4 1 0 27 115 28 8 13 26 2 0 0 0 0 0 0 0 0 0 0 0 0 0 0 0 0 0
0 0 0 0 0 8 169 95 377 203 166 384 333 369 342 137 1 2 1 3 2 2 4 1 0 0 0 1 0 7 0 0 0 0 0 0 0 0 0 0 0 0 0 0 0 0 0 0 0
0 0 0 0 7 164 100 95 136 278 425 475 394 204 177 169 2 2 2 1 4 3 1 0 0 0 67 110 1 0 0 0 0 0 0 0 0 0 0 0 0 0 0 0 0 0 0 0 0
0 1 102 9 157 131 157 240 107 365 380 116 75 62 125 59 30 0 4 2 3 0 0 14 5 47 209 54 0 0 0 0 0 0 9 22 26 0 0 0 0 0 0 0 0 0 0 0 0
0 34 118 192 234 281 82 29 97 386 250 71 71 77 106 104 65 58 0 0 7 4 0 0 0 141 256 32 0 0 0 0 0 2 19 8 2 0 0 0 0 0 0 0 0 0 0 0 0
0 0 0 112 197 142 7 16 75 313 141 40 40 51 42 85 111 135 75 9 30 8 0 0 5 73 268 35 0 0 0 0 44 59 5 0 0 0 0 0 0 0 0 0 0 0 0 0 0
0 0 0 111 208 125 46 20 110 245 133 19 25 9 7 11 35 37 59 56 50 49 18 6 34 61 301 115 0 0 0 9 185 69 9 0 0 0 0 0 0 0 0 0 0 0 0 0 0
0 0 1 5 7 124 111 16 182 189 182 86 25 55 49 63 11 36 58 27 41 68 69 67 70 168 253 152 0 0 0 96 118 106 39 0 0 0 0 0 0 0 0 0 0 0 0 0 0
0 8 2 0 0 0 15 27 61 237 200 181 181 149 149 122 167 49 60 72 42 54 100 127 183 229 183 115 5 7 57 84 55 13 1 0 0 0 0 0 0 0 0 0 0 0 0 0 0
0 5 1 0 0 0 0 0 8 211 203 242 301 282 317 315 244 187 80 62 87 24 79 222 261 219 208 158 39 16 44 16 18 0 0 0 0 0 0 0 0 0 0 0 0 0 0 0 0
0 0 0 0 0 0 0 0 0 32 181 200 258 327 289 311 340 210 136 63 71 68 52 254 333 224 205 167 50 0 0 0 0 0 0 0 0 0 0 0 0 0 0 0 0 0 0 0 0
0 0 0 0 0 0 0 0 0 2 85 174 236 266 265 237 304 411 241 129 107 60 84 135 267 308 212 98 114 42 49 21 0 0 0 0 0 0 0 0 0 0 0 0 0 0 0 0 0
0 0 0 0 0 0 0 0 0 0 0 59 221 217 261 278 290 381 444 385 288 198 158 152 217 305 215 159 140 68 44 0 0 0 0 0 0 0 0 0 0 0 0 0 0 0 0 0 0
0 0 0 0 0 0 0 0 0 0 0 0 38 220 210 258 234 266 411 536 512 434 365 267 270 269 190 51 29 32 9 0 0 0 0 0 0 0 0 0 0 0 0 0 0 0 0 0 0
0 0 0 0 0 0 0 0 0 0 0 0 0 0 89 208 255 231 234 341 535 543 512 453 357 269 147 52 0 0 0 0 0 0 0 0 0 0 0 0 0 0 0 0 0 0 0 0 0
0 0 0 0 0 0 0 0 0 0 0 0 0 0 0 0 82 181 200 260 384 482 517 544 481 418 252 23 62 2 0 0 0 0 0 0 0 0 0 0 0 0 0 0 0 0 0 0 0
0 0 0 0 0 0 0 0 0 0 0 0 0 0 0 0 0 0 22 97 180 288 357 481 516 487 310 10 11 3 1 0 0 0 0 0 0 0 0 0 0 0 0 0 0 0 0 0 0
0 0 0 0 0 0 0 0 0 0 0 0 0 0 0 0 0 0 3 18 39 142 212 284 381 490 465 140 26 1 3 1 0 0 0 0 0 0 0 0 0 0 0 0 0 0 0 0 0
0 0 0 0 0 0 0 0 0 0 0 0 0 0 0 0 0 0 3 80 130 141 169 199 297 395 292 76 0 0 0 1 1 0 0 0 0 0 0 0 0 0 0 0 0 0 0 0 0
0 0 0 0 0 0 0 0 0 0 0 0 0 0 0 0 0 9 76 175 286 335 289 266 237 166 30 6 0 1 0 0 1 0 0 0 0 0 0 0 0 0 0 0 0 0 0 0 0

GFSSGP_con_mlcape_042.txt.gz
CAPE
0 0 0 0 0 0 0 0 0 0 55 840 1141 1206 1180 1164 1086 673 1134 1128 1242 661 229 426 668 738 690 563 374 182 84 10 0 0 0 0 0 1 0 0 6 73 120 113 78 176 112 0 0
0 0 0 0 0 0 0 0 0 199 289 1223 1147 1397 1327 1207 1074 907 986 1076 1212 779 257 176 472 501 423 272 166 74 13 0 1 0 0 5 40 19 0 0 72 293 339 205 137 194 155 0 0
0 0 0 0 0 0 0 0 12 227 644 771 1113 1521 1273 1465 1138 1075 1134 1241 1310 838 401 323 443 306 220 124 71 16 9 26 24 15 34 69 47 22 0 1 98 358 551 451 242 328 76 0 0
0 0 0 0 0 0 0 0 1 187 673 872 999 1135 1393 1267 1597 1256 1446 1440 1243 827 535 392 309 189 102 52 52 29 44 59 47 89 99 101 66 22 6 26 43 114 267 415 304 89 0 0 0
0 0 0 0 0 0 0 0 133 402 918 1039 1117 1380 1507 1339 1699 1733 1590 1384 1155 789 651 400 272 193 189 163 95 81 84 42 68 128 132 131 82 50 53 44 0 0 0 70 48 0 0 0 0
0 0 0 0 0 0 0 30 308 1005 1089 1158 1288 1410 1394 983 1262 1231 1658 1280 869 673 528 316 244 238 238 181 99 93 93 65 123 156 146 140 133 97 75 26 0 0 0 0 0 0 0 0 0
0 0 0 0 0 10 178 778 946 1095 1018 926 1249 1247 1190 969 672 666 839 1073 663 443 231 149 80 52 55 155 113 110 131 138 184 177 155 138 110 42 10 0 0 0 0 0 0 0 0 0 0
0 0 0 0 36 15 71 708 854 882 991 1082 1248 1041 1129 729 416 311 365 385 207 115 3 0 0 0 8 180 139 187 154 167 145 94 74 70 41 4 0 0 0 0 0 0 0 0 0 0 0
0 0 0 0 4 0 203 100 829 1004 1093 1113 1177 1339 1223 460 593 303 120 2 3 0 2 1 0 1 0 77 295 231 231 179 89 52 24 0 4 0 0 0 0 0 0 0 0 0 0 0 0
0 0 0 0 0 0 6 124 749 1013 1005 1060 1027 789 574 549 533 231 58 2 1 2 3 3 0 0 54 208 247 258 197 100 73 21 0 1 15 0 0 0 0 0 0 0 0 0 0 0 0
0 0 0 0 0 0 10 505 675 742 696 873 877 569 415 383 291 70 7 4 1 2 4 0 0 0 0 94 248 292 233 185 68 16 8 67 28 0 0 0 0 0 0 0 0 0 0 0 0
0 1 0 0 0 12 206 349 619 667 908 822 893 629 344 107 80 10 5 6 5 3 7 0 0 0 0 24 94 136 68 54 23 19 32 48 22 9 6 38 95 23 0 0 0 0 0 0 0
0 2 5 13 45 402 372 455 383 802 878 841 726 500 196 35 6 4 4 4 4 5 4 27 32 5 0 0 25 104 101 48 7 7 19 9 0 1 43 42 39 4 0 0 0 0 0 0 0
5 7 292 122 224 314 439 576 537 929 823 649 526 232 126 0 1 4 5 7 2 2 0 0 0 0 3 41 68 95 100 18 24 3 65 111 15 38 147 72 14 0 0 0 0 0 0 0 0
1 39 230 249 438 556 407 299 746 844 505 349 184 379 112 30 5 0 35 27 6 0 0 0 8 61 51 145 74 1 1 0 0 6 300 312 260 177 86 36 0 0 0 0 0 0 0 0 0
11 5 22 81 400 372 311 156 696 659 410 368 341 90 214 129 39 56 33 14 3 4 8 32 5 69 208 230 79 0 0 0 0 190 368 403 326 186 58 2 0 0 0 0 0 0 0 0 0
13 25 5 55 375 304 236 114 450 576 297 206 120 70 106 170 153 186 21 4 9 21 20 27 21 61 381 410 72 7 0 0 46 359 372 312 120 30 12 0 0 0 0 0 0 0 0 0 0
25 25 36 52 167 284 273 163 350 531 376 113 175 95 81 176 234 350 281 94 80 74 23 2 18 295 417 397 160 0 0 15 306 575 516 306 79 3 0 0 0 0 0 0 0 0 0 0 0
0 13 30 20 0 11 47 89 102 481 480 284 150 230 221 141 135 281 372 362 270 224 135 127 216 313 401 501 242 27 1 80 458 620 656 282 174 3 0 0 0 0 0 0 0 0 0 0 0
8 15 15 6 0 0 15 10 55 353 557 446 316 296 302 265 271 144 296 299 277 273 304 279 231 316 508 580 470 60 124 60 200 408 567 431 217 0 0 0 0 0 0 0 0 0 0 0 0
12 20 14 0 0 0 0 0 13 156 570 620 594 366 355 342 331 301 155 246 338 278 280 323 374 551 553 540 450 128 256 422 456 394 171 153 15 0 0 0 0 0 0 0 0 0 0 0 0
12 1 1 8 0 29 0 8 5 55 178 378 420 533 279 336 463 452 339 214 212 294 302 294 424 632 647 622 503 247 146 170 268 245 25 0 0 0 0 0 0 0 0 0 0 0 0 0 0
7 0 4 2 2 2 0 7 27 0 3 94 282 449 414 228 358 435 516 420 331 281 321 348 412 761 702 674 609 530 385 310 405 196 0 0 0 0 0 0 0 0 0 0 0 0 0 0 0
0 0 3 10 17 0 7 2 47 11 2 1 58 200 389 471 423 424 502 698 668 520 450 433 438 527 740 879 766 810 831 735 255 24 0 0 0 0 0 0 0 0 0 0 0 0 0 0 0
0 1 22 14 5 12 0 6 29 4 0 1 3 10 153 351 502 600 609 733 911 930 887 817 645 493 611 602 245 388 538 678 107 10 0 0 0 0 0 0 0 0 0 0 0 0 0 0 0
0 0 29 2 2 13 0 0 18 0 0 2 43 38 1 6 298 515 721 763 883 1097 1249 1176 947 738 627 378 95 167 238 116 18 49 0 0 0 0 0 0 0 0 0 0 0 0 0 0 0
0 0 0 0 0 0 0 0 0 0 0 0 19 63 103 6 7 141 446 729 779 977 1270 1383 1218 939 889 435 121 6 44 48 11 4 0 0 0 0 0 0 0 0 0 0 0 0 0 0 0
0 0 1 2 2 0 3 0 1 0 0 0 0 0 97 109 23 55 128 236 415 664 1046 1243 1331 1209 1168 677 211 90 200 122 13 2 0 0 0 0 0 0 0 0 0 0 0 0 0 0 0
0 1 0 6 1 9 3 0 0 0 0 0 0 0 4 87 198 202 222 326 380 436 702 918 999 1018 1093 1007 767 200 125 132 33 4 2 0 0 0 0 0 0 0 0 0 0 0 0 3 0
0 2 2 0 0 0 0 0 0 0 0 0 0 0 0 17 154 369 532 621 686 696 720 787 817 870 959 1064 974 606 256 27 3 3 1 0 0 0 0 0 0 0 0 0 0 0 0 0 0

GFSSGP_con_mlcape_045.txt.gz
CAPE
0 0 0 0 0 0 0 1 11 40 28 220 428 509 157 255 492 14 189 1614 1419 821 687 1079 1144 1103 969 838 677 513 334 52 11 1 0 0 0 0 0 40 90 120 170 244 12 0 0 0 0
0 0 0 0 0 0 6 0 6 5 219 42 924 790 519 937 1442 1123 1196 1815 1069 740 708 1236 1127 1021 883 743 595 403 101 10 0 0 0 0 6 30 53 124 197 235 220 203 40 0 0 0 0
0 0 0 0 0 0 2 18 2 176 166 106 391 1008 1139 1405 1424 1433 1267 1797 733 436 515 1203 1042 918 772 603 419 90 4 0 0 9 29 61 61 44 134 382 484 439 374 314 111 0 0 0 0
0 0 0 0 0 10 0 1 0 2 97 279 362 964 1723 1662 1812 1404 1541 1481 785 374 317 856 918 808 622 358 117 23 4 1 31 73 81 106 82 84 211 513 713 668 476 451 96 0 0 0 0
0 0 0 6 0 0 0 0 0 4 177 616 737 726 1368 1818 1793 1886 1793 1757 1176 529 625 729 623 533 322 148 52 55 36 67 128 154 141 115 92 129 148 248 463 598 543 288 0 0 0 0 0
0 0 0 9 10 0 0 0 15 67 620 1050 966 437 1516 1561 1669 1610 1956 1596 1229 883 696 464 465 322 215 105 106 84 97 169 225 177 166 149 156 95 63 88 144 243 179 0 0 0 0 0 0
0 0 8 1 4 16 116 404 828 723 700 855 1381 1089 1788 1514 846 1093 1667 1349 847 565 313 233 110 291 147 77 96 70 136 251 246 256 245 175 108 49 0 1 8 26 0 0 0 0 0 0 0
0 0 1 5 22 9 60 179 749 866 918 1071 1245 1227 1290 1358 471 596 718 572 361 170 66 0 20 96 126 93 105 143 235 266 295 216 124 94 47 18 9 0 0 0 0 0 0 0 0 0 0
0 0 1 14 28 0 28 89 558 873 764 1142 1332 1621 1606 826 439 465 387 190 59 24 2 0 0 10 57 95 173 238 323 247 220 193 89 33 16 18 22 4 0 0 0 0 0 0 0 0 0
0 19 15 9 16 24 30 228 664 777 689 933 1419 1228 1056 940 656 481 108 18 2 3 2 1 0 0 0 1 133 227 295 218 164 88 52 53 57 74 42 15 0 0 0 0 0 0 0 0 0
1 0 3 29 0 0 10 88 577 742 656 29 974 772 813 867 368 334 57 3 3 3 3 1 0 0 0 0 15 218 250 205 149 100 96 120 129 67 28 4 0 0 0 0 0 0 0 0 0
0 22 11 15 0 8 287 17 236 482 1038 1131 1205 618 415 344 182 54 2 4 4 2 1 1 7 11 16 36 63 148 217 189 147 117 196 181 155 121 96 26 46 11 0 0 0 0 0 0 0
0 10 17 24 23 342 455 536 459 968 933 1067 691 407 227 142 24 5 4 4 2 1 0 0 0 1 0 0 12 90 125 75 58 114 196 185 153 133 108 150 175 99 61 5 0 0 0 0 0
3 0 87 38 142 245 260 517 563 989 699 607 532 225 97 10 8 7 4 3 3 2 2 0 7 9 4 1 21 100 107 59 203 185 208 183 96 130 117 174 157 79 42 2 0 0 0 0 0
0 0 58 19 77 102 313 5 355 763 352 175 383 443 193 67 5 35 4 4 2 4 9 7 0 0 0 0 2 22 133 161 170 140 220 188 142 175 227 254 125 65 27 0 0 0 0 0 0
0 1 1 17 121 242 41 0 472 471 267 260 106 416 221 117 88 113 41 0 1 0 0 0 0 0 4 32 40 53 138 98 39 51 205 296 197 258 354 256 163 57 12 0 0 0 0 0 0
0 6 0 1 35 125 85 8 446 331 221 270 89 223 267 111 104 65 46 9 2 0 0 0 1 1 29 26 126 63 39 45 0 14 139 444 528 538 402 293 179 39 9 0 0 0 0 0 0
6 12 4 26 0 42 58 63 367 459 134 206 76 134 190 49 167 133 35 0 0 6 0 0 2 16 145 272 115 33 0 25 5 25 213 415 530 419 363 264 141 31 0 0 0 0 0 0 0
2 16 29 19 1 0 10 45 0 445 413 95 175 88 141 116 118 252 70 0 11 16 53 59 18 0 205 302 78 0 0 0 6 129 270 459 534 382 303 240 133 36 7 0 0 0 0 0 0
2 11 19 17 0 0 1 3 19 239 335 224 113 187 87 92 259 285 321 161 195 105 64 39 25 39 265 324 319 31 0 0 6 116 479 592 581 465 291 266 82 18 0 0 0 0 0 0 0
5 27 20 4 8 0 0 1 7 78 344 331 183 137 192 126 114 236 326 346 215 157 106 102 138 271 324 318 358 220 10 9 8 136 304 579 560 524 317 245 30 0 0 0 0 0 0 0 0
25 5 0 1 0 25 1 1 0 31 146 386 288 202 155 185 181 120 149 409 408 321 316 337 338 345 359 347 444 261 21 97 281 302 417 484 568 465 242 60 2 0 0 0 0 0 0 0 0
12 0 0 10 30 29 32 0 2 6 42 102 286 285 211 176 221 260 156 63 361 469 380 411 418 410 506 611 466 540 267 199 325 410 440 492 380 255 77 2 1 0 0 0 0 0 0 0 0
3 0 1 6 27 55 21 20 0 2 0 11 104 226 268 193 211 314 361 244 146 189 429 567 441 425 466 617 594 674 593 494 467 486 420 284 203 78 9 0 0 0 0 0 0 0 0 0 0
0 14 22 29 41 9 6 8 18 0 0 0 9 72 210 291 246 273 325 459 435 358 344 475 466 354 549 725 736 766 901 808 297 387 466 108 56 2 1 0 0 0 0 0 0 0 0 0 0
0 16 60 5 56 90 39 1 25 2 2 0 0 52 40 189 340 370 304 375 581 706 736 730 661 646 535 810 886 463 988 588 282 45 75 2 0 0 0 0 0 0 0 0 0 0 0 0 0
12 4 44 33 45 17 47 28 0 0 0 0 7 80 170 153 133 340 450 463 595 867 1130 1298 1195 1001 831 967 735 440 674 527 448 320 131 19 0 0 0 0 0 0 0 0 0 0 0 0 0
1 13 4 5 49 34 37 71 76 1 0 0 0 6 75 212 157 163 340 507 715 908 1192 1693 1707 1512 1211 943 866 611 607 460 355 175 100 5 0 0 0 0 0 0 0 0 0 0 0 0 0
0 3 7 46 26 56 100 87 31 0 0 0 0 0 0 9 291 273 302 333 525 843 1088 1489 1860 1860 1487 1328 1081 865 467 426 259 165 125 2 0 0 0 0 0 0 0 0 0 0 0 0 0
3 4 17 15 21 29 30 37 27 0 0 0 0 0 0 8 95 337 531 630 698 737 868 1286 1565 1642 1583 1460 1254 1069 602 559 270 136 18 0 0 0 0 0 0 0 0 0 0 0 0 0 0

GFSSGP_con_mlcape_048.txt.gz
CAPE
0 0 0 0 0 0 0 0 0 0 0 111 304 93 14 3 185 263 33 22 0 16 1453 1564 1439 1194 1053 879 756 603 363 96 4 0 0 0 0 66 160 171 313 306 0 0 0 0 0 0 0
0 0 0 0 0 0 0 0 0 38 166 23 1 73 18 0 137 1176 496 2 0 658 1421 1678 1508 1260 1035 917 790 621 291 97 6 0 0 0 15 79 116 167 287 232 0 0 0 0 0 0 0
0 0 0 0 0 0 0 0 1 51 118 99 81 3 230 275 0 1317 1396 871 939 1127 1447 1132 1336 1099 937 857 716 457 251 74 1 0 0 12 84 161 207 249 277 305 75 0 0 0 0 0 0
0 0 0 0 0 0 0 0 0 0 0 29 85 50 1218 1366 858 1409 1587 853 855 898 1215 1036 851 839 769 785 568 293 101 6 0 28 50 123 186 363 386 381 418 414 174 0 0 0 0 0 0
0 0 0 0 0 3 0 0 0 0 0 6 3 66 859 778 1246 1426 1547 801 659 888 1009 750 156 446 483 560 292 148 59 30 92 160 112 151 335 585 672 602 546 505 158 0 0 0 0 0 0
0 0 0 0 10 3 74 0 38 0 0 173 69 12 0 17 831 1307 1542 936 618 792 766 707 688 591 467 325 215 94 115 153 176 147 130 195 247 444 627 678 609 356 14 0 0 0 0 0 0
0 0 0 6 38 36 6 0 0 299 445 231 0 0 0 269 493 1022 1276 744 562 635 652 511 323 288 239 278 187 135 164 185 257 219 168 116 120 199 337 422 271 55 0 0 0 0 0 0 0
0 0 0 0 1 1 0 0 31 278 329 116 0 562 196 636 444 571 620 593 390 303 156 36 13 8 33 114 281 352 343 356 334 177 87 38 35 48 89 173 79 1 0 0 0 0 0 0 0
0 0 0 7 4 0 0 8 91 8 358 191 0 216 621 313 436 342 406 311 196 45 3 0 0 1 0 5 246 297 336 294 217 122 60 22 5 1 24 75 40 2 0 0 0 0 0 0 0
0 0 0 0 0 0 0 0 145 32 197 11 0 2 452 580 440 145 276 177 55 4 0 1 0 0 0 0 60 175 294 259 222 105 58 16 17 92 20 33 12 0 0 0 0 0 0 0 0
0 0 0 0 0 0 0 0 0 221 220 3 0 2 526 462 454 98 3 2 2 3 1 0 0 0 0 0 0 19 89 233 220 136 136 155 120 115 50 12 0 0 0 0 0 0 0 0 0
0 0 0 0 0 0 1 40 210 661 1058 444 493 553 411 292 212 6 2 2 2 3 3 0 0 0 0 2 18 58 162 188 145 176 244 226 148 151 87 33 28 0 0 0 0 0 0 0 0
0 0 0 14 0 0 18 50 11 660 828 774 405 272 215 91 1 3 3 2 2 1 1 5 1 0 0 0 2 41 191 156 115 152 197 219 175 198 125 100 77 11 0 0 2 0 0 0 0
0 0 0 34 1 32 2 0 0 550 380 508 406 229 38 1 1 3 2 1 2 0 1 4 0 6 2 1 1 18 81 80 52 75 212 205 207 155 213 316 278 189 100 53 0 0 0 0 0
0 0 0 21 6 44 19 0 0 2 140 435 364 93 29 1 2 2 4 1 1 1 1 5 5 2 0 0 0 15 93 153 180 181 217 241 265 186 321 195 253 129 85 40 0 0 0 0 0
0 0 0 1 34 7 0 0 0 0 80 46 419 267 50 0 22 4 1 0 1 0 1 0 0 0 0 0 21 54 71 88 149 113 191 202 251 183 160 303 231 142 53 14 0 0 0 0 0
0 0 0 9 5 15 24 0 0 4 251 62 280 114 91 47 80 13 1 0 0 0 0 0 0 0 0 2 0 0 2 18 45 34 150 217 178 349 315 390 283 111 35 0 0 0 0 0 0
0 0 0 1 0 0 34 59 28 19 214 79 69 82 60 0 32 20 1 0 0 0 0 0 0 0 0 12 0 0 2 50 59 42 83 297 421 420 403 332 217 41 26 0 0 0 0 0 0
0 0 0 13 0 11 0 31 0 0 93 74 51 103 29 48 54 37 0 0 0 0 0 0 0 0 0 8 0 5 2 3 0 3 18 325 395 425 462 324 197 66 39 0 0 0 0 0 0
0 0 0 9 19 0 0 0 29 41 223 49 39 68 17 46 126 55 1 0 0 0 0 0 0 0 4 0 2 60 0 0 8 35 99 494 378 390 360 290 174 65 56 15 0 0 0 0 0
0 0 10 8 0 0 0 0 39 150 88 46 50 42 49 45 80 88 34 0 0 0 0 0 0 0 0 72 188 200 9 0 0 2 274 458 555 493 440 294 312 115 69 4 0 0 0 0 0
0 0 0 0 0 0 0 0 0 0 22 91 53 90 101 53 163 155 201 114 50 24 19 67 26 5 0 238 285 272 81 17 0 1 307 423 442 469 479 440 355 111 16 0 0 0 0 0 0
0 0 2 0 0 2 0 10 5 0 25 107 133 129 171 145 95 342 307 356 201 237 213 155 103 106 190 270 430 269 217 0 28 8 123 304 477 485 530 365 179 56 2 0 0 0 0 0 0
0 0 0 0 0 0 3 24 0 0 0 21 173 255 169 184 138 179 229 366 401 371 401 240 232 222 356 258 132 434 375 203 230 438 355 393 388 452 400 280 73 1 0 0 0 0 0 0 0
0 0 0 2 3 0 24 8 20 0 0 8 145 197 272 193 160 251 219 149 398 529 486 538 583 477 476 613 426 454 519 522 353 459 375 283 30 143 137 108 12 0 0 0 0 0 0 0 0
0 0 0 12 3 51 26 45 34 0 5 0 0 7 240 277 200 214 327 236 137 250 685 680 692 552 585 574 850 596 235 699 578 447 451 218 74 0 73 27 1 0 0 0 0 0 0 0 0
0 0 0 6 1 26 37 12 72 19 0 0 0 9 57 41 381 320 313 435 397 292 316 596 722 705 562 671 830 675 214 254 606 763 419 183 31 0 4 0 0 0 0 0 0 0 0 0 0
0 0 0 6 1 8 4 10 34 0 0 0 0 0 88 148 137 230 437 414 486 603 519 511 567 510 672 623 945 753 138 69 626 664 391 217 84 8 0 0 0 0 0 0 0 0 0 0 0
0 0 0 24 23 24 9 66 0 0 0 0 0 0 0 34 175 166 207 353 570 578 735 872 1010 963 1020 1071 1096 894 638 320 653 585 320 185 35 0 0 0 0 0 0 0 0 0 0 0 0
1 0 5 11 14 59 53 42 43 1 1 0 0 3 0 0 21 291 325 380 381 521 1066 1627 1678 1594 1473 1265 1130 1021 849 732 404 246 245 85 0 0 0 0 0 0 0 0 0 0 0 0 0

GFSSGP_con_mlcape_051.txt.gz
CAPE
0 0 0 0 0 0 0 0 0 0 0 208 246 199 114 47 87 413 201 369 47 0 122 536 966 1083 1033 847 639 472 381 253 46 2 23 110 326 456 459 0 0 0 0 0 0 0 0 0 0
0 0 0 0 0 0 0 0 0 62 128 172 145 173 98 92 605 973 183 11 3 0 14 0 520 1014 1052 931 616 433 344 157 15 9 126 275 349 429 462 0 0 0 0 0 0 0 0 0 0
0 0 0 0 0 0 0 0 0 160 95 207 198 202 656 242 0 829 1320 85 22 67 178 480 696 770 1047 954 628 472 288 46 3 45 147 315 356 402 477 0 0 0 0 0 0 0 0 0 0
0 0 0 0 0 0 0 1 53 7 2 76 24 766 929 213 136 5 1114 3 432 738 861 837 609 681 909 827 559 339 72 0 10 138 298 439 427 391 407 198 49 8 0 0 0 0 0 0 0
0 0 0 0 0 0 6 1 55 22 166 206 182 142 449 60 68 833 822 714 854 1155 978 983 780 588 415 459 484 176 2 28 87 222 383 501 514 451 467 458 79 9 0 0 0 0 0 0 0
0 0 0 0 0 23 4 0 0 6 459 141 153 44 0 22 452 540 731 794 797 843 704 507 555 55 85 220 154 55 105 177 146 285 588 732 741 583 614 539 51 0 0 0 0 0 0 0 0
0 0 0 0 0 3 8 0 0 29 129 15 28 116 1 7 308 518 774 670 688 632 447 380 483 279 164 104 118 224 196 125 147 244 405 549 701 711 647 372 15 0 0 0 0 0 0 0 0
0 0 0 0 0 1 0 0 23 74 134 160 0 8 272 60 222 515 498 644 535 474 333 197 180 112 24 17 38 242 181 122 88 92 187 411 555 587 421 179 0 0 0 0 0 0 0 0 0
0 0 0 0 0 0 0 4 52 4 62 63 0 0 23 233 125 256 119 332 191 124 66 24 3 0 6 0 47 309 251 143 89 57 67 122 216 268 174 58 13 4 0 0 0 0 0 0 0
0 0 0 0 0 0 0 0 41 26 13 0 0 0 349 218 106 174 213 201 208 68 3 1 0 0 0 1 7 112 139 64 34 1 0 0 26 83 145 79 28 12 0 0 0 0 0 0 0
0 0 0 0 0 0 0 53 207 229 145 16 0 42 391 105 15 48 97 83 91 3 2 0 0 0 0 3 16 40 28 48 17 0 0 52 41 76 68 75 37 4 0 0 0 0 0 0 0
0 0 0 0 7 0 0 0 15 0 241 307 556 444 257 113 23 0 0 3 1 1 1 0 0 0 0 0 0 0 0 14 1 74 74 115 28 15 14 11 17 1 0 0 0 0 0 0 0
0 0 0 0 3 4 0 0 2 0 352 291 352 343 134 20 1 2 2 2 3 2 2 0 0 0 0 0 0 0 11 26 62 116 113 127 84 25 13 19 0 0 0 0 0 0 0 0 0
0 0 0 0 0 21 2 0 0 0 58 266 160 104 70 3 1 2 2 2 1 2 2 1 0 0 0 0 0 0 5 42 56 89 146 209 133 97 73 106 45 0 0 0 0 0 0 0 0
0 0 0 0 0 0 0 0 0 0 14 421 215 61 13 2 2 2 2 2 1 2 2 1 0 0 0 0 0 0 0 22 38 40 122 222 195 151 215 169 143 101 33 0 0 0 0 0 0
0 0 0 0 0 34 22 13 0 0 1 316 114 77 8 1 1 1 0 1 1 2 0 0 0 0 0 0 0 0 3 41 49 74 121 144 177 245 206 166 179 74 46 0 0 0 0 0 0
0 0 0 0 30 21 10 0 0 2 26 165 256 99 0 6 0 0 0 0 0 1 0 0 0 0 0 0 0 0 0 38 36 82 97 87 110 186 114 250 199 80 28 0 0 0 0 0 0
0 0 0 2 8 5 20 0 0 0 19 12 101 85 19 8 0 0 0 0 0 0 0 2 1 0 0 0 0 0 0 17 15 1 1 114 36 47 275 238 223 93 7 0 0 0 0 0 0
0 0 0 0 2 1 0 10 0 0 2 46 31 66 7 8 0 0 0 0 0 0 0 0 0 0 0 0 0 0 0 2 0 0 0 4 58 110 231 274 191 93 21 0 0 0 0 0 0
0 0 0 16 9 0 4 23 0 0 14 75 71 21 0 0 0 0 0 0 0 0 0 0 0 0 0 0 0 0 0 0 21 2 17 4 96 172 278 254 255 110 50 13 0 0 0 0 0
0 0 0 3 12 2 0 0 4 0 33 13 67 42 0 0 0 0 0 0 0 0 0 0 0 0 0 0 0 0 0 15 0 0 0 3 129 222 239 333 248 106 38 8 0 0 0 0 0
0 0 0 0 0 0 0 0 32 60 49 3 42 22 10 12 0 0 0 0 0 0 0 0 0 0 0 0 0 0 0 7 0 0 0 60 214 259 266 291 205 139 56 27 0 0 0 0 0
0 0 1 0 0 0 0 0 5 62 40 0 12 15 0 60 1 0 0 0 0 0 0 0 0 0 0 0 0 0 0 0 0 0 0 76 221 237 180 169 135 152 97 25 0 0 0 0 0
0 2 0 0 0 0 0 0 1 0 0 5 1 10 8 5 51 8 0 0 0 0 0 0 0 0 0 0 0 14 63 95 0 0 0 61 145 196 184 80 131 132 41 3 0 0 0 0 0
0 0 0 0 0 0 7 4 0 0 0 0 9 23 17 36 57 62 66 13 0 0 0 0 0 0 0 0 0 27 119 109 78 10 9 0 84 160 76 3 71 55 12 0 0 0 0 0 0
0 0 0 0 0 0 0 2 0 0 0 0 0 34 8 31 94 136 162 180 152 50 6 0 2 10 3 9 29 143 174 172 166 1 156 82 107 144 33 60 55 11 0 0 0 0 0 0 0
0 0 0 17 1 0 0 10 0 0 0 0 0 0 87 51 56 88 170 183 144 174 125 137 92 64 97 120 201 166 137 146 246 175 230 183 151 90 0 0 0 0 0 0 0 0 0 0 0
0 0 3 8 1 0 1 40 5 0 0 0 0 0 9 52 54 63 48 68 100 220 270 271 258 278 245 262 392 365 318 219 352 472 297 266 205 45 0 0 0 0 0 0 0 0 0 0 0
0 0 0 17 24 3 0 0 0 0 0 0 0 0 3 26 43 53 49 42 24 8 169 368 312 182 343 249 300 464 455 367 351 156 405 320 178 42 10 0 0 0 0 0 0 0 0 0 0
0 0 0 0 10 31 0 0 0 0 0 0 0 0 0 38 105 82 126 98 118 120 25 174 133 269 281 377 324 475 282 128 161 67 306 318 183 1 0 0 0 0 0 0 0 0 0 0 0

GFSSGP_con_mlcape_054.txt.gz
CAPE
0 0 0 0 0 0 0 0 0 0 0 0 56 149 151 203 554 418 588 618 252 793 805 279 334 848 844 591 454 295 157 82 79 164 486 562 229 65 38 11 0 0 0 0 0 0 0 0 10
0 0 0 0 0 0 0 0 0 0 0 119 219 190 250 423 585 689 754 525 178 194 977 815 244 493 741 666 523 359 198 155 180 377 640 666 225 41 14 1 0 0 0 0 0 0 0 0 0
0 0 0 0 0 0 0 0 0 13 126 213 255 927 712 528 103 524 596 698 326 243 774 1001 736 461 387 844 635 383 151 167 264 525 689 723 245 60 22 2 0 0 0 0 0 0 0 0 0
0 0 0 0 0 0 0 0 3 191 127 246 446 496 924 424 589 536 606 154 50 274 220 143 101 234 376 712 542 263 133 227 398 568 729 773 259 104 49 0 0 0 0 0 0 0 0 0 0
0 0 0 0 0 0 0 0 0 194 328 261 247 189 350 202 445 706 959 669 450 408 504 281 395 372 343 364 316 236 231 232 395 567 687 743 322 131 30 0 0 0 0 0 0 0 0 0 0
0 0 0 0 0 0 0 0 121 188 203 202 162 84 0 151 242 596 893 833 876 776 588 651 417 249 287 185 33 290 290 316 471 567 708 655 527 145 25 0 0 0 0 0 0 0 0 0 0
0 0 0 0 0 0 0 6 60 115 140 118 97 144 11 0 15 481 829 802 527 459 487 278 346 379 90 28 1 14 507 524 537 672 724 547 660 222 26 0 0 0 0 0 0 0 0 0 0
0 0 0 0 0 0 0 10 35 72 80 57 96 7 37 80 356 551 422 197 450 287 323 191 136 178 6 0 0 0 384 475 485 605 631 575 631 247 0 0 0 0 0 0 0 0 0 0 0
0 0 0 0 0 0 10 41 17 18 48 9 0 0 10 74 260 295 16 26 26 0 90 186 31 5 2 0 0 0 260 266 356 481 430 492 390 179 0 0 0 0 0 0 0 0 0 0 0
0 0 0 0 0 3 82 71 72 11 0 0 0 0 174 94 163 218 41 0 73 80 65 11 3 0 0 0 17 56 158 194 195 119 131 107 138 62 0 2 0 0 0 0 0 0 0 0 0
0 0 0 0 0 4 36 24 5 0 0 0 10 0 115 40 26 92 121 63 92 13 2 2 1 3 2 0 0 129 36 26 9 48 92 121 81 9 0 5 0 0 0 0 0 0 0 0 0
0 0 0 0 0 7 15 0 0 6 74 210 200 166 90 56 69 9 6 1 1 2 2 1 2 2 0 13 96 20 6 0 0 14 50 49 20 0 0 0 0 0 0 0 0 0 0 0 0
0 0 0 0 0 0 0 0 0 7 159 175 123 81 48 14 9 2 1 1 1 2 1 0 0 0 0 0 0 4 0 0 0 22 9 0 0 0 0 0 0 0 0 0 0 0 0 0 0
0 0 0 0 0 0 0 0 0 0 141 116 37 9 7 1 1 1 2 2 2 2 2 0 0 0 0 0 0 0 0 0 23 26 6 5 0 0 0 0 0 0 0 0 0 0 0 0 0
0 0 0 0 0 0 0 1 0 52 149 146 12 0 0 0 0 1 1 1 3 3 2 0 0 0 0 0 0 0 0 19 52 42 53 21 5 4 0 0 0 0 0 0 0 0 0 0 0
0 0 0 0 0 0 0 5 0 3 30 123 47 0 0 0 1 0 1 1 1 1 2 0 0 0 0 0 0 2 5 43 57 32 85 84 93 63 44 43 55 8 0 0 0 0 0 0 0
0 0 0 0 0 0 7 6 1 0 0 24 45 0 0 0 0 0 1 1 2 0 0 0 0 0 0 0 0 0 11 7 25 0 37 97 101 166 172 164 124 103 30 7 0 0 0 0 0
0 0 0 0 0 0 1 0 0 3 50 70 58 1 0 0 0 0 1 2 2 1 0 0 0 0 0 0 0 0 0 0 3 3 32 74 54 88 169 123 120 46 11 0 0 0 0 0 0
0 0 0 0 0 17 2 0 0 0 48 88 91 0 0 0 0 0 1 0 0 1 0 0 0 0 0 0 0 0 0 0 0 4 15 1 13 39 71 123 105 49 14 0 0 0 0 0 0
0 0 0 0 14 3 0 2 0 0 0 21 90 44 0 0 0 0 0 0 1 0 1 0 0 0 0 0 0 0 0 0 0 0 0 0 0 0 0 17 99 52 27 2 0 0 0 0 0
0 0 0 0 7 14 0 0 15 0 2 6 51 66 0 0 0 0 0 0 0 0 0 0 0 0 0 0 0 0 0 0 0 0 0 0 0 0 0 69 95 75 28 39 0 0 0 0 0
0 0 0 0 7 6 0 0 0 0 0 43 41 44 0 0 0 0 0 0 1 0 0 0 0 0 0 0 0 0 0 0 0 0 0 0 0 0 8 54 99 41 45 34 8 0 0 0 0
0 0 0 0 4 0 0 0 0 0 0 22 84 49 4 0 0 0 0 0 0 0 0 0 0 0 0 0 0 0 0 0 0 0 0 0 0 0 10 49 91 53 23 26 18 0 0 0 0
0 0 0 0 0 0 0 0 0 0 1 26 12 32 16 1 0 0 0 0 0 0 0 0 0 0 0 0 0 0 0 0 0 0 0 0 0 5 46 110 118 61 31 35 10 0 0 0 0
0 0 0 0 0 0 0 0 0 0 0 6 54 39 30 45 2 0 0 0 0 0 0 0 0 0 0 0 0 0 0 0 0 0 0 0 0 13 78 69 96 51 0 8 9 0 0 0 0
0 0 0 0 0 0 0 0 0 0 0 0 24 32 37 20 70 9 0 0 0 0 0 0 0 0 0 0 0 0 0 0 0 27 6 0 0 0 2 50 46 0 0 6 0 0 0 0 0
0 0 0 0 0 0 0 0 0 0 0 0 0 8 33 33 49 60 23 0 0 0 0 0 0 0 0 0 0 0 0 0 51 68 30 22 0 0 9 20 27 0 0 0 0 0 0 0 0
0 0 0 0 0 0 0 0 0 0 0 0 0 0 0 1 21 28 80 51 0 0 0 0 0 0 0 0 0 0 0 0 51 76 108 32 11 13 6 9 5 1 0 0 0 0 0 0 0
0 0 1 0 0 0 0 0 0 0 0 0 0 0 0 3 13 54 126 112 124 81 5 0 0 0 1 0 3 1 0 8 20 34 83 88 39 45 11 4 0 0 0 0 0 0 0 0 0
0 0 0 0 0 0 0 0 0 0 0 0 0 0 0 4 14 45 54 160 194 198 190 136 65 34 38 43 28 50 71 29 17 98 110 201 38 14 0 0 0 0 0 0 0 0 0 0 0

GFSSGP_con_mlcape_057.txt.gz
CAPE
0 0 0 0 0 0 0 0 0 0 0 0 7 28 80 223 376 251 576 598 1167 1193 1098 684 248 180 292 470 731 479 389 493 783 624 317 244 180 156 58 9 37 45 26 7 9 10 6 6 1
0 0 0 0 0 0 0 0 0 0 7 51 100 151 220 343 516 718 915 694 1040 897 374 335 92 54 25 16 614 591 557 758 842 593 372 329 228 101 3 7 56 78 20 3 2 0 0 0 0
0 0 0 0 0 0 0 0 0 0 44 78 283 656 516 337 351 818 628 772 708 681 936 545 117 0 0 0 293 547 486 668 930 589 362 331 218 51 0 1 37 38 7 0 0 0 0 0 0
0 0 0 0 0 0 0 0 0 0 36 142 396 588 812 552 495 445 796 875 604 455 1130 814 176 0 45 190 431 162 380 624 867 635 344 269 139 4 0 0 2 21 0 0 0 0 0 0 0
0 0 0 0 0 0 0 0 0 0 90 108 149 233 461 486 377 906 1009 447 700 423 709 882 382 303 387 374 127 3 621 580 671 695 339 218 122 2 0 0 3 0 0 0 0 0 0 0 0
0 0 0 0 0 0 0 0 0 18 42 48 88 40 21 114 116 573 906 554 261 360 544 551 671 522 350 294 188 161 430 427 629 711 377 272 102 0 0 0 0 0 0 0 0 0 0 0 0
0 0 0 0 0 0 0 0 0 27 38 56 90 93 49 1 124 435 935 929 926 561 426 303 243 191 31 0 0 2 171 358 438 536 400 267 110 0 0 0 0 0 0 0 0 0 0 0 0
0 0 0 0 0 0 0 0 15 13 11 17 22 1 25 35 86 639 804 613 741 457 276 384 203 138 6 0 0 0 157 391 345 327 432 236 65 0 0 0 0 0 0 0 0 0 0 0 0
0 0 0 0 0 0 1 14 2 0 0 0 0 0 7 62 182 253 102 139 423 365 229 177 73 4 2 2 0 0 84 314 385 451 411 146 19 0 0 0 0 0 0 0 0 0 0 0 0
0 0 0 0 0 0 0 5 0 0 0 0 0 0 121 62 97 64 10 61 127 130 110 11 2 1 1 0 0 2 69 227 459 522 439 153 8 0 0 0 0 0 0 0 0 0 0 0 0
0 0 0 0 0 0 0 5 24 0 0 0 0 0 99 21 13 33 17 9 6 6 13 3 1 0 0 0 0 15 46 85 139 204 190 103 3 0 0 0 0 0 0 0 0 0 0 0 0
0 0 0 0 0 0 0 0 0 0 9 78 46 6 39 20 19 16 4 1 7 4 5 3 2 2 0 0 0 0 52 41 73 135 132 64 0 0 0 0 0 0 0 0 0 0 0 0 0
0 0 0 0 0 0 0 0 0 6 108 104 67 35 2 0 2 0 1 0 1 2 1 1 3 3 0 0 0 0 0 0 23 48 77 29 0 0 1 0 0 0 0 0 0 0 0 0 0
0 0 0 0 0 0 0 0 0 0 48 78 10 0 0 0 1 0 1 1 0 1 1 0 0 3 3 0 0 0 0 0 1 16 45 5 0 4 3 0 0 0 0 0 0 0 0 0 0
0 0 0 0 0 0 0 0 0 0 39 13 8 0 0 0 0 1 1 0 2 1 0 0 0 0 0 0 0 0 0 15 36 29 25 3 0 0 0 0 0 0 0 0 0 0 0 0 0
0 0 0 0 0 0 0 0 0 1 28 15 14 1 0 0 0 0 1 2 2 2 2 1 0 0 0 0 20 0 1 19 25 15 27 9 0 0 1 1 0 0 0 0 0 0 0 0 0
0 0 0 0 0 0 0 0 0 24 41 0 9 6 0 0 0 0 1 1 1 1 1 1 0 0 0 0 1 3 16 50 60 66 34 26 5 0 9 11 34 1 0 0 0 0 0 0 0
0 0 0 0 0 0 0 0 0 0 0 0 0 0 0 0 0 0 0 1 1 1 1 2 0 0 0 1 7 12 34 47 42 49 82 107 115 174 136 116 112 77 25 2 0 0 0 0 0
0 0 0 0 0 0 0 0 0 0 0 0 0 0 0 0 0 0 0 1 0 1 0 0 0 0 0 0 2 26 18 28 14 42 29 93 120 111 140 144 101 105 77 62 12 0 0 0 0
0 0 0 0 0 0 0 0 0 0 0 0 3 0 0 0 0 0 0 0 2 0 0 1 0 0 0 0 0 0 6 5 18 12 9 39 28 43 45 92 122 84 43 6 0 0 0 0 0
0 0 0 0 0 0 0 0 0 0 0 0 0 11 0 0 0 0 0 0 2 1 0 0 0 0 0 0 0 0 0 2 11 9 9 10 3 0 0 0 0 20 37 20 0 0 0 0 0
0 0 0 0 0 0 0 0 0 0 0 0 0 0 2 0 0 0 0 0 0 0 0 0 0 0 0 0 0 0 0 0 0 0 0 1 0 0 0 0 0 13 33 19 16 0 0 0 0
0 0 0 0 0 0 0 0 0 0 0 0 0 0 0 7 0 0 0 0 0 0 0 0 0 0 0 0 0 0 0 0 0 0 0 0 0 0 0 0 3 5 28 46 20 0 0 0 0
0 0 0 0 0 0 0 0 0 0 0 0 0 0 0 0 0 0 0 0 0 0 0 0 0 0 0 0 0 0 0 0 0 0 0 0 0 0 0 0 1 0 4 44 17 0 0 0 0
0 0 0 0 0 0 0 0 0 0 0 0 0 0 7 0 0 0 0 0 0 0 0 0 0 0 0 0 0 0 0 0 0 0 0 0 0 0 2 4 7 3 17 42 23 1 0 0 0
0 0 0 0 0 0 0 0 0 0 0 0 0 2 0 5 0 0 0 0 0 0 0 0 0 0 0 0 0 0 0 0 0 0 0 0 0 0 0 0 0 4 34 15 0 0 7 0 0
0 0 0 0 0 0 0 0 0 0 0 0 0 8 20 20 3 0 0 0 0 0 0 0 0 0 0 0 0 0 0 0 0 0 0 0 0 0 0 5 0 0 10 0 0 0 0 0 0
0 0 0 0 0 0 0 0 0 0 0 0 0 0 3 6 1 11 9 0 0 0 0 0 0 0 0 0 0 0 0 0 0 0 0 0 0 0 0 0 0 0 0 0 0 0 0 0 0
0 0 0 0 0 0 0 0 0 0 0 0 0 0 0 0 0 12 48 14 0 0 0 0 0 0 0 0 0 0 0 0 0 0 0 0 6 6 9 2 2 0 0 0 0 0 0 0 0
0 0 0 0 0 0 0 0 0 0 0 0 0 0 0 0 0 21 36 54 5 0 0 0 0 0 0 0 0 0 0 0 0 0 0 1 1 12 15 32 2 0 0 0 0 0 0 0 0

GFSSGP_con_mlcape_060.txt.gz
CAPE
0 0 0 0 0 0 0 0 0 0 0 0 0 3 4 78 158 95 467 772 1329 1085 1163 1116 951 817 506 786 893 909 775 838 798 650 499 370 275 60 62 120 104 73 40 10 8 4 2 2 2
0 0 0 0 0 0 0 0 0 0 0 0 35 86 123 236 389 563 853 897 1476 1145 1102 884 843 734 736 357 688 854 881 873 570 472 345 325 217 91 149 140 125 108 85 26 16 44 9 1 0
0 0 0 0 0 0 0 0 0 0 0 0 53 383 270 260 448 870 607 945 1182 1057 769 728 624 468 336 461 420 806 891 745 337 383 352 294 163 202 228 178 139 141 99 51 58 31 5 0 0
0 0 0 0 0 0 0 0 0 0 0 0 136 235 554 429 323 474 704 893 1007 942 752 358 289 422 231 132 502 864 738 527 303 321 267 291 180 246 213 119 96 60 2 1 0 4 0 0 0
0 0 0 0 0 0 0 0 0 0 0 3 0 39 385 558 321 729 861 962 965 717 887 665 221 297 140 142 374 415 814 682 464 275 284 283 164 230 161 116 39 0 0 0 0 0 0 0 0
0 0 0 0 0 0 0 0 0 0 0 0 7 0 0 43 128 365 709 776 541 519 739 893 491 239 253 361 254 184 192 249 355 230 218 209 135 143 194 50 0 0 0 0 0 0 0 0 0
0 0 0 0 0 0 0 0 0 0 0 0 0 1 5 0 87 350 619 907 546 312 533 858 458 301 361 96 0 0 0 113 299 185 229 213 166 112 84 0 0 0 0 0 0 0 0 0 0
0 0 0 0 0 0 0 0 0 0 0 10 10 0 8 136 41 620 859 778 893 443 495 551 256 38 9 1 0 0 20 209 330 243 225 231 166 87 0 0 0 0 0 0 0 0 0 0 0
0 0 0 0 0 0 0 0 0 0 8 12 0 0 0 2 121 313 350 539 518 411 330 277 48 0 0 0 0 0 0 22 240 256 252 189 70 0 0 0 0 0 0 0 0 0 0 0 0
0 0 0 0 0 0 0 0 0 0 5 2 0 0 6 28 114 89 45 82 238 212 248 165 3 2 2 3 1 0 0 0 50 271 237 109 2 0 0 0 0 0 0 0 0 0 0 0 0
0 0 0 0 0 0 0 0 0 0 0 0 0 0 13 22 28 62 55 77 148 84 32 13 0 0 0 0 1 0 21 42 37 249 218 55 0 0 0 0 0 0 0 0 0 0 0 0 0
0 0 0 0 0 0 0 0 0 0 0 23 44 13 45 10 2 3 37 16 5 13 12 3 43 35 3 2 0 11 0 3 62 113 171 36 0 0 0 0 0 0 0 0 0 0 0 0 0
0 0 0 0 0 0 0 0 0 0 33 78 69 56 18 7 0 0 1 0 5 1 1 6 2 0 0 0 0 0 13 7 29 88 178 45 2 0 0 0 0 0 0 0 0 0 0 0 0
0 0 0 0 0 0 0 0 0 0 12 15 25 0 0 11 0 0 1 1 2 1 2 3 3 0 0 0 0 0 0 0 16 57 98 35 0 0 0 0 0 0 0 0 0 0 0 0 0
0 0 0 0 0 0 0 0 0 0 0 0 14 0 1 0 0 0 0 1 3 1 0 2 3 0 0 0 0 0 0 0 25 43 80 14 0 0 0 0 0 0 0 0 0 0 0 0 0
0 0 0 0 0 0 0 0 0 0 0 0 0 0 0 0 0 1 1 0 0 1 1 1 0 3 0 0 0 2 1 10 23 52 61 32 9 7 2 0 0 0 0 0 0 0 0 0 0
0 0 0 0 0 0 0 0 0 0 0 0 0 0 0 0 0 0 0 1 1 0 0 1 1 1 0 1 3 15 40 17 66 67 61 58 16 7 3 1 0 0 0 0 0 0 0 0 0
0 0 0 0 0 0 0 0 0 0 0 0 0 0 0 0 0 0 0 0 1 1 1 1 0 0 0 0 1 1 18 49 47 63 67 43 16 12 8 6 0 0 0 0 0 0 0 0 0
0 0 0 0 0 0 0 0 0 0 0 0 0 0 0 0 0 0 0 0 1 1 0 0 0 0 0 0 0 0 4 5 21 38 35 31 33 26 24 32 48 52 19 6 0 0 0 0 0
0 0 0 0 0 0 0 0 0 0 0 0 0 0 0 0 0 0 2 4 0 0 0 1 1 0 0 0 0 7 5 20 46 53 67 83 87 106 135 163 123 101 72 40 38 22 0 0 0
0 0 0 0 0 0 0 0 0 0 0 0 0 0 0 0 0 0 1 2 2 0 0 0 0 0 0 0 0 0 0 2 29 22 20 4 16 31 59 95 79 121 59 62 25 1 0 4 0
0 0 0 0 0 0 0 0 0 0 0 0 0 0 0 0 0 0 0 0 2 0 0 0 0 0 0 0 0 0 0 1 3 3 21 26 31 8 6 3 7 3 23 24 29 1 0 0 0
0 0 0 0 0 0 0 0 0 0 0 0 0 0 0 0 0 0 0 0 0 0 0 0 0 0 0 0 0 0 0 0 0 0 14 15 2 1 0 1 0 0 9 29 7 0 0 0 0
0 0 0 0 0 0 0 0 0 0 0 0 0 0 0 0 0 0 0 0 0 0 0 0 0 0 0 0 0 0 0 0 0 0 0 0 0 0 0 0 0 0 1 9 1 1 0 0 0
0 0 0 0 0 0 0 0 0 0 0 0 0 0 0 0 0 0 0 0 0 0 0 0 0 0 0 0 0 0 0 0 0 0 0 0 0 0 0 0 0 0 0 0 0 7 6 8 0
0 0 0 0 0 0 0 0 0 0 0 0 0 0 0 0 0 0 0 0 0 0 0 0 0 0 0 0 0 0 0 0 0 0 0 0 0 0 0 0 0 1 4 4 0 3 0 0 0
0 0 0 0 0 0 0 0 0 0 0 0 0 0 0 0 0 0 0 0 0 0 0 0 0 0 0 0 0 0 0 0 0 0 0 0 0 0 0 0 0 0 0 0 0 0 0 0 0
0 0 0 0 0 0 0 0 0 0 0 0 0 0 0 0 0 0 0 0 0 0 0 0 0 0 0 0 0 0 0 0 0 0 0 0 0 0 0 0 0 0 0 0 0 0 0 0 0
0 0 0 0 0 0 0 0 0 0 0 0 0 0 0 0 0 0 0 0 0 0 0 0 0 0 0 0 0 0 0 0 0 0 0 0 0 0 0 0 0 0 4 0 0 0 0 0 0
0 0 0 0 0 0 0 0 0 0 0 0 0 0 0 0 0 0 0 0 0 0 0 0 0 0 0 0 0 0 0 0 0 0 0 0 0 0 0 0 0 0 2 0 0 0 0 0 0

GFSSGP_con_mlcape_063.txt.gz
CAPE
0 0 0 0 0 0 0 0 0 0 0 0 0 1 2 32 83 101 393 797 1122 1103 1040 885 770 1176 1341 1358 1347 1251 1141 1087 930 771 367 546 459 294 156 57 19 2 3 3 7 11 17 13 11
0 0 0 0 0 0 0 0 0 0 0 0 4 71 63 90 279 407 623 926 1376 1190 1149 1055 886 1107 1253 1323 1379 1282 1212 976 812 668 622 439 250 240 151 89 23 3 1 3 3 6 13 12 6
0 0 0 0 0 0 0 0 0 0 0 0 2 271 157 132 186 764 548 923 1509 1312 1374 1418 1004 986 1037 995 995 1486 1246 938 730 664 568 228 272 262 217 119 53 35 24 10 9 3 1 2 0
0 0 0 0 0 0 0 0 0 0 0 0 2 126 471 341 213 509 631 929 1254 1237 1273 1042 898 836 1205 1098 1546 1472 1167 896 772 545 334 238 316 257 193 105 115 51 56 37 0 0 0 0 0
0 0 0 0 0 0 0 0 0 0 0 0 0 0 109 339 152 440 772 901 1126 1072 1071 826 725 308 647 1279 1465 1393 1047 826 704 464 235 348 339 199 135 174 124 96 95 50 1 0 0 0 0
0 0 0 0 0 0 0 0 0 0 0 0 0 0 0 2 71 95 549 861 839 961 964 767 530 620 823 610 706 1093 931 748 549 425 251 287 249 129 96 108 2 19 112 47 0 0 0 0 0
0 0 0 0 0 0 0 0 0 0 0 0 0 0 4 0 0 113 391 686 454 618 624 680 414 383 311 378 199 423 704 799 551 343 242 183 129 82 114 17 0 0 103 0 0 0 0 0 0
0 0 0 0 0 0 0 0 0 0 0 1 10 8 9 97 13 136 410 778 949 360 432 778 387 445 576 436 316 263 292 559 435 236 194 142 93 95 79 0 0 46 42 0 0 0 0 0 0
0 0 0 0 0 0 0 0 0 0 0 1 2 1 0 0 41 118 285 538 476 422 358 515 316 298 296 118 79 112 99 242 294 219 154 133 186 71 0 0 0 109 0 0 0 0 0 0 0
0 0 0 0 0 0 0 0 0 0 0 0 0 0 0 16 76 85 109 191 259 188 316 286 144 40 18 0 0 0 9 22 67 248 190 166 69 0 0 0 0 47 0 0 0 0 0 0 0
0 0 0 0 0 0 0 0 0 0 0 0 0 0 0 13 39 61 64 35 76 67 69 101 1 2 2 0 0 1 11 58 47 157 165 123 1 0 0 0 0 13 0 0 0 0 0 0 0
0 0 0 0 0 0 0 0 0 0 0 7 1 9 0 7 13 0 30 30 28 66 13 3 3 0 0 2 0 0 0 16 64 126 153 76 0 0 0 0 0 0 0 11 0 0 0 0 0
0 0 0 0 0 0 0 0 0 0 0 43 15 0 1 6 5 0 1 11 8 22 20 8 7 4 1 3 1 0 0 13 42 90 128 10 0 0 0 0 0 0 0 0 0 0 0 0 0
0 0 0 0 0 0 0 0 0 0 0 11 0 0 0 2 0 0 1 2 7 2 2 4 3 1 2 2 1 5 30 25 13 53 96 19 4 0 0 0 0 0 0 0 0 0 0 0 0
0 0 0 0 0 0 0 0 0 0 0 0 0 0 0 0 0 0 1 1 5 1 1 1 1 0 0 2 5 25 15 16 21 86 73 6 0 0 0 0 0 0 0 0 0 0 0 0 0
0 0 0 0 0 0 0 0 0 0 0 0 0 0 0 0 0 0 1 2 2 2 2 3 3 1 0 0 0 16 31 28 5 54 77 39 23 8 0 0 0 0 0 0 0 0 0 0 0
0 0 0 0 0 0 0 0 0 0 0 0 0 0 0 0 1 1 1 2 4 1 0 2 3 2 0 0 0 14 15 36 6 0 31 60 20 9 2 0 0 0 2 8 0 0 0 0 0
0 0 0 0 0 0 0 0 0 0 0 0 1 0 0 0 0 0 1 1 2 2 1 1 3 0 3 0 2 5 26 31 54 7 0 61 18 1 0 5 1 0 0 9 14 0 0 0 0
0 0 0 0 0 0 0 0 0 0 0 0 0 0 0 0 1 1 1 3 0 1 1 1 0 1 0 0 1 0 0 23 46 51 15 56 12 4 10 20 10 10 11 4 2 8 0 0 0
0 0 0 0 0 0 0 0 0 0 0 0 0 0 0 0 0 3 1 3 0 1 2 1 0 1 1 0 0 0 0 16 42 55 31 50 26 13 35 41 33 37 30 32 22 15 15 3 0
0 0 0 0 0 0 0 0 0 0 0 0 0 0 0 0 0 0 0 1 2 1 2 1 1 0 1 0 0 0 0 5 44 41 23 15 41 52 74 88 59 69 113 106 73 25 25 57 1
0 0 0 0 0 0 0 0 0 0 0 0 0 0 0 0 0 0 0 1 2 3 4 2 2 1 0 0 0 0 0 0 5 12 29 39 56 78 75 58 67 107 119 130 86 33 57 69 37
0 0 0 0 0 0 0 0 0 0 0 0 0 0 0 0 0 0 0 0 1 1 1 1 1 1 0 0 0 0 0 0 0 1 28 43 24 30 19 14 30 37 17 36 74 73 61 61 46
0 0 0 0 0 0 0 0 0 0 0 0 0 0 0 0 0 0 0 0 0 1 3 1 0 1 0 0 0 0 0 0 0 0 15 18 17 9 8 8 13 19 14 34 71 86 75 58 22
0 0 0 0 0 0 0 0 0 0 0 0 0 0 0 0 0 0 0 0 0 0 2 3 0 0 0 0 0 0 0 0 0 0 0 1 1 1 4 2 8 6 9 11 54 63 51 33 8
0 0 0 0 0 0 0 0 0 0 0 0 0 0 0 0 0 0 0 0 0 0 0 1 1 1 0 0 0 0 0 0 0 0 0 0 0 0 0 1 3 0 0 3 49 53 36 10 3
0 0 0 0 0 0 0 0 0 0 0 0 0 0 0 0 0 0 0 0 0 0 0 0 0 0 0 0 0 0 0 0 0 0 0 0 0 0 0 0 0 0 0 0 19 14 12 5 6
0 0 0 0 0 0 0 0 0 0 0 0 0 0 0 0 0 0 0 0 0 0 0 0 0 0 0 0 0 0 0 0 0 0 0 0 0 0 0 0 0 0 0 0 0 0 0 2 1
0 0 0 0 0 0 0 0 0 0 0 0 0 0 0 0 0 0 0 0 0 0 0 0 0 0 0 0 0 0 0 0 0 0 0 0 0 0 0 0 0 0 0 0 0 0 2 2 3
0 0 0 0 0 0 0 0 0 0 0 0 0 0 0 0 0 0 0 0 0 0 0 0 0 0 0 0 0 0 0 0 0 0 0 0 0 0 0 0 0 0 0 0 0 0 1 0 0

GFSSGP_con_mlcape_066.txt.gz
CAPE
0 0 0 0 0 0 0 0 0 0 0 0 0 0 1 13 5 25 754 1140 1189 1205 1264 994 1341 1698 1741 1520 1253 1090 1282 1116 957 825 875 836 792 658 649 326 165 74 54 13 3 8 18 9 2
0 0 0 0 0 0 0 0 0 0 0 0 3 48 65 35 220 522 971 1225 1472 1314 1310 1078 1278 1606 1766 1649 1507 1484 1377 1189 963 906 889 896 780 562 379 147 33 8 4 7 8 4 7 9 0
0 0 0 0 0 0 0 0 0 0 0 0 3 117 152 60 240 1086 995 1312 1710 1345 1333 1181 885 1033 1706 1721 1652 1560 1374 1221 1028 923 898 781 566 365 147 38 1 0 3 4 7 11 10 6 0
0 0 0 0 0 0 0 0 0 0 0 0 0 16 588 809 380 988 980 1390 1496 1575 1241 1268 897 908 1251 1756 1716 1622 1399 1269 1056 963 838 811 587 378 119 37 10 3 2 3 7 18 12 0 0
0 0 0 0 0 0 0 0 0 0 0 6 17 0 52 719 453 690 1068 1310 1363 1882 1344 1495 1018 448 191 654 1366 1626 1354 1215 1057 829 848 770 654 448 155 100 46 53 7 2 4 3 1 0 0
0 0 0 0 0 0 0 0 0 0 0 0 8 2 11 183 381 414 815 1232 1311 1441 1443 1376 629 225 81 309 920 1402 1206 1060 866 733 767 710 566 365 212 150 129 116 0 0 0 0 0 0 0
0 0 0 0 0 0 0 0 0 0 0 0 21 6 73 94 147 365 540 945 1273 1012 1298 935 655 550 551 393 605 887 1069 953 782 793 757 614 474 295 261 184 173 152 0 0 0 0 0 0 0
0 0 0 0 0 0 0 0 0 0 0 39 37 0 5 682 309 493 554 702 1131 826 698 980 1062 837 567 546 496 419 756 672 675 803 703 493 226 164 102 85 146 102 0 0 0 0 0 0 0
0 0 0 0 0 0 0 0 0 0 0 35 67 46 185 153 214 284 342 619 714 909 784 921 551 715 666 370 333 357 338 287 443 623 444 207 206 137 72 50 183 32 0 0 0 0 0 0 0
0 0 0 0 0 0 0 0 0 0 0 14 45 110 37 132 263 278 200 376 332 299 409 734 563 419 427 338 407 209 165 154 126 306 198 234 197 121 5 61 111 40 0 0 0 0 0 0 0
0 0 0 0 0 0 0 0 0 0 0 0 0 46 60 170 176 186 260 57 134 155 341 392 321 266 254 138 31 65 154 72 72 138 137 259 200 15 39 117 139 50 0 0 0 0 0 0 0
0 0 0 0 0 0 0 0 0 0 0 24 0 58 166 0 74 47 51 37 80 89 30 41 105 56 6 32 34 2 0 22 17 53 157 208 108 56 56 70 70 20 2 0 0 0 0 0 0
0 0 0 0 0 0 0 0 0 0 0 94 187 136 221 14 20 15 31 18 86 41 4 2 2 1 1 0 3 1 0 0 0 1 44 182 114 38 24 57 104 78 115 42 7 0 0 0 0
0 0 0 0 0 0 0 0 0 0 0 130 215 168 79 0 0 0 26 3 20 9 3 1 3 4 2 2 1 4 11 5 13 13 82 173 109 52 39 24 14 19 74 73 15 0 0 0 0
0 0 0 0 0 0 0 0 0 0 26 101 86 125 57 0 0 0 7 2 6 12 4 1 1 0 2 3 2 0 10 17 13 36 120 175 64 55 66 22 10 15 21 8 6 1 0 0 0
0 0 0 0 0 0 0 0 0 0 25 70 53 123 19 0 0 0 0 4 3 2 0 1 3 1 1 3 3 8 3 12 16 55 103 105 80 62 55 25 29 21 11 3 0 0 0 0 0
0 0 0 0 0 0 0 0 0 3 3 11 129 186 103 9 0 0 0 0 2 8 2 2 3 1 2 3 12 12 2 3 15 43 96 52 63 55 36 35 23 65 33 3 0 3 0 0 0
0 0 0 0 0 0 0 0 0 0 3 38 110 272 210 36 0 0 0 0 6 1 3 3 3 2 4 9 7 15 15 11 20 48 87 64 36 36 28 22 44 66 100 63 41 46 29 10 0
0 0 0 0 0 0 0 0 0 0 0 54 76 212 275 100 17 0 0 1 4 1 0 3 2 1 6 4 1 4 2 14 2 16 44 78 76 79 79 40 62 70 103 150 120 127 74 38 20
0 0 0 0 0 0 0 0 0 0 0 3 85 152 237 113 29 0 0 3 6 3 3 1 3 5 2 3 0 2 0 12 12 9 20 47 79 22 46 99 60 78 95 119 176 160 121 129 51
0 0 0 0 0 0 0 0 0 0 0 2 28 47 146 163 70 0 0 0 4 5 3 4 3 1 4 4 7 0 1 0 15 15 16 28 73 3 2 76 62 124 132 130 149 158 160 158 126
0 0 0 0 0 0 0 0 0 0 0 0 0 33 29 99 74 8 0 0 2 4 4 5 4 2 3 4 0 0 0 0 4 0 7 24 53 20 18 91 135 163 161 173 190 206 171 114 131
0 0 0 0 0 0 0 0 0 0 0 0 0 0 40 93 111 54 0 0 0 2 0 8 5 4 1 2 0 0 0 0 16 25 24 21 40 59 45 73 137 130 123 125 200 186 218 208 64
0 0 0 0 0 0 0 0 0 0 0 0 0 0 0 89 129 130 24 0 0 0 3 6 7 3 3 1 1 0 1 2 12 13 21 15 19 21 29 40 92 81 71 131 136 69 119 110 158
0 0 0 0 0 0 0 0 0 0 0 0 0 0 0 33 117 123 57 1 0 0 0 3 7 10 6 2 1 0 0 0 0 0 6 6 0 1 11 38 57 32 43 13 59 58 127 136 129
0 0 0 0 0 0 0 0 0 0 0 0 0 0 0 12 72 107 107 37 0 0 0 2 2 2 6 6 6 1 0 0 0 0 0 0 4 3 7 21 31 14 60 88 113 64 88 131 156
0 0 0 0 0 0 1 0 0 0 0 0 0 0 0 0 42 78 112 83 28 0 0 0 0 0 2 4 3 0 0 0 0 0 0 0 0 6 17 27 12 18 59 69 74 71 63 86 134
0 0 0 0 0 3 2 0 0 0 0 0 0 0 0 15 36 78 105 107 50 1 0 0 0 0 0 0 1 1 0 1 0 2 0 0 0 3 14 29 22 38 30 26 32 38 21 45 87
0 0 0 0 0 2 5 3 0 0 0 0 0 0 0 22 55 80 114 123 87 23 0 0 0 0 0 0 0 0 0 0 1 0 0 0 0 0 0 0 2 3 3 15 24 13 8 22 34
0 0 0 0 0 0 4 10 0 0 0 0 0 0 0 0 1 80 123 121 115 70 3 0 0 0 0 0 0 0 0 0 0 0 0 0 0 0 0 0 0 0 0 0 0 0 0 0 0

GFSSGP_con_mlcape_069.txt.gz
CAPE
0 0 0 0 0 0 0 0 0 0 0 0 0 0 0 0 0 25 1061 1243 1384 1354 1859 1054 1246 1655 1764 1511 1259 1262 1162 1131 892 798 761 784 684 746 752 519 465 290 95 19 60 63 39 39 21
0 0 0 0 0 0 0 0 0 0 0 0 0 0 0 5 22 31 803 1559 1483 1433 1677 1261 1268 1549 1814 1502 1288 1349 1330 1225 1010 834 853 946 872 906 700 445 349 161 18 13 41 35 20 10 0
0 0 0 0 0 0 0 0 0 0 0 0 0 0 0 20 158 615 1211 1587 1834 1568 1573 1425 1223 1633 1787 1535 1389 1422 1363 1178 1038 858 944 1017 883 786 502 262 213 87 2 2 16 26 12 0 0
0 0 0 0 0 0 0 0 0 0 0 0 0 0 63 871 426 944 1167 1618 1881 1639 1517 1310 1126 1469 1264 1454 1381 1401 1342 1129 1079 994 1087 990 864 576 282 138 101 55 26 10 10 14 3 0 0
0 0 0 0 0 0 0 0 0 0 0 0 0 0 28 750 721 749 1150 1438 1744 2000 1457 1362 1009 1142 971 933 800 744 1258 1119 1115 1072 1025 910 693 387 166 89 42 4 5 6 12 5 0 0 0
0 0 0 0 0 0 0 0 0 0 0 0 0 10 11 513 408 719 900 1233 1544 1917 1750 1495 1094 715 678 498 82 1 572 1105 1023 1018 930 805 535 295 153 95 39 2 0 2 5 2 0 0 0
0 0 0 0 0 0 0 0 0 0 0 0 19 0 13 229 396 602 658 988 1281 1551 1883 1541 1505 953 402 1 0 0 8 995 960 932 1005 782 462 246 217 232 57 0 0 0 0 0 0 0 0
0 0 0 0 0 0 0 0 0 0 0 6 0 0 10 989 571 656 738 796 1006 1456 1427 1679 1447 834 346 70 0 50 199 562 735 986 937 716 491 347 413 321 27 0 0 0 0 0 0 0 0
0 0 0 0 0 0 0 0 0 0 0 0 0 34 152 467 315 442 532 668 775 1111 1074 1307 1224 1046 644 425 335 268 149 152 522 771 546 487 560 400 322 220 33 0 0 0 0 0 0 0 0
0 0 0 0 0 0 0 0 0 0 0 0 7 30 200 280 283 304 239 342 435 763 978 882 775 983 825 460 396 264 218 298 324 386 277 290 322 365 315 253 20 0 0 0 0 0 0 0 0
0 0 0 0 0 0 0 0 0 0 0 0 3 0 188 285 317 275 281 248 165 175 201 509 618 669 566 519 392 262 244 201 162 163 230 270 170 94 261 236 0 0 0 0 0 0 0 0 0
0 0 0 0 0 0 0 0 0 0 0 0 0 1 86 372 245 107 106 159 110 63 178 349 373 420 242 412 256 210 177 124 20 19 37 73 80 105 172 156 0 0 0 0 0 0 2 0 0
0 0 0 0 0 0 0 0 0 0 0 0 0 235 181 294 194 17 48 30 45 83 89 25 0 70 59 9 92 156 53 14 1 3 0 0 36 65 192 161 13 0 0 0 0 8 1 0 0
0 0 0 0 0 0 0 0 0 0 0 0 0 191 301 341 91 0 61 43 48 64 25 2 1 0 6 56 11 9 31 4 11 1 0 11 40 93 150 89 112 18 36 13 3 15 0 0 0
0 0 0 0 0 0 0 0 0 0 0 0 1 170 250 244 59 0 20 26 1 47 10 4 1 1 1 2 2 1 2 1 11 5 28 39 68 140 109 173 166 112 97 90 46 1 0 0 0
0 0 0 0 0 0 0 0 0 0 0 0 47 89 214 243 109 0 0 5 2 3 8 6 2 4 1 2 6 0 4 3 1 0 17 21 130 156 172 146 114 100 131 127 48 3 0 0 0
0 0 0 0 0 0 0 0 0 0 0 0 38 79 241 223 190 6 0 0 6 0 3 3 3 1 1 2 5 17 2 7 3 0 21 50 125 131 150 119 115 158 119 88 62 17 0 2 0
0 0 0 0 0 0 0 0 0 1 0 0 24 101 276 267 148 10 0 0 3 3 6 2 3 2 2 4 6 3 4 4 20 5 42 88 113 131 101 105 127 110 70 49 55 30 37 41 18
0 0 0 0 0 0 0 0 0 0 1 0 24 39 226 341 196 29 0 0 10 1 2 2 1 1 2 4 5 2 4 2 15 7 31 72 109 102 106 79 99 136 120 101 103 95 110 64 46
0 0 0 0 0 0 0 0 0 0 0 0 6 31 79 344 177 62 0 0 3 3 2 3 2 3 1 6 5 7 0 0 0 0 30 84 83 77 39 41 47 67 157 193 168 148 161 143 117
0 0 0 0 0 0 0 0 0 0 0 0 0 0 11 174 201 107 2 0 0 5 5 4 4 3 0 5 5 8 10 14 7 12 16 50 73 82 53 70 104 110 154 229 222 253 211 127 180
0 0 0 0 0 0 0 0 0 0 0 0 0 0 0 49 202 161 27 0 0 4 4 7 4 3 2 4 5 2 5 8 0 0 6 18 73 58 77 128 98 152 163 191 233 261 249 109 75
0 0 0 0 0 0 0 0 0 0 0 0 0 0 0 4 141 174 80 6 0 0 3 5 3 2 4 5 4 0 0 2 1 0 6 26 36 80 54 84 62 38 181 202 234 199 194 174 40
0 0 0 0 0 0 0 0 0 0 0 0 0 0 0 19 87 160 105 30 0 0 7 4 2 4 4 6 5 0 0 2 0 14 8 12 24 62 67 39 16 57 112 194 100 82 70 58 82
0 0 0 0 0 0 0 0 0 0 0 0 0 0 0 13 97 136 79 62 0 0 1 6 6 2 3 3 1 7 3 0 0 0 12 8 2 27 67 35 7 1 8 32 54 48 34 52 45
0 0 0 2 0 0 0 0 0 0 0 0 0 0 0 1 114 154 88 55 8 0 0 1 4 5 4 2 2 4 3 1 0 0 10 0 0 0 25 19 1 2 4 30 22 41 25 35 53
0 0 0 0 0 9 6 0 0 0 0 0 0 0 0 0 63 154 138 80 35 0 0 0 0 1 5 6 3 1 7 1 9 7 3 4 0 0 1 5 12 10 17 30 31 49 58 31 40
0 0 0 0 1 7 18 31 11 0 0 0 0 10 2 0 47 119 191 142 93 18 0 0 0 0 0 6 5 1 3 3 5 6 5 2 0 0 1 4 9 9 3 15 26 21 51 33 42
0 0 0 0 1 4 15 39 10 0 0 0 7 0 0 51 61 120 178 252 155 94 15 2 0 0 0 0 4 7 7 4 5 7 10 5 4 0 0 0 1 1 2 22 33 29 34 34 44
0 0 5 3 0 0 6 15 0 0 0 0 1 0 0 0 88 118 209 265 289 165 82 22 12 0 0 0 0 2 4 6 7 1 6 9 11 16 0 13 10 11 10 14 16 28 28 19 23

GFSSGP_con_mlcape_072.txt.gz
CAPE
0 0 0 0 0 0 0 0 0 0 0 0 0 0 0 0 0 96 1171 1357 1280 2023 1594 1218 1396 1772 1441 1191 1200 1245 1141 1044 862 771 665 677 568 460 645 654 673 462 437 394 319 251 143 83 25
0 0 0 0 0 0 0 0 0 0 0 0 0 0 0 0 43 432 1182 1502 1510 1638 1751 1450 1297 1712 1739 1379 1137 1231 1265 1189 1029 914 710 672 603 726 743 650 514 381 349 246 94 104 66 17 3
0 0 0 0 0 0 0 0 0 0 0 0 0 0 0 0 60 388 1245 1625 1772 1564 1634 1767 1163 1500 1901 1600 1222 1101 1188 1180 1091 960 912 761 831 837 714 494 332 158 232 144 85 32 14 0 0
0 0 0 0 0 0 0 0 0 0 0 0 0 0 1 216 113 505 1165 1515 1736 1745 1621 1507 1315 1411 1843 1679 1334 1066 1120 1117 1082 918 1043 1035 941 841 593 370 148 110 89 89 43 5 0 0 0
0 0 0 0 0 0 0 0 0 0 0 0 0 0 6 677 783 710 1025 1261 1608 1829 1669 1604 1311 1276 1597 1632 1292 711 894 919 888 1111 1179 1102 856 612 436 266 96 34 48 57 9 2 0 0 0
0 0 0 0 0 0 0 0 0 0 0 0 0 0 24 772 566 920 922 1138 1470 1796 2037 1728 1292 1199 1030 1047 612 159 14 135 766 973 1129 1018 703 455 325 226 119 94 25 9 5 0 0 0 0
0 0 0 0 0 0 0 0 0 0 0 0 0 0 0 160 573 674 650 962 1426 1572 1962 1740 1358 744 765 556 110 8 0 18 230 799 988 745 515 371 303 151 98 41 0 0 1 0 0 0 0
0 0 0 0 0 0 0 0 0 0 0 0 0 0 8 651 597 645 722 804 1049 1423 1494 1591 1449 1095 329 118 0 0 0 3 42 556 699 535 427 334 258 106 44 3 0 2 0 0 0 0 0
0 0 0 0 0 0 0 0 0 0 0 0 0 0 7 544 391 441 585 781 854 847 1218 1316 1199 1092 650 125 0 0 0 0 6 630 511 388 397 396 161 59 3 0 0 0 0 0 0 0 0
0 0 0 0 0 0 0 0 0 0 0 0 0 7 89 196 208 302 380 353 554 446 934 989 899 799 629 384 41 8 1 0 28 459 370 392 375 430 208 55 11 0 0 0 0 0 0 0 0
0 0 0 0 0 0 0 0 0 0 0 0 0 1 13 283 239 350 261 195 235 255 319 275 550 551 564 354 210 178 19 0 5 217 178 286 406 204 103 5 0 0 0 0 0 0 0 0 0
0 0 0 0 0 0 0 0 0 0 0 0 0 0 0 19 304 231 187 38 142 124 142 364 365 496 480 384 213 304 176 120 165 103 194 170 77 113 65 0 0 0 0 0 0 0 0 0 0
0 0 0 0 0 0 0 0 0 0 0 0 0 0 14 42 356 183 7 96 4 116 162 137 53 256 298 305 211 224 167 121 77 38 30 34 32 42 41 0 0 0 0 0 0 0 0 0 0
0 0 0 0 0 0 0 0 0 0 0 0 0 1 71 156 324 125 26 82 78 99 64 0 1 0 37 75 130 95 44 11 5 0 4 5 31 0 7 12 0 4 0 1 0 0 0 0 0
0 0 0 0 0 0 0 0 0 0 0 0 0 0 21 208 278 87 0 146 96 101 10 0 0 3 3 23 21 57 7 2 2 0 0 0 0 0 6 76 17 46 12 8 0 0 0 0 0
0 0 0 0 0 0 0 0 0 0 0 0 0 0 25 156 242 92 6 65 5 43 2 0 1 4 0 18 9 2 2 2 2 0 0 0 0 0 6 76 100 91 60 92 27 0 0 0 0
0 0 0 0 0 0 0 0 0 0 0 0 0 11 16 113 227 106 3 2 0 2 2 0 0 2 2 3 1 5 2 2 2 3 0 0 0 4 45 105 143 172 101 145 7 0 0 0 0
0 0 0 0 0 0 0 0 0 0 0 0 0 2 41 131 171 156 5 0 0 4 1 0 0 3 3 7 1 2 2 2 1 3 0 0 0 13 42 62 66 21 17 104 53 18 6 0 0
0 0 0 0 0 0 0 0 0 0 0 4 0 0 47 150 212 129 0 0 0 7 2 2 0 0 2 2 2 2 3 2 1 1 1 0 2 47 110 99 139 118 105 85 79 74 61 63 38
0 0 0 0 0 0 0 0 0 0 0 1 4 2 15 167 202 103 10 0 0 2 2 1 1 1 0 3 1 1 3 3 1 0 0 4 28 67 64 71 112 108 88 55 81 81 77 67 48
0 0 0 0 0 0 0 0 0 0 0 0 1 0 14 119 177 96 29 0 0 1 4 0 1 2 1 3 2 2 1 1 2 0 2 8 25 31 49 55 77 91 89 70 74 71 88 84 84
0 0 0 0 0 0 0 0 0 0 0 0 0 0 0 27 188 131 40 3 0 1 2 3 1 1 0 9 1 0 1 1 0 0 0 0 14 46 64 60 70 33 83 153 140 130 121 120 47
0 0 0 0 0 0 0 0 0 0 0 0 0 0 0 0 167 120 56 8 0 0 1 2 0 1 0 3 1 0 2 0 0 0 0 1 12 18 39 54 104 85 94 138 143 122 114 78 46
0 0 0 0 0 0 0 0 0 0 0 0 1 0 0 0 101 140 95 9 0 0 0 2 5 3 0 2 4 1 0 1 1 0 0 0 0 35 20 32 88 81 81 110 86 76 49 50 27
0 0 0 0 0 0 0 0 0 0 0 0 0 0 0 0 19 109 100 21 1 1 0 5 2 3 7 1 2 2 1 0 0 0 0 0 0 1 26 16 50 30 57 120 113 70 51 27 10
0 0 0 3 0 0 0 0 0 0 0 0 0 0 2 0 10 91 102 35 0 25 0 0 2 4 6 7 3 1 1 0 2 0 0 0 0 0 1 10 7 16 11 1 4 20 14 18 10
0 0 0 0 0 1 0 0 2 0 0 0 0 0 0 0 9 103 109 58 13 16 35 5 0 1 2 1 2 2 1 6 4 0 0 0 0 0 0 11 15 0 0 0 0 3 2 10 13
0 0 0 1 0 0 66 2 8 0 0 0 0 2 2 5 0 110 178 61 45 10 22 42 2 0 0 1 1 1 3 3 0 0 0 23 7 0 0 2 24 8 3 3 0 1 1 15 17
0 0 0 0 0 4 3 37 0 0 0 0 0 0 0 1 0 128 215 179 67 23 12 11 24 4 8 0 0 0 1 4 8 0 1 0 18 1 0 0 2 2 3 0 7 8 13 14 12
1 0 0 0 0 0 0 13 0 0 0 0 0 0 0 0 49 170 204 330 165 74 17 8 8 2 12 13 0 0 1 1 4 2 2 2 0 0 0 0 0 0 0 3 2 4 5 4 1

GFSSGP_con_mlcape_075.txt.gz
CAPE
0 0 0 0 0 0 0 0 0 0 0 0 0 0 0 0 0 49 1192 970 1608 1558 1351 1651 1410 1212 1219 1173 1251 1230 993 925 795 682 508 471 404 365 327 654 774 690 649 436 163 95 93 188 68
0 0 0 0 0 0 0 0 0 0 0 0 0 0 0 0 600 1257 1283 1195 1612 1733 1337 1353 1766 1474 1279 1256 1201 1249 1177 1070 954 759 533 487 523 584 724 757 725 738 648 392 207 169 160 75 49
0 0 0 0 0 0 0 0 0 0 0 0 0 0 0 10 312 1019 1344 1400 1508 1728 1481 1288 1571 1793 1446 1259 1251 1251 1250 1089 986 773 649 626 732 805 706 634 688 649 449 290 198 117 73 35 71
0 0 0 0 0 0 0 0 0 0 0 0 0 0 0 15 106 1038 1355 1334 1610 1453 1603 1569 1277 1800 1819 1437 1238 1188 1154 1015 918 778 687 758 855 892 604 457 556 522 375 268 111 41 0 0 16
0 0 0 0 0 0 0 0 0 0 0 0 0 0 0 569 721 919 1072 1462 1097 1609 1574 1552 1319 1425 1741 1717 1367 1193 1067 741 1026 784 759 746 882 814 484 314 364 358 295 70 32 2 0 0 0
0 0 0 0 0 0 0 0 0 0 0 0 0 0 61 464 332 788 954 1154 1452 1705 1664 1497 1381 1436 1429 1527 1287 970 75 0 0 140 567 1079 945 610 323 198 227 215 83 14 2 0 0 0 0
0 0 0 0 0 0 0 0 0 0 0 0 0 0 259 387 601 569 687 1067 1204 1310 1857 1521 1326 1244 1218 1200 966 403 86 22 0 0 297 474 699 454 274 179 153 91 11 1 0 0 0 0 0
0 0 0 0 0 0 0 0 0 0 0 0 0 0 23 297 427 336 514 640 1241 1259 1165 1744 1238 863 651 381 275 106 74 7 23 2 56 248 428 383 347 229 59 11 12 0 0 0 0 0 0
0 0 0 0 0 0 0 0 0 0 0 0 0 0 1 382 384 315 456 616 623 1141 1013 887 1273 740 346 93 15 0 5 1 0 0 0 241 314 257 179 133 62 14 0 0 0 0 0 0 0
0 0 0 0 0 0 0 0 0 0 0 0 0 10 293 354 128 110 307 541 682 690 569 914 870 686 213 63 11 0 0 0 1 1 0 213 195 101 91 33 8 0 0 0 0 0 0 0 0
0 0 0 0 0 0 0 0 0 0 0 0 0 2 34 25 42 99 226 225 313 346 549 572 317 277 302 43 0 0 0 0 2 7 2 136 106 58 4 1 0 0 0 0 0 0 0 0 0
0 0 0 0 0 0 0 0 0 0 0 0 0 0 29 51 80 145 205 144 133 150 106 273 239 170 195 176 34 0 0 0 1 25 59 113 29 4 1 1 0 0 0 0 0 0 0 0 0
0 0 0 0 0 0 0 0 0 0 0 0 0 0 0 3 70 124 97 52 66 143 180 51 62 205 318 245 111 57 12 0 0 100 95 76 23 1 0 0 0 0 0 0 0 0 0 0 0
0 0 0 0 0 0 0 0 0 0 0 0 0 0 0 0 65 136 84 26 7 116 46 0 0 1 91 104 81 142 94 30 12 43 28 61 20 0 0 0 0 0 0 0 0 0 0 0 0
0 0 0 0 0 0 0 0 0 0 0 0 0 0 4 0 109 110 26 36 55 54 0 0 0 0 1 1 34 37 33 26 10 24 6 22 2 0 0 0 0 0 0 0 0 0 0 0 0
0 0 0 0 0 0 0 0 0 0 0 0 0 0 20 15 149 97 70 77 105 17 0 0 0 1 1 1 2 8 13 5 3 1 0 0 0 0 0 0 0 0 0 0 0 1 0 0 0
0 0 0 0 0 0 0 0 0 0 0 0 0 0 0 34 65 54 70 59 18 2 0 0 0 1 0 1 8 6 2 1 1 0 0 0 0 0 0 0 0 18 1 7 0 11 0 0 0
0 0 0 0 0 0 0 0 0 0 0 0 0 0 0 7 36 29 21 21 9 0 1 0 0 1 0 0 1 2 2 2 2 1 0 0 0 0 0 6 19 60 27 66 29 14 0 0 0
0 0 0 0 0 0 0 0 0 0 0 0 0 0 0 5 23 3 0 0 0 0 0 0 1 1 0 1 1 1 1 2 2 0 0 0 0 0 0 14 28 60 79 54 20 5 0 0 0
0 0 0 0 0 0 0 0 0 0 0 0 0 0 0 19 7 7 0 0 0 0 2 3 0 2 2 1 1 1 2 1 2 2 0 0 0 0 0 3 1 42 49 56 17 16 5 1 0
0 0 0 0 0 0 0 0 0 0 0 0 0 0 0 30 10 3 0 0 0 0 2 0 0 1 3 0 2 2 2 1 1 1 1 0 0 0 0 0 1 13 18 24 26 26 27 35 8
0 0 0 0 0 0 0 0 0 0 0 0 0 0 0 37 12 5 0 0 0 0 1 1 0 0 0 1 1 0 2 2 1 0 0 0 0 0 2 9 20 10 10 11 47 51 51 33 6
0 0 0 0 1 0 0 0 0 0 0 0 0 0 0 29 16 22 0 0 0 0 0 0 1 2 0 1 1 1 0 1 0 0 0 0 0 1 1 0 0 31 47 54 58 70 45 53 45
3 0 3 0 0 0 0 0 0 0 0 0 0 0 0 13 11 5 0 0 0 0 0 1 1 0 1 5 0 0 0 0 0 0 0 0 0 1 0 2 7 14 37 38 41 74 105 97 40
0 0 0 0 0 0 0 0 0 0 0 0 0 0 0 4 30 5 0 0 0 0 1 1 0 1 1 3 1 0 0 0 0 0 0 0 0 0 2 11 12 14 11 38 27 98 114 90 50
0 0 0 0 0 0 0 0 0 0 0 0 0 0 0 1 23 8 0 0 0 0 0 1 2 1 0 2 2 1 0 0 0 0 0 0 0 0 6 1 22 38 38 36 68 50 71 53 19
0 0 0 0 0 0 0 0 0 0 0 0 0 0 0 0 14 16 0 0 0 0 0 0 0 0 1 1 2 1 5 0 0 0 0 0 0 0 0 3 5 17 37 36 31 51 59 56 34
4 0 0 0 0 0 0 1 0 0 0 0 0 0 0 0 13 17 0 0 0 0 0 0 0 0 0 2 3 2 0 2 0 0 0 0 0 0 0 4 0 1 11 25 43 38 36 47 37
3 1 1 1 0 0 1 6 1 0 0 0 0 0 0 0 16 44 14 0 0 0 0 0 0 0 0 0 2 2 1 0 0 0 0 0 0 0 0 0 1 2 1 4 13 9 11 14 10
0 4 4 0 0 0 0 0 0 0 0 0 0 0 0 26 46 65 52 1 0 0 0 0 0 0 0 0 0 0 2 2 1 0 0 0 0 0 0 0 0 0 0 0 0 0 0 0 0

GFSSGP_con_mlcape_078.txt.gz
CAPE
0 0 0 0 0 0 0 0 0 0 0 0 0 0 0 0 0 0 804 994 1296 1345 1463 1302 1305 1322 1196 1093 914 931 1037 956 794 700 735 664 610 441 306 411 666 604 618 504 373 452 532 387 239
0 0 0 0 0 0 0 0 0 0 0 0 0 0 0 26 406 735 979 1027 1447 1386 1528 1399 1312 1396 1376 1278 1164 1032 1032 989 831 852 710 607 500 619 786 723 591 570 582 358 283 236 340 253 109
0 0 0 0 0 0 0 0 0 0 0 0 0 0 0 7 616 650 964 1240 1670 1577 1584 1530 1378 1437 1530 1419 1303 1151 1089 904 738 823 752 556 678 958 909 880 880 636 426 157 183 279 312 130 69
0 0 0 0 0 0 0 0 0 0 0 0 0 0 0 24 390 618 1055 1346 1560 1584 1489 1618 1533 1498 1500 1434 1401 1248 1188 922 430 587 738 609 797 1005 871 906 808 705 495 345 275 292 128 91 61
0 0 0 0 0 0 0 0 0 0 0 0 0 0 0 447 537 947 1005 1304 1294 1512 1474 1549 1630 1644 1573 1481 1471 1460 1230 1161 1080 806 1002 936 996 966 808 808 726 635 425 348 316 181 81 11 0
0 0 0 0 0 0 0 0 0 0 0 0 0 0 23 671 607 957 1286 1192 1401 1384 1529 1465 1654 1686 1752 1617 1399 937 426 311 68 0 0 455 917 912 811 677 601 500 337 261 147 30 3 0 0
0 0 0 0 0 0 0 0 0 0 0 0 0 0 182 433 501 775 811 1055 1242 1423 1489 1433 1458 1718 1771 1698 1325 333 50 26 1 0 0 13 262 329 718 672 501 266 149 105 28 0 0 0 0
0 0 0 0 0 0 0 0 0 0 0 0 0 0 11 250 547 419 569 792 776 1146 1465 1421 1301 1313 1397 1460 926 282 250 250 13 22 0 0 134 162 373 531 321 97 55 27 0 0 0 0 0
0 0 0 0 0 0 0 0 0 0 0 0 0 0 0 241 341 283 353 517 824 879 960 1394 1038 900 737 703 435 181 149 102 14 1 0 37 63 173 273 330 212 73 32 5 0 0 0 0 0
0 0 0 0 0 0 0 0 0 0 0 0 0 2 19 266 297 167 36 212 568 762 738 604 949 781 409 146 118 73 93 45 0 0 0 41 128 162 216 212 109 31 37 20 0 0 0 0 0
0 0 0 0 0 0 0 0 0 0 0 0 0 12 50 200 162 27 166 270 355 528 530 713 846 667 298 43 0 9 5 9 0 0 0 63 63 131 178 61 16 0 1 0 0 0 0 0 0
0 0 0 0 0 0 0 0 0 0 0 0 0 20 47 35 9 30 79 139 327 354 442 496 285 300 153 2 0 1 0 0 0 2 0 15 78 69 21 1 1 0 0 0 0 0 0 0 0
0 0 0 0 0 0 0 0 0 0 0 0 0 14 15 12 18 49 56 45 86 133 129 121 182 182 204 20 2 3 0 0 0 2 0 0 24 5 3 1 0 0 0 0 0 0 0 0 0
0 0 0 0 0 0 0 0 0 0 0 0 0 0 3 33 40 36 30 64 82 120 15 19 33 130 198 136 3 13 0 0 0 72 4 15 5 1 1 0 0 0 0 0 0 0 0 0 0
0 0 0 0 0 0 0 0 0 0 0 0 0 0 0 1 33 37 31 59 53 47 0 0 0 0 24 116 104 62 12 7 11 98 67 14 1 0 0 0 0 0 0 0 0 0 0 0 0
0 0 0 0 0 0 0 0 0 0 0 0 0 0 0 0 37 36 41 69 57 22 0 0 0 0 0 0 74 97 44 7 20 66 67 11 0 0 0 0 0 0 0 0 0 0 0 0 0
0 0 0 0 0 0 0 0 0 0 0 0 0 0 0 0 34 40 62 91 69 33 0 0 0 0 0 1 4 11 36 6 8 37 16 1 0 0 0 0 0 0 0 0 0 0 0 0 0
0 0 0 0 0 0 0 0 0 0 0 0 0 0 0 0 15 79 71 74 49 1 0 0 0 0 2 2 6 8 23 5 2 3 12 0 0 0 0 0 0 0 0 0 0 0 0 0 0
0 0 0 0 0 0 0 0 0 0 0 0 0 0 0 0 25 72 54 42 9 0 0 0 0 1 1 2 3 5 2 1 2 1 0 0 0 0 0 0 0 0 0 0 0 0 0 0 0
0 0 0 0 0 0 0 0 0 0 0 0 0 0 0 0 12 61 60 33 2 0 0 0 0 1 0 2 0 1 1 2 1 1 0 0 0 0 0 0 0 4 0 0 0 0 0 0 0
0 0 0 0 0 0 0 0 0 0 0 0 0 0 0 0 6 60 66 27 0 0 0 0 0 0 2 0 0 1 0 0 1 1 1 0 0 0 0 0 3 23 3 2 0 2 2 0 0
0 0 0 0 0 0 0 0 0 0 0 0 0 0 0 0 0 62 59 14 3 0 0 0 0 0 0 1 1 1 1 1 1 1 0 0 0 0 0 2 14 20 38 21 14 0 1 0 1
0 0 0 0 0 1 0 0 0 0 0 0 0 0 0 0 1 49 66 15 0 0 0 0 0 0 0 1 0 1 0 0 0 1 1 0 0 0 0 0 8 17 29 42 35 27 26 13 0
0 0 0 0 4 0 0 0 0 0 0 0 0 0 0 0 1 54 27 0 0 0 0 0 0 0 0 0 0 0 0 1 0 0 1 1 0 0 0 2 0 6 11 6 4 17 21 47 45
0 0 0 0 1 0 0 0 0 0 0 0 0 0 0 0 2 22 37 0 0 0 0 0 1 1 0 0 0 0 0 0 1 0 0 0 0 0 0 0 0 8 16 0 0 20 54 53 52
0 0 0 0 0 0 0 0 0 0 0 0 0 0 0 0 0 30 46 1 0 0 0 0 2 3 2 4 0 0 0 0 0 0 0 0 0 0 0 2 0 0 0 0 12 33 61 73 68
2 9 0 0 0 0 0 0 0 0 0 0 0 0 0 0 8 47 9 0 0 0 0 0 0 0 0 4 2 0 0 0 0 0 0 0 0 0 0 1 0 0 1 13 43 56 40 54 66
0 14 0 0 0 0 0 0 0 0 0 0 0 0 0 8 21 38 22 0 0 0 0 0 0 1 1 3 2 1 0 0 0 0 0 0 0 0 0 0 2 0 0 10 33 51 53 37 37
2 3 3 1 0 1 0 17 0 0 0 0 0 0 0 0 6 18 10 0 0 0 0 0 0 0 1 1 3 2 2 1 0 0 0 0 0 0 0 0 0 3 3 5 19 32 25 25 25
0 1 6 0 0 0 0 0 0 0 0 0 0 0 0 0 1 18 6 0 0 0 0 0 0 0 0 0 0 1 2 2 1 0 0 0 0 0 0 0 0 0 1 2 6 9 5 4 12

GFSSGP_con_mlcape_081.txt.gz
CAPE
0 0 0 0 0 0 0 0 0 0 0 0 0 0 0 0 0 0 39 434 883 974 1049 1147 1215 1137 1158 1117 1142 1056 906 1163 1291 1299 1260 1155 1001 873 795 883 951 877 763 872 771 677 633 504 493
0 0 0 0 0 0 0 0 0 0 0 0 0 0 0 0 81 253 406 984 978 1100 1059 1151 1281 1251 1192 1198 1244 1333 1161 999 1142 1193 1141 1032 883 803 776 911 930 889 881 824 752 646 538 494 390
0 0 0 0 0 0 0 0 0 0 0 0 0 0 0 0 403 366 752 786 1195 1275 1157 1164 1272 1359 1359 1278 1281 1270 1278 1146 1057 984 974 925 825 781 805 845 813 761 761 780 723 623 472 333 255
0 0 0 0 0 0 0 0 0 0 0 0 0 0 0 92 220 616 834 838 1186 1424 1407 1302 1310 1428 1492 1471 1308 1342 1263 1154 1113 1023 909 821 895 691 673 823 772 790 704 343 496 504 311 169 89
0 0 0 0 0 0 0 0 0 0 0 0 0 0 0 109 523 875 895 1244 1127 1351 1467 1519 1387 1487 1622 1670 1446 1343 1414 1219 1111 610 690 913 954 1097 861 756 723 543 229 324 521 353 232 60 15
0 0 0 0 0 0 0 0 0 0 0 0 0 0 0 322 610 891 992 1001 1324 1182 1312 1510 1517 1522 1574 1620 1484 1200 985 691 355 179 316 385 406 604 616 730 804 559 440 461 314 253 73 26 2
0 0 0 0 0 0 0 0 0 0 0 0 0 0 12 449 748 996 933 1214 1247 1289 1281 1426 1684 1711 1587 1523 1392 1064 511 171 25 0 4 149 21 179 321 646 529 550 483 286 208 99 15 11 0
0 0 0 0 0 0 0 0 0 0 0 0 0 0 4 359 740 879 1081 1108 1241 1197 1313 1387 1561 1823 1771 1503 1013 685 367 121 15 0 3 0 3 53 122 276 334 402 303 183 102 6 5 2 0
0 0 0 0 0 0 0 0 0 0 0 0 0 3 9 283 783 739 740 621 726 1029 1201 1275 1302 1121 1268 1352 789 602 304 94 41 13 6 0 0 39 153 138 259 326 259 111 18 0 0 0 0
0 0 0 0 0 0 0 0 0 0 0 0 0 0 19 277 538 450 339 273 423 683 1000 1156 943 721 717 776 785 320 191 171 65 7 0 0 0 32 109 105 215 240 173 34 0 0 0 0 0
0 0 0 0 0 0 0 0 0 0 0 0 0 0 12 130 408 377 241 223 311 526 548 684 826 633 526 437 376 211 130 74 32 21 3 11 13 58 29 108 143 159 124 0 0 0 0 0 0
0 0 0 0 0 0 0 0 0 0 0 0 0 0 31 81 152 204 257 123 250 497 564 523 610 523 412 114 85 52 33 24 26 1 0 8 51 100 104 94 96 56 25 0 0 0 0 0 0
0 0 0 0 0 0 0 0 0 0 0 0 0 0 0 47 93 196 183 146 251 323 367 380 418 455 259 94 1 1 1 6 25 1 0 58 21 47 125 66 17 1 0 0 0 0 0 0 0
0 0 0 0 0 0 0 0 0 0 0 0 0 0 0 34 57 80 86 110 197 240 184 152 157 137 114 7 2 1 0 0 11 1 0 39 50 104 71 8 1 0 0 0 0 0 0 0 0
0 0 0 0 0 0 0 0 0 0 0 0 0 0 0 7 34 50 74 102 156 133 60 28 23 94 154 65 2 2 0 0 0 2 0 6 105 73 25 1 0 0 0 0 0 0 0 0 0
0 0 0 0 0 0 0 0 0 0 0 0 0 0 0 0 16 15 60 79 84 63 38 0 0 4 78 108 6 3 0 1 0 18 20 3 58 19 3 1 0 0 0 0 0 0 0 0 0
0 0 0 0 0 0 0 0 0 0 0 0 0 0 0 0 0 27 68 58 78 37 0 0 0 0 0 1 40 43 3 5 15 69 16 3 2 1 1 0 0 0 0 0 0 0 0 0 0
0 0 0 0 0 0 0 0 0 0 0 0 0 0 0 0 0 5 57 30 24 10 0 0 0 0 0 2 6 39 26 4 16 61 29 1 1 0 0 0 0 0 0 0 0 0 0 0 0
0 0 0 0 0 0 0 0 0 0 0 0 0 0 0 0 0 0 69 35 13 0 0 0 0 1 3 1 3 3 20 11 7 27 23 4 0 0 0 0 0 0 0 0 0 0 0 0 0
0 0 0 0 0 0 0 0 0 0 0 0 0 0 0 0 0 0 60 56 24 16 0 0 0 1 1 0 0 1 10 1 1 1 2 3 0 0 0 0 0 0 0 0 0 0 0 0 0
0 0 0 0 0 0 0 0 0 0 0 0 0 0 0 0 0 4 56 73 26 2 0 0 0 0 0 0 0 0 0 1 1 1 1 5 1 0 0 0 0 0 0 0 0 0 0 0 0
0 0 0 0 0 0 0 0 0 0 0 0 0 0 0 0 0 11 69 70 36 0 0 0 0 0 0 0 0 1 0 1 0 1 1 2 0 0 0 0 0 0 0 6 1 2 0 0 0
0 0 0 0 0 0 0 0 0 0 0 0 0 0 0 0 0 12 83 61 25 0 0 0 0 1 2 0 0 0 1 0 1 1 1 1 1 0 0 0 2 7 0 13 17 17 24 7 1
0 0 0 0 0 0 0 0 0 0 0 0 0 0 0 0 0 15 44 26 16 0 0 0 0 0 1 0 0 0 1 0 1 0 1 1 0 0 0 0 8 20 29 11 13 29 34 15 5
0 2 0 0 0 0 0 0 0 0 0 0 0 0 0 0 0 0 24 16 16 0 0 0 0 0 0 0 0 0 0 0 0 0 0 1 2 2 0 0 0 4 16 29 35 43 48 46 9
0 0 0 0 0 0 0 0 0 0 0 0 0 0 0 0 0 0 8 11 12 0 0 0 0 0 1 0 2 0 0 0 0 0 0 0 0 0 0 0 0 0 13 10 17 16 27 32 14
2 4 0 0 0 1 0 0 0 0 0 0 0 0 0 0 0 0 3 13 1 0 0 0 0 0 0 0 0 2 0 0 1 0 0 0 0 0 0 0 0 0 0 1 11 16 3 0 3
1 7 7 0 0 0 0 0 1 0 0 0 0 0 0 0 0 0 1 10 0 0 0 0 0 0 0 3 0 1 0 0 0 0 0 0 0 0 0 0 0 1 1 3 5 5 1 2 4
2 1 0 1 3 14 0 12 0 0 0 0 0 0 0 0 0 0 5 0 0 0 0 0 0 0 0 0 1 1 0 0 0 0 0 0 0 0 0 0 0 0 1 0 4 7 1 7 13
6 6 8 0 0 0 0 0 0 0 0 0 0 0 0 4 0 0 1 1 0 0 0 0 0 0 0 2 2 3 2 1 0 0 0 0 0 0 0 0 0 0 0 0 2 2 0 7 20

GFSSGP_con_mlcape_084.txt.gz
CAPE
0 0 0 0 0 0 0 0 0 0 0 0 0 0 0 0 0 0 2 546 583 635 856 991 1119 1250 1061 785 890 1188 1533 1681 1599 1435 1300 1280 1257 1147 1030 1124 1098 1173 864 812 852 748 733 880 726
0 0 0 0 0 0 0 0 0 0 0 0 0 0 0 0 0 1 7 574 701 748 808 1018 1217 1248 1156 967 857 1217 1539 1684 1641 1491 1372 1355 1309 1211 1150 1153 1098 1048 1026 1002 973 949 805 762 633
0 0 0 0 0 0 0 0 0 0 0 0 0 0 0 0 35 47 216 474 867 966 896 1038 1311 1296 1314 1204 912 1169 1472 1459 1699 1717 1678 1550 1393 1251 1357 1125 1161 1126 1086 1073 882 867 718 644 505
0 0 0 0 0 0 0 0 0 0 0 0 0 0 0 0 112 389 589 764 859 1154 995 1039 1326 1366 1362 1421 1291 933 1396 1636 1666 1642 1611 1561 1473 1346 1316 1139 1019 902 797 1003 968 829 617 476 366
0 0 0 0 0 0 0 0 0 0 0 0 0 0 0 0 340 623 780 762 706 1248 1116 1130 1313 1472 1335 1412 1400 1349 1100 1321 1479 1490 1213 1203 1000 881 1090 725 550 635 752 900 785 615 481 342 169
0 0 0 0 0 0 0 0 0 0 0 0 0 0 0 20 394 646 909 602 1092 1273 1285 1209 1340 1495 1393 1355 1392 1361 1238 1205 1086 934 634 647 655 452 379 436 508 504 510 812 643 437 308 143 61
0 0 0 0 0 0 0 0 0 0 0 0 0 0 0 0 491 643 818 1082 1318 1328 1349 1340 1430 1562 1466 1409 1336 1207 988 856 699 415 283 333 266 100 213 350 319 336 452 506 414 259 137 72 30
0 0 0 0 0 0 0 0 0 0 0 0 0 0 0 0 528 738 919 963 1149 1289 1271 1348 1500 1564 1578 1525 1142 844 521 436 191 178 204 128 104 184 265 201 248 349 373 404 287 118 109 46 11
0 0 0 0 0 0 0 0 0 0 0 0 0 0 0 0 612 824 740 916 1038 1083 1197 1244 1489 1564 1518 1295 958 654 431 225 142 88 21 4 0 29 42 90 146 146 223 324 87 97 82 23 0
0 0 0 0 0 0 0 0 0 0 0 0 0 0 0 0 369 703 361 409 611 770 960 1250 1397 1451 1311 1074 933 618 294 25 0 1 1 6 16 14 9 78 96 90 134 126 29 20 7 0 0
0 0 0 0 0 0 0 0 0 0 0 0 0 0 0 0 104 462 400 462 315 631 786 1110 1190 1054 856 773 683 398 246 62 3 1 2 0 0 37 14 23 71 55 92 19 1 1 0 0 0
0 0 0 0 0 0 0 0 0 0 0 0 0 0 0 0 1 335 362 288 357 487 754 985 991 661 517 512 519 375 291 83 2 12 4 14 11 4 34 68 40 44 37 0 0 0 0 0 0
0 0 0 0 0 0 0 0 0 0 0 0 0 0 0 0 0 81 369 231 319 413 559 662 735 617 437 346 298 215 70 82 1 0 3 15 2 5 17 85 51 51 0 0 0 0 0 0 0
0 0 0 0 0 0 0 0 0 0 0 0 0 0 0 0 0 0 186 257 285 237 512 527 482 420 258 221 150 73 11 4 1 1 6 49 21 45 50 91 49 3 0 0 0 0 0 0 0
0 0 0 0 0 0 0 0 0 0 0 0 0 0 0 0 0 0 34 201 250 167 244 378 341 302 193 105 2 0 0 0 1 2 0 39 34 33 53 48 13 1 0 0 0 0 0 0 0
0 0 0 0 0 0 0 0 0 0 0 0 0 0 0 0 0 0 37 142 122 136 190 182 147 108 82 12 1 0 1 1 4 2 0 25 32 41 43 38 45 0 0 0 0 0 0 0 0
0 0 0 0 0 0 0 0 0 0 0 0 0 0 0 0 0 0 0 91 113 90 122 103 29 58 100 6 3 3 1 2 1 3 7 10 52 63 55 32 4 0 0 0 0 0 0 0 0
0 0 0 0 0 0 0 0 0 0 0 0 0 0 0 0 0 0 0 24 51 49 38 15 1 1 2 13 30 9 3 3 0 2 8 1 6 65 53 1 0 0 0 0 0 0 0 0 0
0 0 0 0 0 0 0 0 0 0 0 0 0 0 0 0 0 0 0 0 23 3 8 0 0 0 0 2 1 11 4 4 2 4 53 19 3 30 1 0 0 0 0 0 0 0 0 0 0
0 0 0 0 0 0 0 0 0 0 0 0 0 0 0 0 0 0 0 0 26 10 6 0 0 0 1 0 2 3 5 14 16 7 3 1 1 0 0 0 0 0 0 0 0 0 0 0 0
0 0 0 0 0 0 0 0 0 0 0 0 0 0 0 0 0 0 0 2 25 10 6 0 0 0 1 2 2 2 7 2 10 24 4 1 0 0 0 0 0 0 0 0 0 0 0 0 0
0 0 0 0 0 0 0 0 0 0 0 0 0 0 0 0 0 0 0 15 29 11 2 0 0 0 1 1 1 0 4 11 1 0 2 2 0 0 0 0 0 0 0 0 0 0 0 0 0
0 0 0 0 0 0 0 0 0 0 0 0 0 0 0 0 0 0 0 32 16 3 0 0 0 0 1 1 2 2 1 0 0 1 1 2 3 0 0 0 0 0 0 0 0 4 2 0 0
0 0 0 0 0 0 0 0 0 0 0 0 0 0 0 0 0 0 0 28 14 1 0 0 0 0 1 0 0 1 1 0 1 1 1 2 2 3 0 0 0 0 0 0 2 21 31 8 4
0 0 0 0 0 0 0 0 0 0 0 0 0 0 0 0 0 0 0 10 6 3 0 0 0 1 2 0 0 0 0 0 0 0 2 1 1 2 0 0 0 0 0 13 30 43 50 38 18
0 0 0 0 0 0 0 0 0 0 0 0 0 0 0 0 0 0 0 14 5 1 0 0 0 0 1 1 0 0 1 0 0 1 1 1 2 1 1 2 0 0 2 3 37 74 64 62 48
1 0 0 0 1 1 0 0 0 0 0 0 0 0 0 0 0 0 0 11 0 0 0 0 0 0 1 0 0 1 0 0 1 0 0 0 0 0 1 2 0 0 0 0 4 28 22 33 43
0 0 1 0 0 0 0 0 0 0 0 0 0 0 0 0 0 0 0 4 0 0 0 0 0 0 0 0 0 0 1 1 1 0 0 0 0 0 0 0 0 0 0 0 0 3 13 11 27
0 0 0 0 0 1 0 0 5 0 0 0 0 1 0 0 0 0 2 0 1 1 0 0 0 0 0 1 0 0 0 0 0 0 0 0 0 0 0 0 0 0 0 0 2 0 5 8 8
15 6 1 2 0 0 0 0 1 0 0 0 0 0 0 0 0 0 0 1 1 0 0 0 0 0 0 0 0 4 0 0 0 0 0 0 0 0 0 0 0 0 0 0 4 8 9 8 6

GFSSGP_con_mlcape_087.txt.gz
CAPE
0 0 0 0 0 0 0 0 0 0 0 0 0 0 0 0 0 0 1 666 607 626 965 895 816 924 957 911 1037 1335 1694 1687 1605 1507 1375 1351 1377 1362 1393 1369 1351 1320 1271 1260 1199 1208 1185 1065 850
0 0 0 0 0 0 0 0 0 0 0 0 0 0 0 0 0 0 76 705 700 626 995 1066 854 1000 1007 1004 1098 1283 1836 1902 1800 1716 1573 1592 1479 1449 1386 1455 1430 1430 1391 1387 1248 1315 1242 987 867
0 0 0 0 0 0 0 0 0 0 0 0 0 0 0 0 0 0 17 755 587 735 945 1073 904 1074 958 1046 1201 1386 1912 1992 1881 1825 1746 1659 1591 1537 1523 1509 1366 1257 1264 1289 1199 1329 1183 952 752
0 0 0 0 0 0 0 0 0 0 0 0 0 0 0 0 17 259 182 875 636 787 922 952 963 1101 1106 1086 1225 1436 1651 1867 1926 1845 1788 1720 1647 1491 997 1058 1276 1368 1402 1253 1033 1046 969 846 702
0 0 0 0 0 0 0 0 0 0 0 0 0 0 0 0 66 470 593 631 525 901 930 979 1135 1122 1201 1119 1132 1515 1350 1565 1795 1780 1777 1728 1657 1121 884 776 719 937 1130 1042 1033 820 835 695 524
0 0 0 0 0 0 0 0 0 0 0 0 0 0 0 0 192 498 941 752 996 849 1091 1045 1252 1224 1198 1251 1177 1300 1365 1342 1630 1756 1661 1286 1194 901 732 641 574 576 934 1034 859 690 656 517 301
0 0 0 0 0 0 0 0 0 0 0 0 0 0 0 0 271 798 1088 988 1151 1141 933 933 1247 1488 1198 1257 1326 1194 1246 1439 1568 1368 1377 1167 1020 797 604 463 220 421 767 779 628 604 468 291 136
0 0 0 0 0 0 0 0 0 0 0 0 0 0 0 0 227 812 1105 1072 1202 1419 1250 1117 1252 1464 1307 1326 1309 1270 1160 1192 1130 949 829 725 660 523 378 234 162 424 625 641 444 456 294 149 57
0 0 0 0 0 0 0 0 0 0 0 0 0 0 0 0 81 747 823 961 1231 1341 1382 1316 1307 1521 1594 1418 1273 1149 1081 880 745 541 350 256 306 245 248 148 188 242 485 424 306 275 181 58 11
0 0 0 0 0 0 0 0 0 0 0 0 0 0 0 0 0 261 632 526 756 860 1164 1276 1397 1487 1576 1334 992 1023 1029 882 506 321 134 152 166 114 51 36 38 121 232 216 251 166 84 42 31
0 0 0 0 0 0 0 0 0 0 0 0 0 0 0 0 0 15 715 721 709 1041 1037 1189 1308 1466 1319 1142 859 676 593 505 322 74 56 71 26 12 21 56 79 123 98 73 157 133 116 37 27
0 0 0 0 0 0 0 0 0 0 0 0 0 0 0 0 0 0 53 681 748 957 1018 1028 1260 1343 1237 933 753 584 338 187 168 64 0 0 5 5 9 38 48 78 55 54 124 145 24 0 0
0 0 0 0 0 0 0 0 0 0 0 0 0 0 0 0 0 0 0 341 683 765 945 966 1119 1127 1029 858 644 463 317 133 92 10 0 0 0 5 25 57 81 75 7 18 99 15 0 0 0
0 0 0 0 0 0 0 0 0 0 0 0 0 0 0 0 0 0 0 3 200 756 755 998 990 1007 840 604 499 373 279 203 55 8 3 1 1 10 55 102 41 54 0 9 27 17 0 0 0
0 0 0 0 0 0 0 0 0 0 0 0 0 0 0 0 0 0 0 0 0 453 635 783 906 918 762 471 332 216 93 88 14 2 2 3 7 45 54 77 79 16 0 0 22 12 0 0 0
0 0 0 0 0 0 0 0 0 0 0 0 0 0 0 0 0 0 0 0 2 269 500 601 589 578 571 430 231 95 22 1 3 2 2 16 48 87 57 74 48 6 0 0 1 0 0 0 0
0 0 0 0 0 0 0 0 0 0 0 0 0 0 0 0 0 0 0 0 0 134 375 471 498 481 380 334 156 31 1 1 2 11 2 30 49 58 78 27 14 1 0 1 0 0 0 0 0
0 0 0 0 0 0 0 0 0 0 0 0 0 0 0 0 0 0 0 0 0 106 282 373 325 323 327 176 107 20 2 2 2 2 4 29 47 105 92 10 1 2 1 0 0 0 0 0 0
0 0 0 0 0 0 0 0 0 0 0 0 0 0 0 0 0 0 0 0 0 40 183 207 207 158 98 110 85 26 3 6 3 3 13 13 63 66 49 5 1 1 3 0 0 0 0 0 0
0 0 0 0 0 0 0 0 0 0 0 0 0 0 0 0 0 0 0 0 0 0 89 125 162 69 38 62 62 52 16 6 4 3 10 8 32 82 10 1 1 2 3 0 0 0 0 0 0
0 0 0 0 0 0 0 0 0 0 0 0 0 0 0 0 0 0 0 0 0 0 38 75 87 24 2 2 2 4 10 10 13 11 6 13 10 37 2 0 1 1 0 0 0 0 0 0 0
0 0 0 0 0 0 0 0 0 0 0 0 0 0 0 0 0 0 0 0 0 2 2 25 18 7 0 2 3 5 3 9 6 23 0 1 4 3 1 1 0 0 0 0 0 0 0 7 0
0 0 0 0 0 0 0 0 0 0 0 0 0 0 0 0 0 0 0 0 3 1 1 1 2 0 0 0 1 2 2 6 12 2 1 2 2 1 1 0 0 0 0 0 0 0 0 8 15
0 0 0 0 0 0 0 0 0 0 0 0 0 0 0 0 0 0 0 5 2 1 1 1 0 0 1 1 1 2 4 3 3 1 3 2 2 2 0 0 0 0 0 0 0 0 0 0 4
0 0 0 0 0 0 0 0 0 0 0 0 0 0 0 0 0 0 0 0 7 1 3 1 0 1 2 1 1 2 1 2 1 1 2 3 3 2 3 0 0 0 0 0 0 0 0 0 22
0 0 0 0 0 0 0 0 0 0 0 0 0 0 0 0 0 0 0 5 8 0 3 2 0 1 2 1 1 1 1 0 0 0 1 2 2 3 0 0 0 0 0 0 0 0 0 17 32
0 0 0 0 0 0 0 0 0 0 1 0 0 0 0 0 0 0 0 0 0 2 2 1 0 1 2 1 1 2 0 0 0 1 0 1 4 1 2 0 0 0 0 0 0 0 0 3 26
0 2 2 0 0 0 0 0 0 2 0 0 0 0 0 0 0 0 0 0 1 8 2 3 1 1 2 2 0 0 0 0 0 1 1 1 1 2 3 1 0 2 1 0 0 0 0 0 0
1 0 0 0 0 0 0 0 31 4 0 0 0 0 0 0 12 1 0 6 2 1 2 3 3 2 1 0 1 0 0 0 0 0 1 1 0 1 2 2 2 3 2 0 0 0 0 14 17
10 1 0 0 0 0 0 0 1 0 0 0 0 0 0 0 4 3 0 2 3 2 2 3 3 0 1 1 1 2 0 0 0 0 0 0 1 2 1 0 0 1 1 2 2 0 0 0 8

GFSSGP_con_mlcape_090.txt.gz
CAPE
0 0 0 0 0 0 0 0 0 0 0 0 0 0 0 0 0 0 42 840 985 1025 1260 808 771 859 1111 1056 1010 1245 1407 1486 1498 1445 1431 1481 1589 1722 1733 1711 1485 1499 1573 1525 1469 1474 1431 1279 1196
0 0 0 0 0 0 0 0 0 0 0 0 0 0 0 0 0 0 376 1094 1236 1089 1436 1368 890 860 1134 1145 1135 1382 1699 1781 1795 1663 1535 1664 1718 1724 1713 1660 1508 1473 1487 1567 1508 1546 1449 1308 1124
0 0 0 0 0 0 0 0 0 0 0 0 0 0 0 0 0 0 198 1020 1318 1162 1267 1545 915 878 1138 1164 1176 1569 1910 1984 1950 1897 1851 1822 1807 1737 1716 1577 1402 1479 1604 1520 1533 1561 1420 1169 1004
0 0 0 0 0 0 0 0 0 0 0 0 0 0 0 0 22 14 221 1010 1080 983 1166 1272 810 943 1144 1228 1265 1341 2035 2044 1988 1979 1961 1887 1827 1797 1636 1441 1462 1470 1315 1321 1267 1341 1255 1037 930
0 0 0 0 0 0 0 0 0 0 0 0 0 0 0 0 53 710 399 891 689 1138 1237 1352 783 986 1049 1289 1351 1457 1919 1970 2002 2056 1994 1930 1843 1733 1394 1405 1390 1381 1226 1148 1074 1353 1081 932 800
0 0 0 0 0 0 0 0 0 0 0 0 0 0 0 0 240 801 916 1165 1112 1479 1538 1591 936 1074 1153 1230 1429 1410 1637 1921 1993 1964 1895 1882 1732 1274 1052 1192 1192 1022 925 1023 1044 1029 923 753 580
0 0 0 0 0 0 0 0 0 0 0 0 0 0 0 0 223 1253 1390 1220 1623 1860 1739 1309 1392 1218 1101 1253 1320 1464 1244 1588 1884 1814 1654 1403 1130 1064 959 850 937 780 874 946 957 806 717 572 380
0 0 0 0 0 0 0 0 0 0 0 0 0 0 0 0 18 1382 1652 1606 1752 1974 1933 1423 1465 1538 1515 1492 1261 1263 1380 1348 1494 1438 1434 1227 1034 963 870 738 641 659 788 907 755 614 569 375 181
0 0 0 0 0 0 0 0 0 0 0 0 0 0 0 0 1 713 1660 1751 1704 2002 1849 1789 1588 1741 1613 1742 1757 1243 1212 1414 1337 1284 1173 1211 1208 965 695 490 299 287 345 749 583 483 356 176 92
0 0 0 0 0 0 0 0 0 0 0 0 0 0 0 0 0 1 636 1392 1531 1757 2179 1815 1865 1697 1731 1735 1880 1709 1622 1435 1479 1413 1247 1133 1014 1012 560 159 6 41 119 378 320 226 157 193 182
0 0 0 0 0 0 0 0 0 0 0 0 0 0 0 0 0 0 0 600 1046 1439 1902 1647 1875 1866 1910 1873 1729 1789 1909 1680 1383 1297 1219 1170 1053 634 345 85 68 161 204 116 182 130 215 228 195
0 0 0 0 0 0 0 0 0 0 0 0 0 0 0 0 0 0 0 0 699 1087 1661 1621 1744 1804 1691 1769 1493 1486 1348 1529 1238 1247 957 749 484 237 232 95 69 73 132 149 136 162 207 182 155
0 0 0 0 0 0 0 0 0 0 0 0 0 0 0 0 0 0 0 0 5 919 1662 1743 1545 1700 1715 1441 1297 1148 1084 1091 1100 922 736 444 244 156 70 46 92 106 86 98 71 96 149 179 135
0 0 0 0 0 0 0 0 0 0 0 0 0 0 0 0 0 0 0 0 0 315 1183 1896 1486 1533 1448 1402 1201 988 910 810 761 738 538 507 107 9 46 30 121 142 106 82 39 61 126 157 106
0 0 0 0 0 0 0 0 0 0 0 0 0 0 0 0 0 0 0 0 0 66 669 1608 1722 1267 1354 1254 1202 974 952 768 563 413 222 186 11 11 41 49 100 107 84 38 57 107 138 100 94
0 0 0 0 0 0 0 0 0 0 0 0 0 0 0 0 0 0 0 0 0 14 329 1310 1626 1322 1329 1169 951 852 794 676 463 308 85 8 14 37 146 83 48 114 36 27 47 84 97 82 78
0 0 0 0 0 0 0 0 0 0 0 0 0 0 0 0 0 0 0 0 0 0 227 1063 1611 1249 1169 1121 819 730 731 507 304 88 13 27 28 26 85 106 77 57 7 2 22 60 84 66 68
0 0 0 0 0 0 0 0 0 0 0 0 0 0 0 0 0 0 0 0 0 0 185 748 1364 1287 1085 1059 952 812 428 253 130 25 6 10 23 46 77 77 53 3 1 0 35 58 77 90 51
0 0 0 0 0 0 0 0 0 0 0 0 0 0 0 0 0 0 0 0 0 0 237 576 1214 1004 935 889 742 601 238 144 19 5 2 4 15 50 101 60 7 2 1 1 38 55 59 47 60
0 0 0 0 0 0 0 0 0 0 0 0 0 0 0 0 0 0 0 0 0 0 221 551 1013 759 953 1004 867 483 238 173 6 2 3 3 4 32 88 35 2 2 2 1 73 50 39 47 41
0 0 0 0 0 0 0 0 0 0 0 0 0 0 0 0 0 0 0 0 0 2 235 510 844 709 936 756 553 423 272 101 14 8 4 5 3 56 60 4 4 3 3 1 32 40 46 5 25
0 0 0 0 0 0 0 0 0 0 0 0 0 0 0 0 0 0 0 0 0 31 219 441 626 812 697 555 431 366 193 28 16 5 2 11 4 29 30 2 2 2 6 12 18 61 45 35 15
0 0 0 0 0 0 0 0 0 0 0 0 0 0 0 0 0 0 0 0 0 51 269 326 579 560 427 324 326 149 47 6 61 17 14 22 17 4 15 2 2 4 12 36 25 5 2 7 32
8 2 0 0 0 0 0 0 0 0 0 0 0 0 0 0 0 0 0 0 0 140 51 193 439 456 318 274 145 81 42 7 20 3 4 0 0 9 1 2 2 1 1 17 12 0 31 26 38
12 2 0 1 0 0 0 0 0 0 2 0 0 0 0 0 0 0 0 18 93 146 1 115 312 279 193 155 63 41 10 16 24 1 1 2 2 2 0 1 2 2 1 3 1 0 3 18 59
0 0 0 0 0 0 0 0 0 0 3 14 0 0 0 0 1 4 12 210 264 47 2 23 91 207 67 28 17 9 40 20 18 1 3 3 2 2 2 2 2 1 1 0 0 1 0 14 51
12 3 6 8 0 0 0 0 0 3 28 2 0 0 0 0 85 111 66 251 414 106 3 10 103 171 63 8 3 6 11 13 4 1 2 2 2 3 4 3 3 1 0 0 1 0 0 3 43
35 25 0 12 0 0 0 0 29 17 1 0 0 0 0 0 103 227 1 227 396 149 2 5 108 109 13 8 1 6 6 8 15 9 1 3 2 3 3 1 1 0 0 0 0 0 0 0 0
8 4 7 5 3 10 5 22 48 0 0 0 0 0 1 1 8 129 147 163 234 109 3 4 47 7 4 4 0 6 3 4 5 2 3 1 3 4 2 0 0 0 0 0 0 0 0 0 0
13 16 7 12 11 5 1 1 0 0 0 0 0 5 2 1 2 3 1 75 25 1 6 4 2 0 4 2 3 4 0 2 1 2 3 0 1 3 3 1 3 2 1 0 0 0 0 0 0

GFSSGP_con_mlcape_093.txt.gz
CAPE
0 0 0 0 0 0 0 0 0 0 0 0 0 0 0 0 0 0 92 399 418 732 977 546 427 472 648 904 993 1125 1313 1374 1327 1301 1174 1295 1500 1668 1665 1708 1738 1777 1713 1662 1571 1548 1493 1339 1297
0 0 0 0 0 0 0 0 0 0 0 0 0 0 0 0 0 21 78 741 664 596 1078 1065 562 645 861 924 939 1140 1465 1585 1553 1494 1404 1347 1603 1722 1763 1760 1819 1817 1667 1675 1691 1640 1553 1451 1150
0 0 0 0 0 0 0 0 0 0 0 0 0 0 0 0 0 0 310 711 558 383 940 1471 704 812 1027 1063 1092 1309 1625 1835 1803 1670 1496 1613 1672 1702 1820 1741 1783 1757 1623 1726 1745 1615 1573 1324 1111
0 0 0 0 0 0 0 0 0 0 0 0 0 0 0 0 5 0 387 689 526 490 757 1244 710 799 1053 1120 1200 1485 1794 1955 1985 1848 1655 1695 1676 1754 1826 1545 1603 1648 1608 1587 1576 1478 1381 1195 1031
0 0 0 0 0 0 0 0 0 0 0 0 0 0 0 0 0 94 289 468 444 618 972 1435 726 748 1030 1137 1213 1525 1758 2041 2040 1947 1815 1584 1748 1531 1307 1526 1580 1437 1478 1397 1323 1410 1205 1072 935
0 0 0 0 0 0 0 0 0 0 0 0 0 0 0 0 4 91 206 540 529 822 1193 1637 806 818 985 1220 1225 1139 1777 1915 2036 1983 1929 1811 1735 1395 1391 1508 1442 1444 1257 1123 1097 1174 1085 982 839
0 0 0 0 0 0 0 0 0 0 0 0 0 0 0 0 61 586 554 760 874 1286 1637 1795 1229 1093 988 1138 1316 1139 1557 1872 1929 1969 1835 1666 1596 1415 1347 1362 1221 1089 1222 1181 1067 1051 940 836 634
0 0 0 0 0 0 0 0 0 0 0 0 0 0 0 0 0 722 1128 1033 1457 1869 1979 2000 1728 1456 1462 1405 1218 1305 1295 1660 1891 1813 1356 1213 1116 1077 1034 997 1048 945 1069 920 917 893 780 564 451
0 0 0 0 0 0 0 0 0 0 0 0 0 0 0 0 0 89 1434 1695 1801 2033 2110 2148 1847 1709 1654 1562 1521 1272 1331 1322 1561 1674 1459 1172 1204 1155 975 770 893 708 567 411 335 525 512 336 317
0 0 0 0 0 0 0 0 0 0 0 0 0 0 0 0 0 0 183 1489 1784 2022 1979 2272 2043 1836 1781 1453 1700 1535 1563 1515 1607 1522 1511 1441 1050 1134 918 628 424 311 285 197 221 227 269 259 324
0 0 0 0 0 0 0 0 0 0 0 0 0 0 0 0 0 0 0 34 1135 1717 1859 2180 2112 2043 1923 1428 1544 1538 1673 1577 1586 1540 1362 1072 1076 1057 866 652 253 90 15 82 158 100 203 259 392
0 0 0 0 0 0 0 0 0 0 0 0 0 0 0 0 0 0 0 0 20 914 1477 2319 2033 2133 2043 1716 1630 1519 1475 1820 1708 1604 1677 1440 1302 1107 763 603 216 93 76 115 168 80 88 171 265
0 0 0 0 0 0 0 0 0 0 0 0 0 0 0 0 0 0 0 0 0 98 987 2007 1996 2091 2086 2366 1983 1856 1791 1678 1679 1656 1589 1368 1278 1032 870 425 201 268 140 89 29 26 58 98 153
0 0 0 0 0 0 0 0 0 0 0 0 0 0 0 0 0 0 0 0 0 0 257 1794 2252 2106 2075 2135 1965 1981 1847 1658 1777 1588 1557 1469 1174 955 561 311 138 111 115 77 32 56 54 96 74
0 0 0 0 0 0 0 0 0 0 0 0 0 0 0 0 0 0 0 0 0 0 0 1225 2341 1987 2090 2065 1836 1698 1621 1557 1513 1585 1622 1318 1139 625 399 187 124 179 95 80 60 44 38 65 68
0 0 0 0 0 0 0 0 0 0 0 0 0 0 0 0 0 0 0 0 0 0 0 184 1771 1957 1823 1820 1920 1662 1567 1539 1504 1183 1307 1178 916 604 269 83 110 195 120 102 55 23 44 38 63
0 0 0 0 0 0 0 0 0 0 0 0 0 0 0 0 0 0 0 0 0 0 0 67 1132 2057 1615 1650 1775 1567 1452 1408 1468 1343 1027 722 493 422 184 220 85 64 41 67 67 17 20 24 56
0 0 0 0 0 0 0 0 0 0 0 0 0 0 0 0 0 0 0 0 0 0 0 0 850 2192 1462 1513 1356 1245 1265 1309 1022 888 797 475 334 217 249 132 62 67 30 53 43 31 23 48 90
0 0 0 0 0 0 0 0 0 0 0 0 0 0 0 0 0 0 0 0 0 0 0 26 640 2048 1623 1311 1024 1118 1201 942 757 467 342 385 215 71 31 41 77 37 0 24 12 10 23 37 137
0 0 0 0 0 0 0 0 0 0 0 0 0 0 0 0 0 0 0 0 0 0 0 39 459 1365 1448 1086 1249 1413 1111 972 611 446 199 162 110 43 13 26 29 7 3 6 3 7 15 32 88
0 0 0 0 0 0 0 0 0 0 0 0 0 0 0 0 0 0 0 0 0 0 0 16 369 1078 1377 1399 1409 1288 1015 473 314 228 233 119 36 10 22 25 20 3 2 2 4 11 13 24 27
0 0 0 0 0 0 0 0 0 0 0 0 0 0 0 0 0 0 0 0 0 0 0 61 340 1136 1078 1321 1283 1231 650 461 421 326 149 12 4 3 9 18 10 3 2 2 2 18 20 21 37
0 0 0 0 0 0 0 0 0 0 0 0 0 0 0 0 0 0 0 0 0 0 0 157 420 996 1052 1354 1191 1123 870 730 424 233 183 14 3 7 16 3 7 9 2 3 11 17 25 29 54
0 10 28 14 6 0 0 0 0 1 7 0 2 5 10 8 1 0 0 0 0 0 72 379 602 875 994 1141 1103 1046 827 592 225 342 257 27 5 3 11 8 7 9 5 4 4 17 28 43 79
10 32 15 11 0 0 0 0 0 35 56 2 5 15 17 20 15 2 0 0 0 0 266 643 652 859 941 950 934 852 617 365 239 208 173 2 1 2 12 2 2 9 2 4 21 34 55 96 92
23 17 11 11 4 5 8 0 0 78 39 11 24 28 25 4 15 79 25 53 42 110 596 262 694 780 880 874 788 523 380 226 208 222 4 1 0 0 1 10 4 12 9 3 15 51 73 63 68
42 17 2 1 0 5 0 4 136 61 15 9 20 20 3 0 0 217 124 108 333 569 78 110 682 793 721 625 524 284 226 161 212 46 1 1 2 1 1 1 5 5 2 4 23 32 51 41 56
15 28 27 14 0 5 0 2 68 38 11 1 2 6 0 0 0 0 272 132 571 424 15 62 511 650 428 305 258 176 137 127 88 6 2 1 2 2 2 2 2 2 1 1 10 3 12 22 31
7 34 34 35 21 23 8 27 100 0 0 0 0 0 0 0 0 1 1 378 659 521 59 46 289 469 301 192 60 71 51 34 44 15 2 1 1 2 2 2 2 1 1 1 1 1 1 1 0
22 29 63 22 10 15 26 3 0 0 0 0 0 3 1 0 0 1 1 2 342 246 84 23 263 216 72 83 12 22 34 20 9 9 1 2 2 2 1 1 0 1 0 0 0 0 0 0 0

GFSSGP_con_mlcape_096.txt.gz
CAPE
0 0 0 0 0 0 0 0 0 0 0 0 0 0 0 0 0 74 161 335 953 508 351 499 656 752 848 960 1170 1154 1101 1110 1161 1116 970 991 1217 1396 1496 1526 1545 1781 1890 1826 1660 1531 1321 1177 1007
0 0 0 0 0 0 0 0 0 0 0 0 0 0 0 0 0 41 365 400 1222 746 283 418 436 495 653 908 1068 1226 1323 1324 1355 1328 1119 1142 1323 1304 1447 1615 1682 1792 1719 1723 1725 1714 1580 1254 1030
0 0 0 0 0 0 0 0 0 0 0 0 0 0 0 0 0 10 453 587 802 823 642 518 342 431 602 807 985 1203 1427 1520 1464 1466 1395 1208 1267 1325 1470 1559 1771 1756 1690 1731 1811 1794 1596 1162 993
0 0 0 0 0 0 0 0 0 0 0 0 0 0 0 0 0 18 495 589 460 847 1114 446 331 495 721 819 925 1140 1478 1671 1652 1594 1536 1412 1321 1363 1424 1558 1850 1827 1502 1563 1687 1767 1367 1072 974
0 0 0 0 0 0 0 0 0 0 0 0 0 0 0 0 0 221 539 459 334 858 1497 893 482 582 788 947 1018 1137 1462 1741 1639 1740 1648 1624 1385 1386 1267 1265 1655 1569 1379 1544 1525 1518 1178 991 949
0 0 0 0 0 0 0 0 0 0 0 0 0 0 0 0 0 44 500 644 658 1622 1781 1130 808 713 885 1039 1040 1318 1512 1726 1644 1744 1770 1626 1588 1266 1236 1353 1467 1496 1308 1447 1193 1295 1120 981 894
0 0 0 0 0 0 0 0 0 0 0 0 0 0 0 0 2 325 360 643 1037 1495 2121 1396 919 936 903 1035 1046 1149 1234 1549 1693 1728 1701 1720 1506 1271 1279 1314 1216 1098 1132 1102 1180 1192 1074 952 809
0 0 0 0 0 0 0 0 0 0 0 0 0 0 0 0 1 567 866 857 1250 1615 2126 1863 1345 1113 799 1000 1101 962 1245 1571 1600 1712 1776 1836 1582 1243 1223 1100 1032 953 1049 939 810 657 496 823 737
0 0 0 0 0 0 0 0 0 0 0 0 0 0 0 0 0 388 1260 1203 1524 1992 2118 2372 1896 1540 1441 1351 1151 1058 1206 1428 1532 1604 1742 1625 1611 1377 1221 1026 881 749 619 478 307 194 231 371 383
0 0 0 0 0 0 0 0 0 0 0 0 0 0 0 0 0 0 1068 1632 1818 2155 2390 2407 2201 1941 1810 1668 1521 1182 1336 1341 1513 1627 1777 1607 1490 1217 1150 926 716 539 454 379 182 12 40 129 175
0 0 0 0 0 0 0 0 0 0 0 0 0 0 0 0 0 0 0 892 1680 2135 2274 2525 2212 2118 2080 1535 1804 1446 1549 1422 1559 1703 1786 1830 1399 1214 1178 701 566 409 336 221 91 65 43 70 170
0 0 0 0 0 0 0 0 0 0 0 0 0 0 0 0 0 0 0 0 5 1754 2298 2253 2429 2344 2201 1784 1946 1605 1602 1414 1630 1598 1681 1481 1227 1304 1072 760 436 284 184 65 49 47 64 40 187
0 0 0 0 0 0 0 0 0 0 0 0 0 0 0 0 0 0 0 0 0 0 1937 2308 2240 2421 2489 2018 1745 1850 1612 1582 1753 1863 1813 1636 1333 1386 1095 939 484 183 36 32 43 18 8 40 47
0 0 0 0 0 0 0 0 0 0 0 0 0 0 0 0 0 0 0 0 0 0 52 2331 2232 2280 2387 2096 2077 1715 1865 1965 1900 1783 1836 1630 1485 1450 1100 869 506 292 126 103 23 22 0 1 41
0 0 0 0 0 0 0 0 0 0 0 0 0 0 0 0 0 0 0 0 0 0 0 2412 2169 2207 2382 2191 2323 2071 1811 1765 1855 1873 1614 1592 1430 1258 987 789 516 413 284 61 43 47 0 20 54
0 0 0 0 0 0 0 0 0 0 0 0 0 0 0 0 0 0 0 0 0 0 0 1352 2390 2257 2223 2335 2244 1683 1976 1690 1555 1598 1783 1586 1568 1253 997 721 513 305 206 96 75 50 43 31 30
0 0 0 0 0 0 0 0 0 0 0 0 0 0 0 0 0 0 0 0 0 0 0 0 2517 2421 2161 2154 1725 1449 1486 1737 1443 1332 1361 1649 1514 1183 822 519 446 255 115 72 65 47 35 4 17
0 0 0 0 0 0 0 0 0 0 0 0 0 0 0 0 0 0 0 0 0 0 0 0 2175 2372 2117 1911 1572 1512 1376 1291 1539 1461 1147 1130 1212 1011 691 470 291 203 109 81 58 30 22 6 3
0 0 0 0 0 0 0 0 0 0 0 0 0 0 0 0 0 0 0 0 0 0 0 0 1060 2311 1913 1741 1479 1316 1183 1118 1106 1353 1318 1062 812 564 500 332 203 119 69 69 37 20 22 14 29
0 0 0 0 0 0 0 0 0 0 0 0 0 0 0 0 0 0 0 0 0 0 0 0 608 2208 1738 1559 1360 1183 1000 1019 984 790 845 833 657 422 323 302 176 51 37 8 38 26 18 15 34
0 0 0 0 0 0 0 0 0 0 0 0 0 0 0 0 0 0 0 0 0 0 0 0 139 2136 1793 1610 1176 1078 1004 1072 984 802 575 454 444 281 180 224 134 44 11 14 37 15 5 15 17
0 0 2 0 0 0 0 0 0 0 1 0 0 0 0 0 0 0 0 0 0 0 0 0 1 388 1865 1433 1107 1073 1357 1059 746 580 411 298 215 180 176 105 60 35 7 9 19 10 2 7 11
4 2 5 3 0 0 0 0 0 0 0 0 0 2 9 9 0 0 0 0 0 0 0 0 0 148 1700 1395 1206 1263 1283 855 547 449 357 237 175 192 132 48 31 22 7 8 20 13 7 6 6
45 3 1 1 0 0 0 1 0 0 0 65 114 75 69 36 11 14 0 0 0 0 0 0 115 422 1578 1427 1306 1596 1138 905 709 470 451 257 89 24 10 17 17 3 3 6 9 9 16 3 7
83 62 12 5 3 0 0 0 0 0 147 143 127 113 54 25 15 90 44 12 0 0 0 187 274 584 1367 1201 1351 1650 1149 854 964 528 338 342 115 15 2 6 13 2 2 2 3 8 7 3 5
57 41 0 2 0 0 0 0 0 11 86 144 112 83 6 0 0 1 4 199 18 1 401 563 576 675 1394 1154 1499 1265 949 884 614 314 318 254 41 3 4 3 2 6 2 6 19 16 4 6 8
25 15 6 10 0 0 0 0 80 15 10 73 72 18 0 0 0 0 0 0 172 780 873 690 631 746 1242 1121 933 841 820 476 278 285 218 27 1 1 1 2 5 3 8 9 18 20 2 0 22
46 39 18 0 5 0 0 0 0 30 62 0 0 4 0 0 0 0 0 0 194 442 219 198 458 851 990 825 814 592 354 216 259 193 32 0 1 0 0 0 2 7 2 9 7 20 16 8 29
46 22 4 1 2 0 0 19 5 0 0 0 8 7 0 0 0 0 0 0 15 157 14 0 336 569 642 584 452 249 137 149 195 89 1 1 1 1 1 0 1 1 7 3 7 9 9 12 33
21 17 6 3 0 0 0 6 0 0 0 2 16 6 0 0 0 0 0 0 0 1 2 0 80 306 384 292 192 98 58 129 144 50 1 0 1 2 2 1 1 0 0 5 2 1 8 29 35

GFSSGP_con_mlcape_099.txt.gz
CAPE
0 0 0 0 0 0 0 0 0 0 0 0 0 0 0 0 13 129 658 740 433 299 644 725 667 752 933 947 903 875 893 917 912 759 636 753 902 1011 1125 1416 1651 1724 1752 1563 1548 1519 1450 1127 987
0 0 0 0 0 0 0 0 0 0 0 0 0 0 0 0 238 613 610 493 309 228 482 635 728 746 961 1083 1007 968 1010 1091 1129 947 806 925 1066 1185 1305 1410 1619 1806 1801 1712 1676 1595 1349 1059 974
0 0 0 0 0 0 0 0 0 0 0 0 0 0 0 0 144 286 931 756 374 144 445 674 767 827 918 1000 1107 1094 1124 1172 1233 1143 972 1019 1087 1286 1388 1422 1599 1757 1664 1687 1738 1654 1270 1001 950
0 0 0 0 0 0 0 0 0 0 0 0 0 0 0 0 296 596 1048 886 123 138 388 424 575 691 816 956 993 1111 1210 1225 1287 1260 1154 1072 1213 1367 1424 1460 1700 1653 1455 1584 1783 1678 1109 933 887
0 0 0 0 0 0 0 0 0 0 0 0 0 0 0 524 684 753 700 775 269 487 502 322 529 586 732 852 899 1122 1302 1369 1471 1394 1309 1227 1293 1364 1313 1394 1638 1500 1417 1570 1422 1353 1020 929 867
0 0 0 0 0 0 0 0 0 0 0 0 0 0 0 357 651 681 546 597 977 1100 972 270 675 757 848 874 879 1126 1373 1473 1326 1458 1483 1402 1395 1286 1140 1283 1307 1471 1348 1390 1244 1115 971 931 883
0 0 0 0 0 0 0 0 0 0 0 0 0 0 0 65 222 591 582 1155 1305 1451 1194 709 723 944 936 905 863 1126 1383 1609 1280 1343 1610 1610 1469 1238 1271 1266 1174 1270 1228 1050 1156 1100 968 928 831
0 0 0 0 0 0 0 0 0 0 0 0 0 0 0 387 580 672 682 1372 1633 1581 1382 1019 632 847 887 909 979 1207 1303 1226 1314 1394 1404 1602 1532 1288 1281 1117 952 948 1112 1124 701 545 407 529 399
0 0 0 0 0 0 0 0 0 0 0 0 0 0 0 71 415 764 1004 1404 1716 1637 1602 1353 724 710 764 882 947 982 1054 1200 1359 1428 1337 1517 1547 1307 1278 1206 997 923 928 643 478 173 182 267 227
0 0 0 0 0 0 0 0 0 0 0 0 0 0 0 0 1 269 770 1267 1523 1738 1794 1748 1452 854 872 969 960 808 1132 1162 1298 1380 1370 1576 1556 1400 1298 1112 875 741 727 384 219 173 31 11 114
0 0 0 0 0 0 0 0 0 0 0 0 0 0 0 0 0 24 612 1195 1702 1797 2180 2107 1993 1531 1335 1467 892 802 1005 1193 1227 1302 1345 1558 1454 1302 1125 917 766 606 421 228 50 2 13 40 43
0 0 0 0 0 0 0 0 0 0 0 0 0 0 0 0 0 0 0 742 1084 2102 2267 2272 2224 2019 1710 1573 1346 772 917 970 1053 1221 1492 1422 1247 918 755 714 597 488 284 175 0 0 20 74 108
0 0 0 0 0 0 0 0 0 0 0 0 0 0 0 0 0 0 0 0 346 1560 2282 2329 2212 2148 1975 1760 1622 1284 1125 1143 1124 1192 1414 1490 1152 940 747 682 529 430 291 153 0 0 0 18 24
0 0 0 0 0 0 0 0 0 0 0 0 0 0 0 0 0 0 0 0 0 0 1457 2433 2314 2175 1853 1960 1826 1495 1396 1278 1297 1282 1346 1439 1171 1092 862 692 547 388 344 149 30 0 0 12 23
0 0 0 0 0 0 0 0 0 0 0 0 0 0 0 0 0 0 0 0 0 0 0 1547 2350 2301 2053 1838 1836 1757 1556 1475 1457 1541 1497 1479 1249 1158 978 812 648 528 358 178 43 0 0 2 9
0 0 0 0 0 0 0 0 0 0 0 0 0 0 0 0 0 0 0 0 0 0 0 217 1980 2324 2313 2130 2001 1746 1693 1694 1555 1576 1576 1427 1298 1195 997 858 708 547 328 156 30 0 0 0 12
0 0 0 0 0 0 0 0 0 0 0 0 0 0 0 0 0 0 0 0 0 0 0 0 1430 2156 2395 2178 1969 1891 1682 1490 1553 1546 1493 1414 1267 1172 984 814 743 616 418 146 39 30 7 2 10
0 0 0 0 0 0 0 0 0 0 0 0 0 0 0 0 0 0 0 0 0 0 0 0 1128 2014 2253 2118 1900 1719 1590 1553 1325 1319 1455 1367 1306 1098 905 743 652 514 342 158 64 49 50 57 33
0 0 0 0 0 0 0 0 0 0 0 0 0 0 0 0 0 0 0 0 0 0 0 0 982 1964 2157 2107 1885 1694 1431 1364 1370 1127 1087 1220 1293 1112 919 758 605 434 307 108 42 34 48 38 30
0 0 0 0 0 0 0 0 0 0 0 0 0 0 0 0 0 0 0 0 0 0 0 0 1390 1989 2092 2073 1758 1532 1281 1188 1099 1260 1088 1052 879 917 779 589 463 348 194 79 23 14 31 27 5
0 0 0 0 0 0 0 0 0 0 0 0 0 0 0 0 0 0 0 0 0 0 0 0 1553 1927 2035 1851 1433 1212 1065 986 989 902 1071 945 853 656 540 449 323 258 171 88 40 9 23 9 11
0 0 0 0 0 0 0 0 0 0 0 0 0 0 0 0 0 0 0 0 0 0 0 1 1568 1955 1827 1576 1395 1123 954 932 877 814 686 690 693 592 461 361 260 175 143 64 37 1 10 17 7
0 0 0 0 3 3 0 0 0 0 0 0 0 0 0 0 23 45 0 0 0 0 0 28 1377 1724 1663 1395 1211 1043 892 764 705 630 532 540 463 441 309 261 186 122 61 14 20 8 3 4 7
0 0 2 0 1 3 0 0 0 0 0 0 106 154 117 44 19 38 1 0 0 0 0 0 1098 1645 1576 1164 1028 935 914 847 598 448 447 387 293 224 180 143 96 92 49 22 12 10 2 6 2
12 4 0 0 0 0 0 0 0 0 0 0 87 59 21 0 1 4 7 10 3 1 0 0 12 1516 1441 1091 1060 999 881 801 681 598 490 368 254 164 137 105 89 68 19 15 19 9 13 6 0
21 13 1 0 0 0 0 0 0 0 0 4 0 3 0 0 0 0 0 0 1 113 6 0 126 908 1154 1110 1178 1183 1111 1010 802 593 485 382 228 97 48 38 8 28 12 16 14 23 22 9 1
33 3 0 1 12 0 0 0 14 23 73 18 2 0 0 0 0 0 0 0 0 34 68 174 371 889 1091 1189 1181 1131 1208 1086 750 551 473 295 203 141 76 14 12 6 9 8 21 10 10 9 1
36 23 4 2 1 0 10 3 1 2 0 2 0 0 0 0 0 0 0 1 0 1 0 11 122 281 843 991 921 988 932 538 357 263 223 125 45 15 0 2 4 6 2 1 5 6 2 18 3
0 0 0 4 0 0 0 0 1 1 11 8 0 0 0 0 0 1 1 3 4 2 1 0 0 66 432 768 608 486 330 231 223 152 55 20 0 0 0 0 0 3 5 2 10 2 12 16 1
7 0 0 0 0 6 9 0 2 5 10 3 2 0 0 0 0 0 1 3 1 1 1 0 1 28 170 231 348 243 152 171 133 65 1 0 0 0 0 2 1 2 1 6 19 1 6 3 6

GFSSGP_con_mlcape_102.txt.gz
CAPE
0 0 0 0 0 0 0 0 0 0 0 0 0 0 0 0 8 3 536 657 455 644 1037 1093 992 955 971 936 892 809 772 736 621 515 522 673 889 1150 1388 1487 1496 1493 1482 1491 1159 1477 1476 1224 1072
0 0 0 0 0 0 0 0 0 0 0 0 0 0 0 0 259 577 771 762 318 495 924 1102 1072 1002 999 946 959 929 951 924 793 695 667 805 1019 1193 1401 1533 1624 1659 1636 1602 1455 1441 1275 1047 1015
0 0 0 0 0 0 0 0 0 0 0 0 0 0 0 0 489 686 855 630 480 492 730 999 1116 1116 1037 927 959 1010 1102 1045 918 834 811 934 1145 1237 1409 1525 1701 1733 1659 1667 1610 1310 1066 923 951
0 0 0 0 0 0 0 0 0 0 0 0 0 0 0 8 449 692 744 609 282 365 519 846 999 1223 1198 1015 947 1036 1167 1139 1106 997 940 1048 1311 1374 1372 1555 1774 1786 1709 1679 1655 1257 886 823 828
0 0 0 0 0 0 0 0 0 0 0 0 0 0 0 376 601 754 574 306 10 235 517 892 1043 1106 1123 1161 1108 1071 1195 1197 1189 1178 1093 1132 1392 1446 1361 1487 1616 1597 1640 1722 1506 970 820 803 792
0 0 0 0 0 0 0 0 0 0 0 0 0 0 0 528 912 968 888 224 87 25 412 720 1042 985 1119 1186 1170 1089 1161 1289 1251 1292 1289 1246 1389 1429 1332 1299 1514 1486 1545 1504 1331 930 805 772 808
0 0 0 0 0 0 0 0 0 0 0 0 0 0 27 581 887 933 753 130 186 255 319 573 916 970 1034 1085 1096 1168 1140 1353 1386 1396 1470 1384 1316 1312 1369 1380 1390 1443 1165 1309 1235 923 807 778 760
0 0 0 0 0 0 0 0 0 0 0 0 0 0 83 569 639 711 969 791 540 573 274 377 584 933 1051 1122 1099 1227 1241 1354 1245 1373 1531 1538 1358 1279 1293 1328 1320 1211 987 1113 702 716 511 622 591
0 0 0 0 0 0 0 0 0 0 0 0 0 0 0 353 637 916 1261 1377 1366 1287 875 503 413 665 800 978 1105 1311 1480 1470 1282 1301 1346 1509 1480 1327 1296 1201 1149 963 1046 682 560 533 356 335 276
0 0 0 0 0 0 0 0 0 0 0 0 0 0 182 710 860 1020 1368 1385 1510 1466 1371 1153 728 453 733 1016 1151 1284 1437 1246 1220 1226 1124 1361 1476 1320 1295 1212 1072 992 854 642 336 174 100 186 119
0 0 0 0 0 0 0 0 0 0 0 0 0 0 0 25 541 971 1289 1455 1474 1512 1553 1441 1056 578 616 957 1030 1066 1204 1016 1134 1259 1177 1396 1555 1351 1208 1113 971 732 667 447 201 153 194 116 72
0 0 0 0 0 0 0 0 0 0 0 0 0 0 0 0 0 56 958 1442 1494 1605 1549 1701 1588 1184 671 727 858 920 1106 974 1018 1159 1261 1517 1508 1248 1071 938 714 624 421 233 96 13 3 53 34
0 0 0 0 0 0 0 0 0 0 0 0 0 0 0 0 0 0 0 738 1499 1588 1745 1786 1928 1708 1359 896 799 811 907 1091 932 1072 1270 1527 1239 1006 881 769 609 500 354 189 98 50 31 61 38
0 0 0 0 0 0 0 0 0 0 0 0 0 0 0 0 0 0 0 0 479 1775 1952 1985 2116 2011 1778 1385 1093 1029 838 867 983 1083 1242 1438 1164 913 762 595 565 474 363 218 188 139 6 11 78
0 0 0 0 0 0 0 0 0 0 0 0 0 0 0 0 0 0 0 0 0 164 1873 2128 2136 2236 2092 1862 1460 1408 1233 926 909 994 1240 1395 1177 868 622 585 538 491 357 274 199 95 15 0 12
0 0 0 0 0 0 0 0 0 0 0 0 0 0 0 0 0 0 0 0 0 0 0 1622 2259 2240 2210 2136 1688 1562 1413 1151 1120 1163 1130 1205 1231 939 703 638 596 457 408 379 334 184 32 15 12
0 0 0 0 0 0 0 0 0 0 0 0 0 0 0 0 0 0 0 0 0 0 0 17 1309 1782 2191 2110 1921 1690 1508 1375 1287 1254 1231 1179 1181 974 867 728 593 490 494 491 411 237 53 12 0
0 0 0 0 0 0 0 0 0 0 0 0 0 0 0 0 0 0 0 0 0 0 0 0 293 827 1706 2121 1986 1636 1473 1504 1393 1394 1425 1201 1159 948 868 688 633 533 499 491 342 218 60 3 2
0 0 0 0 0 0 0 0 0 0 0 0 0 0 0 0 0 0 0 0 0 0 0 0 5 551 1621 2031 1784 1583 1381 1602 1591 1525 1448 1326 1068 916 838 686 613 611 590 429 305 157 61 16 17
0 0 0 0 0 0 0 0 0 0 0 0 0 0 0 0 0 0 0 0 0 0 0 0 2 253 1310 1617 1724 1572 1529 1399 1348 1368 1436 1394 1218 983 824 747 650 623 524 368 242 122 77 43 56
0 0 0 0 0 0 0 0 0 0 0 0 0 0 0 0 0 0 0 0 0 0 0 0 0 344 987 1600 1851 1494 1227 983 1138 1138 1136 1134 1139 952 788 690 652 508 417 272 165 109 54 9 16
0 0 0 0 0 0 0 0 0 0 0 0 0 0 0 0 0 0 0 0 0 0 0 0 0 396 1349 2015 1735 1573 1345 1217 1268 1139 952 840 763 691 739 687 523 450 322 207 159 118 48 5 9
0 0 0 0 0 0 0 0 0 0 0 0 0 2 9 0 0 1 12 12 0 0 0 0 65 1299 1546 1697 1703 1569 1340 1098 948 915 866 833 823 748 583 576 483 412 304 208 140 87 25 2 4
0 0 2 21 4 0 0 0 0 0 0 0 45 61 1 0 0 0 0 0 0 1 7 16 1154 1417 1730 1707 1642 1557 1245 1025 901 829 703 688 718 635 586 465 401 303 243 194 127 58 22 25 1
0 2 5 3 6 0 0 0 0 0 0 0 15 0 3 2 0 0 0 0 0 0 6 0 1275 1629 1691 1656 1483 1370 1073 829 771 665 575 474 375 406 463 432 351 266 191 142 78 37 4 17 12
0 0 14 0 0 0 0 0 0 16 34 53 3 0 0 4 0 2 3 3 2 1 0 0 1092 1552 1552 1275 1281 1052 879 732 644 461 332 341 313 291 288 268 211 165 137 101 43 18 16 14 8
0 0 0 0 0 0 2 0 37 9 1 3 3 0 0 2 1 0 1 3 2 4 3 3 8 710 1234 1005 947 795 728 755 621 430 357 329 277 265 200 137 97 118 99 84 31 19 20 24 18
5 6 0 10 0 0 1 5 0 0 4 5 1 1 1 1 0 0 1 2 4 4 4 2 2 1 329 688 705 698 812 668 571 517 468 342 233 203 102 38 57 83 54 22 25 18 33 16 7
14 3 1 3 0 0 0 0 0 0 1 1 2 2 1 3 3 1 0 2 3 1 3 3 0 2 0 316 419 505 571 586 528 389 207 236 189 137 45 22 23 36 22 10 17 32 17 19 9
1 0 1 0 0 3 0 0 0 0 1 1 2 2 1 1 2 1 1 2 1 4 0 5 1 2 4 1 48 201 259 260 107 79 41 8 8 0 0 0 0 0 0 3 9 6 1 1 17

GFSSGP_con_mlcape_105.txt.gz
CAPE
0 0 0 0 0 0 0 0 0 0 0 0 0 0 0 0 0 0 340 737 394 784 1014 1090 1294 1157 994 884 783 679 555 454 456 595 737 942 1150 1242 1282 1342 1436 1372 1306 1381 1255 1116 1173 1006 921
0 0 0 0 0 0 0 0 0 0 0 0 0 0 0 0 168 454 689 801 780 894 1012 1089 1226 1189 1100 1011 938 867 785 615 537 620 777 991 1156 1261 1307 1385 1425 1461 1489 1519 1466 1448 1249 1053 986
0 0 0 0 0 0 0 0 0 0 0 0 0 0 0 0 161 321 690 767 854 991 1099 1150 1175 1193 1146 1102 1072 1012 937 781 665 640 892 1123 1315 1414 1461 1448 1502 1551 1545 1584 1520 1419 1115 956 987
0 0 0 0 0 0 0 0 0 0 0 0 0 0 0 0 263 581 1018 847 779 1076 1148 1121 1061 1151 1175 1244 1203 1134 1013 903 814 750 935 1169 1368 1518 1560 1580 1630 1603 1595 1535 1436 1139 836 873 930
0 0 0 0 0 0 0 0 0 0 0 0 0 0 0 24 470 889 1004 752 531 883 994 1009 1052 1091 1152 1278 1260 1210 1114 1024 955 913 955 1220 1362 1522 1580 1512 1714 1716 1586 1638 1293 847 707 811 825
0 0 0 0 0 0 0 0 0 0 0 0 0 0 0 93 559 895 887 549 661 488 830 1012 1234 1193 1269 1280 1294 1294 1227 1163 1131 1067 1053 1258 1372 1380 1541 1442 1563 1638 1663 1479 1031 680 704 713 771
0 0 0 0 0 0 0 0 0 0 0 0 0 0 0 274 745 770 509 504 676 745 757 974 1162 1310 1330 1327 1320 1317 1288 1235 1281 1257 1164 1223 1319 1363 1461 1503 1507 1474 1486 1401 886 686 711 683 673
0 0 0 0 0 0 0 0 0 0 0 0 0 0 0 92 891 658 372 461 529 653 663 788 1084 1217 1260 1320 1306 1349 1367 1318 1326 1419 1314 1224 1296 1369 1455 1468 1466 1253 1029 934 942 679 695 711 549
0 0 0 0 0 0 0 0 0 0 0 0 0 0 0 47 801 1042 753 574 432 450 639 780 855 1055 1107 1138 1299 1383 1497 1435 1429 1517 1503 1345 1344 1392 1449 1455 1407 1095 1065 842 797 639 574 614 451
0 0 0 0 0 0 0 0 0 0 0 0 0 0 0 0 543 1213 782 119 131 182 275 569 744 869 911 988 1226 1446 1619 1517 1370 1460 1613 1556 1359 1323 1362 1370 1358 1069 1002 769 744 634 488 513 341
0 0 0 0 0 0 0 0 0 0 0 0 0 0 0 0 3 593 1267 1139 430 414 522 505 648 793 774 895 1057 1173 1414 1447 1313 1378 1400 1448 1453 1353 1314 1276 1196 1046 933 652 566 444 287 270 253
0 0 0 0 0 0 0 0 0 0 0 0 0 0 0 0 0 0 166 1284 1723 1351 1252 907 717 738 833 881 932 1102 1301 1463 1271 1320 1183 1212 1472 1334 1193 1165 956 911 728 477 306 169 100 173 130
0 0 0 0 0 0 0 0 0 0 0 0 0 0 0 0 0 0 0 0 1164 1666 1842 1513 1225 988 897 701 665 872 1080 1142 1085 1004 1147 1212 1530 1372 1132 1006 860 748 523 390 203 119 105 121 80
0 0 0 0 0 0 0 0 0 0 0 0 0 0 0 0 0 0 0 0 0 547 1847 1980 1585 1312 985 782 555 533 808 925 844 985 1052 1256 1511 1296 1125 918 795 664 423 264 226 167 132 151 147
0 0 0 0 0 0 0 0 0 0 0 0 0 0 0 0 0 0 0 0 0 0 27 2045 1982 1719 1423 1207 828 544 589 872 876 935 1077 1321 1413 1146 1016 845 725 559 303 219 167 136 91 110 191
0 0 0 0 0 0 0 0 0 0 0 0 0 0 0 0 0 0 0 0 0 0 0 499 2188 2072 1883 1654 1390 993 708 662 793 942 952 1193 1332 1085 819 685 644 419 249 203 221 225 251 297 216
0 0 0 0 0 0 0 0 0 0 0 0 0 0 0 0 0 0 0 0 0 0 0 0 1094 2126 2247 1941 1727 1480 1105 890 795 799 913 1060 1159 1031 808 637 450 323 260 232 245 303 302 210 129
0 0 0 0 0 0 0 0 0 0 0 0 0 0 0 0 0 0 0 0 0 0 0 0 33 1237 2353 2208 1808 1595 1318 1309 1185 1117 907 937 1068 1036 843 518 390 318 318 288 300 313 229 136 56
0 0 0 0 0 0 0 0 0 0 0 0 0 0 0 0 0 0 0 0 0 0 0 0 0 667 1753 2210 1916 1730 1631 1475 1348 1305 1136 987 1038 1035 948 605 441 389 395 366 358 330 280 145 50
0 0 0 0 0 0 0 0 0 0 0 0 0 0 0 0 0 0 0 0 0 0 0 0 0 140 1183 1931 1949 1830 1653 1482 1404 1266 1241 1181 1053 931 957 789 549 463 418 309 354 313 214 155 59
0 0 0 0 0 0 0 0 0 0 0 0 0 0 0 0 0 0 0 0 0 0 0 0 0 19 758 1611 1956 1677 1362 1251 1183 1138 1272 1275 1148 940 908 806 747 586 537 445 385 247 158 155 103
0 0 0 0 0 0 0 0 0 0 0 0 0 0 0 0 0 0 0 0 0 0 0 0 0 9 672 1615 1582 1350 932 818 1363 1292 1303 1375 1188 1060 911 692 665 608 548 443 309 233 151 132 91
0 0 0 0 0 0 0 0 0 0 0 0 0 91 3 0 0 1 1 0 0 0 0 0 0 0 607 1466 1585 1265 1244 1013 1082 1145 1196 1232 1110 969 925 792 631 538 471 428 296 202 137 95 68
0 0 0 0 0 0 0 0 0 0 0 0 15 0 0 0 1 2 2 1 1 0 0 9 124 32 758 1466 1606 1357 1135 1120 1134 1066 1015 904 786 868 797 735 584 594 559 429 310 218 127 85 31
0 0 0 0 0 0 0 0 0 5 24 18 1 1 0 0 1 2 3 4 3 1 0 0 738 1448 1580 1719 1595 1493 1339 1046 1046 1030 1002 843 651 568 579 487 472 490 487 428 356 222 133 87 12
0 0 0 0 0 0 2 2 4 5 3 3 3 3 1 0 0 3 4 4 4 6 3 2 4 379 1943 1772 1682 1499 1272 991 944 803 819 610 553 574 447 343 388 438 408 386 328 242 149 86 42
0 0 0 0 0 0 0 0 54 1 0 4 0 5 3 2 0 2 2 4 5 7 6 6 1 1 73 1593 1396 1301 989 820 865 631 466 420 363 275 300 256 284 318 345 329 244 176 123 57 51
0 0 1 4 0 0 0 4 0 0 0 0 3 2 3 5 0 1 1 3 3 5 6 5 6 2 6 247 943 894 768 614 388 361 314 291 163 66 77 140 145 154 198 165 135 115 62 28 31
0 4 0 0 1 0 0 0 0 1 1 0 2 1 1 4 4 1 1 2 2 2 5 4 7 5 5 2 56 611 477 304 298 279 199 149 66 44 83 96 70 71 72 121 125 84 75 52 34
0 0 2 8 0 0 1 0 0 0 2 0 1 1 1 2 1 1 1 2 3 4 4 4 8 11 9 6 1 241 269 283 250 139 110 61 59 21 46 40 42 18 20 27 38 51 29 9 31

GFSSGP_con_mlcape_108.txt.gz
CAPE
0 0 0 0 0 0 0 0 0 0 0 0 0 0 0 0 0 0 269 451 544 621 926 1023 1135 1035 924 709 588 552 543 603 833 1009 1160 1095 1114 1191 1105 1228 1341 1319 1329 1415 1238 1139 1063 994 1042
0 0 0 0 0 0 0 0 0 0 0 0 0 0 0 0 0 252 618 749 654 780 1028 1096 1085 1195 1137 862 704 673 657 574 665 938 1171 1233 1340 1332 1340 1430 1353 1381 1401 1455 1331 1144 1099 937 882
0 0 0 0 0 0 0 0 0 0 0 0 0 0 0 0 7 333 656 712 861 945 1066 1185 1238 1278 1204 1041 917 842 774 628 647 857 1086 1264 1284 1321 1408 1431 1363 1456 1497 1601 1534 1303 1090 891 908
0 0 0 0 0 0 0 0 0 0 0 0 0 0 0 0 0 467 811 957 986 1141 1211 1275 1350 1406 1278 1184 1146 1076 876 703 714 824 985 1161 1278 1318 1400 1423 1413 1496 1498 1391 1423 1295 980 881 923
0 0 0 0 0 0 0 0 0 0 0 0 0 0 0 0 176 578 946 1079 819 1183 1263 1324 1416 1472 1400 1329 1317 1238 999 831 838 977 1079 1229 1369 1428 1416 1472 1496 1500 1495 1459 1267 1046 846 855 891
0 0 0 0 0 0 0 0 0 0 0 0 0 0 0 0 308 891 1164 1097 1103 1111 1262 1326 1522 1525 1511 1472 1426 1346 1154 1033 976 1081 1188 1350 1485 1466 1458 1448 1509 1493 1557 1342 999 803 808 835 785
0 0 0 0 0 0 0 0 0 0 0 0 0 0 0 0 0 713 1033 973 1033 1177 1318 1385 1559 1597 1503 1444 1409 1362 1292 1227 1144 1140 1265 1355 1412 1440 1481 1500 1482 1457 1439 1273 776 726 778 786 643
0 0 0 0 0 0 0 0 0 0 0 0 0 0 0 0 52 709 880 907 988 1133 1268 1370 1500 1582 1518 1489 1467 1405 1403 1375 1306 1217 1284 1360 1348 1439 1500 1486 1375 1282 1267 1140 669 663 709 748 552
0 0 0 0 0 0 0 0 0 0 0 0 0 0 0 0 368 946 849 805 762 865 1082 1308 1424 1542 1450 1510 1532 1499 1471 1495 1484 1384 1316 1400 1471 1444 1513 1424 1354 1260 1248 1081 684 635 656 641 486
0 0 0 0 0 0 0 0 0 0 0 0 0 0 0 0 0 809 969 575 634 601 785 1081 1240 1342 1368 1429 1560 1604 1624 1619 1595 1559 1471 1382 1416 1436 1492 1445 1399 1234 1090 963 769 634 627 571 367
0 0 0 0 0 0 0 0 0 0 0 0 0 0 0 0 0 0 904 1177 843 837 800 1047 1140 1215 1178 1221 1340 1533 1627 1584 1520 1519 1547 1469 1329 1399 1435 1411 1378 1141 1026 874 806 627 543 476 280
0 0 0 0 0 0 0 0 0 0 0 0 0 0 0 0 0 0 0 0 1108 1303 977 837 1021 1011 876 958 1241 1318 1445 1458 1355 1419 1534 1467 1359 1306 1312 1247 1189 1052 901 614 632 492 352 365 271
0 0 0 0 0 0 0 0 0 0 0 0 0 0 0 0 0 0 0 0 0 305 1216 1507 969 1033 971 975 1066 1161 1294 1427 1325 1304 1372 1494 1486 1370 1327 1174 1083 971 741 549 394 298 190 197 255
0 0 0 0 0 0 0 0 0 0 0 0 0 0 0 0 0 0 0 0 0 0 1 1331 1716 1086 1084 1022 965 852 1101 1282 1422 1363 1338 1262 1250 1417 1294 1079 1054 842 706 450 325 260 181 170 194
0 0 0 0 0 0 0 0 0 0 0 0 0 0 0 0 0 0 0 0 0 0 0 15 1020 1734 1306 970 890 866 934 1186 1236 993 1103 1119 1139 1353 1276 1046 968 840 480 384 220 128 102 120 163
0 0 0 0 0 0 0 0 0 0 0 0 0 0 0 0 0 0 0 0 0 0 0 0 64 845 1618 1404 1093 814 827 922 791 714 852 1135 1132 1195 1108 1064 901 675 380 302 268 165 146 154 200
0 0 0 0 0 0 0 0 0 0 0 0 0 0 0 0 0 0 0 0 0 0 0 0 0 220 912 1634 1441 940 782 718 712 782 820 919 1081 996 1070 1044 784 534 327 266 225 148 152 141 136
0 0 0 0 0 0 0 0 0 0 0 0 0 0 0 0 0 0 0 0 0 0 0 0 0 0 469 1517 1576 1270 988 823 770 802 884 893 1011 879 931 866 706 451 259 225 148 215 166 187 153
0 0 0 0 0 0 0 0 0 0 0 0 0 0 0 0 0 0 0 0 0 0 0 0 0 0 228 1143 1591 1640 1425 1299 1069 899 833 953 885 940 872 810 620 382 316 198 183 171 212 165 122
0 0 0 0 0 0 0 0 0 0 0 0 0 0 0 0 0 0 0 0 0 0 0 0 0 0 4 898 1621 1618 1624 1527 1343 1141 981 897 874 797 881 792 617 423 341 287 204 201 178 143 58
0 0 0 0 0 0 0 0 0 0 0 0 0 0 0 0 0 0 0 0 0 0 0 0 0 0 0 727 1799 1777 1755 1504 1236 1173 1171 1109 949 843 832 728 662 487 334 398 334 294 232 194 65
0 0 0 0 0 0 0 0 0 0 0 0 0 0 0 0 0 0 0 0 0 0 0 0 0 0 0 754 1403 1544 1521 1385 1180 1197 1303 1196 1004 923 860 793 646 498 452 430 372 314 254 152 97
0 0 0 0 0 0 0 0 0 0 0 0 0 0 2 1 1 0 0 0 0 0 0 0 0 0 0 755 1360 1532 1592 1390 1055 1227 1198 1170 1045 947 951 848 773 660 602 475 407 284 251 165 117
0 0 0 0 0 0 0 0 0 0 0 1 1 1 4 3 1 2 1 0 0 0 0 0 0 114 0 700 1421 1529 1464 1273 1133 1164 1089 1101 1152 998 890 839 844 766 686 544 400 327 233 191 129
0 0 0 0 0 0 0 0 0 0 1 1 2 3 3 3 4 4 3 2 2 3 3 4 1 93 187 889 1644 1781 1493 1304 1025 1120 1124 1124 1085 1036 886 791 791 696 684 560 406 316 277 234 173
0 0 0 0 0 0 0 0 0 3 3 4 2 0 2 3 3 4 2 3 4 4 5 6 6 1 6 1505 1623 1722 1532 1316 1149 1061 961 934 747 875 707 706 623 676 642 580 393 370 349 290 234
0 0 0 0 0 0 0 0 0 0 0 0 1 1 2 3 3 4 3 3 4 4 5 5 7 4 5 75 1670 1647 1375 1195 1126 972 986 833 647 555 488 473 530 506 458 374 349 358 336 310 261
0 0 2 1 0 0 0 0 0 0 0 0 1 1 1 2 1 1 3 3 2 2 5 4 5 7 6 5 68 1364 1077 863 824 769 880 701 544 442 433 320 305 373 288 287 317 332 325 271 208
0 0 0 0 0 0 0 0 0 2 2 1 1 1 0 1 1 1 2 1 0 2 4 6 6 7 9 6 2 549 917 685 543 658 569 381 238 260 292 270 216 175 119 136 175 215 184 83 108
0 0 0 0 0 0 0 0 1 1 1 0 1 2 0 0 0 0 1 1 1 3 3 3 6 7 6 8 5 205 359 391 410 392 288 191 147 117 121 47 52 65 38 28 27 52 102 77 63

GFSSGP_con_mlcape_111.txt.gz
CAPE
0 0 0 0 0 0 0 0 0 0 0 0 0 0 0 0 0 0 204 488 747 916 1224 1115 1152 1002 799 671 704 812 1006 1243 1320 1270 1148 1000 868 866 1003 1144 1273 1393 1379 1393 1118 1000 1211 1331 937
0 0 0 0 0 0 0 0 0 0 0 0 0 0 0 0 0 0 252 764 979 1104 1323 1423 1182 1050 915 799 763 851 1013 1179 1356 1377 1259 1097 979 1057 1151 1190 1299 1336 1354 1414 1269 1244 1196 1135 999
0 0 0 0 0 0 0 0 0 0 0 0 0 0 0 0 0 33 756 1023 1196 1273 1451 1555 1277 1119 981 902 893 910 1055 1213 1302 1410 1286 1187 1287 1314 1322 1280 1304 1301 1422 1467 1508 1403 1025 896 918
0 0 0 0 0 0 0 0 0 0 0 0 0 0 0 0 0 208 654 1050 1263 1371 1532 1469 1340 1233 1134 1041 1016 980 889 1135 1387 1445 1413 1512 1573 1548 1459 1382 1384 1479 1549 1709 1710 1385 889 851 912
0 0 0 0 0 0 0 0 0 0 0 0 0 0 0 0 0 220 975 1253 1276 1525 1565 1452 1370 1380 1295 1240 1161 1067 901 987 1198 1455 1614 1691 1712 1647 1529 1525 1509 1606 1563 1458 1522 1156 883 873 902
0 0 0 0 0 0 0 0 0 0 0 0 0 0 0 0 0 75 1160 1313 1437 1636 1667 1698 1496 1525 1474 1468 1327 1129 950 980 1115 1300 1484 1634 1686 1625 1553 1550 1563 1581 1436 1382 1415 1033 895 880 904
0 0 0 0 0 0 0 0 0 0 0 0 0 0 0 0 0 143 939 1313 1497 1628 1745 1677 1768 1757 1622 1519 1423 1256 1095 1066 1151 1233 1377 1552 1619 1596 1579 1580 1611 1657 1476 1396 1146 912 863 871 841
0 0 0 0 0 0 0 0 0 0 0 0 0 0 0 0 0 185 892 1215 1281 1485 1783 1756 1715 1883 2022 1918 1594 1395 1249 1180 1211 1316 1453 1531 1600 1636 1634 1664 1706 1747 1540 1355 853 835 844 800 715
0 0 0 0 0 0 0 0 0 0 0 0 0 0 0 0 0 4 587 1132 1237 1221 1414 1606 1734 1786 2048 2031 1893 1613 1450 1325 1295 1396 1489 1579 1948 1931 1854 1881 1735 1704 1550 1234 741 795 803 706 596
0 0 0 0 0 0 0 0 0 0 0 0 0 0 0 0 0 0 161 550 1088 1127 1146 1247 1344 1539 1921 1914 1920 2008 1931 1848 1747 1693 1793 1921 1940 1989 2008 1884 1610 1577 1439 1127 718 710 773 734 894
0 0 0 0 0 0 0 0 0 0 0 0 0 0 0 0 0 0 0 643 1052 833 1016 1125 1178 1320 1599 1686 1717 1870 1919 1853 1847 1784 1776 1873 1884 1891 1867 1958 1818 1784 1477 1403 886 813 1017 1082 989
0 0 0 0 0 0 0 0 0 0 0 0 0 0 0 0 0 0 0 0 863 1235 999 910 1159 1256 1304 1341 1558 1729 1752 1775 1620 1673 1666 1621 1477 1734 1762 1791 1895 1873 1649 1598 1300 1176 1157 1154 953
0 0 0 0 0 0 0 0 0 0 0 0 0 0 0 0 0 0 0 0 0 352 1388 1089 933 1018 1168 1265 1280 1529 1512 1561 1604 1654 1769 1616 1411 1505 1633 1639 1720 1807 1600 1377 1184 1052 987 990 890
0 0 0 0 0 0 0 0 0 0 0 0 0 0 0 0 0 0 0 0 0 0 0 1230 1099 1053 914 900 1133 1393 1340 1431 1493 1800 1854 1789 1656 1527 1555 1512 1532 1534 1390 1213 1141 933 857 881 827
0 0 0 0 0 0 0 0 0 0 0 0 0 0 0 0 0 0 0 0 0 0 0 0 513 1451 1268 1083 923 1245 1384 1382 1446 1698 1867 1901 1999 1775 1452 1392 1397 1372 1216 1043 893 842 793 866 692
0 0 0 0 0 0 0 0 0 0 0 0 0 0 0 0 0 0 0 0 0 0 0 0 0 543 1369 1503 1320 1122 1081 1278 1562 1672 1690 1750 1850 1707 1400 1239 1266 1247 965 930 818 728 689 697 620
0 0 0 0 0 0 0 0 0 0 0 0 0 0 0 0 0 0 0 0 0 0 0 0 0 0 271 1068 1672 1431 1213 1207 1335 1468 1490 1611 1675 1229 1207 1197 993 1026 846 794 818 675 718 544 380
0 0 0 0 0 0 0 0 0 0 0 0 0 0 0 0 0 0 0 0 0 0 0 0 0 0 172 1073 1489 1624 1418 1373 1353 1191 1093 1010 1134 1020 1042 1072 988 769 770 664 596 617 481 519 519
0 0 0 0 0 0 0 0 0 0 0 0 0 0 0 0 0 0 0 0 0 0 0 0 0 0 0 689 675 1163 1117 1359 1299 1105 1067 918 900 968 966 1014 881 725 803 674 507 475 491 253 154
0 0 0 0 0 0 0 0 0 0 0 0 0 0 0 0 0 0 0 0 0 0 0 0 0 0 0 12 797 1011 1013 1367 1392 1160 1001 938 926 956 1024 923 740 712 773 576 484 477 345 264 137
0 0 0 0 0 0 0 0 0 0 0 0 0 0 0 1 1 0 0 0 0 0 0 0 0 0 0 0 361 1308 1512 1579 1341 1143 1154 1056 1072 1081 947 839 661 673 666 582 478 459 414 345 103
0 0 0 0 0 0 0 0 0 0 0 0 3 2 1 2 0 0 0 0 0 0 0 0 0 0 0 0 0 968 1141 1145 1174 1319 1516 1254 1156 1049 834 856 683 540 560 597 488 397 377 318 197
0 0 0 0 0 0 0 0 0 0 0 0 0 0 1 0 0 1 1 0 0 0 1 0 0 0 0 0 4 1043 1341 1416 1361 1599 1602 1394 1125 1045 907 863 728 541 615 606 507 411 356 419 278
0 0 0 0 0 0 0 0 0 0 0 3 2 2 2 1 0 0 0 0 1 0 1 1 2 1 0 45 54 943 1386 1473 1570 1660 1440 1377 1253 941 938 730 686 601 567 582 488 477 402 348 276
0 0 0 0 0 0 0 0 0 0 3 2 3 0 2 0 1 1 1 2 2 3 2 2 3 5 2 3 145 946 1572 1767 1706 1598 1457 1354 1071 913 839 881 697 657 632 621 611 493 415 390 305
0 0 0 0 0 0 0 0 0 0 1 2 2 2 0 0 1 1 1 2 3 4 3 3 3 6 6 6 154 1110 1387 1481 1761 1646 1521 1293 1038 929 844 763 717 700 669 594 577 565 469 371 314
0 0 0 0 0 0 0 0 0 0 0 0 2 0 1 2 3 3 2 2 2 3 2 3 3 5 6 9 5 1044 1349 1381 1471 1602 1527 1361 1183 1005 836 882 587 599 580 459 651 533 400 321 279
0 0 1 0 0 0 0 0 0 0 0 2 2 3 2 2 2 2 1 1 1 2 1 3 4 5 5 7 7 188 1603 1307 1271 1326 1425 1315 1108 786 731 674 583 484 510 481 455 442 358 276 262
0 0 0 0 0 1 0 0 2 2 4 4 2 2 3 1 1 1 1 1 0 1 1 2 3 6 6 5 8 65 1250 1164 1028 1025 1281 1227 863 636 478 521 652 491 377 373 434 311 245 275 275
0 0 0 0 0 0 0 0 2 2 2 1 0 2 1 0 0 1 1 0 1 1 1 2 5 6 5 5 8 7 24 852 730 716 635 618 460 346 471 401 314 272 214 228 209 132 127 153 141

GFSSGP_con_mlcape_114.txt.gz
CAPE
0 0 0 0 0 0 0 0 0 0 0 0 0 0 0 0 0 0 0 1056 1209 1319 1984 1422 1133 881 849 1071 1305 1467 1502 1557 1503 1283 1179 1246 1203 1206 1300 1332 1540 1527 1558 1421 1377 1548 1467 1266 1038
0 0 0 0 0 0 0 0 0 0 0 0 0 0 0 0 0 0 83 779 1229 1550 1835 1687 1198 907 865 1001 1263 1548 1611 1660 1605 1458 1358 1350 1284 1260 1360 1462 1556 1569 1554 1429 1322 1420 1523 1096 1039
0 0 0 0 0 0 0 0 0 0 0 0 0 0 0 0 0 0 19 993 1607 1704 1814 1916 1286 965 863 968 1120 1422 1685 1691 1654 1565 1521 1387 1294 1356 1469 1507 1591 1620 1665 1541 1565 1533 1371 1057 1035
0 0 0 0 0 0 0 0 0 0 0 0 0 0 0 0 0 0 342 1613 1738 1827 1952 1998 1363 1079 945 943 1035 1260 1444 1568 1653 1628 1598 1437 1427 1486 1534 1560 1642 1680 1718 1748 1749 1397 1128 1065 1029
0 0 0 0 0 0 0 0 0 0 0 0 0 0 0 0 0 0 223 1840 1761 1907 2070 2233 1505 1203 1076 1001 1026 1185 1313 1519 1678 1742 1643 1555 1647 1622 1558 1609 1668 1718 1828 1887 1694 1123 956 982 983
0 0 0 0 0 0 0 0 0 0 0 0 0 0 0 0 0 0 203 1681 2085 2135 2315 2405 1706 1436 1227 1168 1071 1059 1262 1503 1681 1792 1717 1806 1851 1686 1636 1667 1740 1773 1951 1829 1590 1077 969 971 984
0 0 0 0 0 0 0 0 0 0 0 0 0 0 0 0 0 2 431 1573 2239 2366 2415 2494 2059 1903 1550 1323 1170 1062 1096 1336 1616 1772 1865 1968 1911 1751 1727 1755 1780 1809 1705 1543 1406 1137 1019 1007 994
0 0 0 0 0 0 0 0 0 0 0 0 0 0 0 0 0 0 0 1527 2138 2372 2538 2661 2257 2244 2177 1991 1416 1251 1128 1156 1332 1636 1863 1908 1843 1752 1747 1803 1815 1799 1674 1575 1454 1157 1029 1020 965
0 0 0 0 0 0 0 0 0 0 0 0 0 0 0 0 0 0 0 270 1794 2057 2334 2271 2175 2139 2512 2446 2114 1518 1339 1279 1313 1454 1661 1814 1955 2002 2046 1882 1849 1861 1742 1628 1285 1064 1024 985 882
0 0 0 0 0 0 0 0 0 0 0 0 0 0 0 0 0 0 0 0 286 2018 2074 2071 2098 1954 2105 2287 2439 2224 2055 1792 1744 1715 1890 1887 1958 2094 2086 2025 1995 1789 1708 1514 1096 986 993 906 1023
0 0 0 0 0 0 0 0 0 0 0 0 0 0 0 0 0 0 0 0 0 1090 1981 1881 1901 2020 2080 2240 2287 2297 2267 2109 2106 2119 2103 1941 2079 2230 2200 2100 1972 1989 1809 1819 1145 1133 1158 1011 938
0 0 0 0 0 0 0 0 0 0 0 0 0 0 0 0 0 0 0 0 0 129 1579 1873 1956 1828 2048 2131 1975 2133 2348 2221 2227 2269 2282 2043 2274 2224 2104 2137 2039 1984 1934 1804 1514 1343 1197 1207 1147
0 0 0 0 0 0 0 0 0 0 0 0 0 0 0 0 0 0 0 0 0 0 70 1666 1906 1875 1891 1926 1851 1896 2054 1973 2257 2268 2249 2254 2320 2183 2153 1935 1990 2035 1934 1887 1707 1518 1380 1280 1284
0 0 0 0 0 0 0 0 0 0 0 0 0 0 0 0 0 0 0 0 0 0 0 0 1117 1899 1890 1861 1855 1853 2028 1889 2099 2045 2124 2165 2112 1952 2019 1982 2016 1988 2043 2056 1879 1679 1594 1484 1277
0 0 0 0 0 0 0 0 0 0 0 0 0 0 0 0 0 0 0 0 0 0 0 0 0 770 1976 1941 1871 1815 1750 1748 1749 1840 2041 2035 2027 2053 1962 1935 1917 1833 2095 1962 1932 1609 1530 1315 1277
0 0 0 0 0 0 0 0 0 0 0 0 0 0 0 0 0 0 0 0 0 0 0 0 0 0 1122 1845 1883 1733 1655 1681 1583 1736 2012 2379 2045 2083 1987 1808 1843 2022 2097 1979 1891 1676 1593 1447 1288
0 0 0 0 0 0 0 0 0 0 0 0 0 0 0 0 0 0 0 0 0 0 0 0 0 0 15 1249 1829 2096 1913 1793 1646 1692 1809 2024 2292 2454 2273 1931 1669 1713 1806 1819 1837 1737 1509 1400 1233
0 0 0 0 0 0 0 0 0 0 0 0 0 0 0 0 0 0 0 0 0 0 0 0 0 0 0 89 1283 1388 1790 2050 1871 1815 1900 1892 2200 2196 2260 1811 1813 1470 1370 1526 1693 1610 1549 1458 1265
0 0 0 0 0 0 0 0 0 0 0 0 0 0 0 0 0 0 0 0 0 0 0 0 0 0 0 0 65 521 1300 1533 1818 2004 2002 2017 2194 2159 2001 1670 1662 1254 1282 1343 1445 1451 1367 1332 1455
0 0 0 0 0 0 0 0 0 0 0 0 0 0 0 0 0 0 0 0 0 0 0 0 0 0 0 0 0 209 690 1168 1258 1725 2200 2153 2021 1991 2016 1703 1547 1317 1217 1110 1132 1068 1020 947 912
0 0 0 0 0 0 0 0 0 0 0 0 0 0 0 0 0 0 0 0 0 0 0 0 0 0 0 0 0 0 455 826 1073 1487 2222 2378 1990 1842 1905 1674 1438 1272 1139 964 905 951 890 751 585
0 0 0 0 0 0 0 0 0 0 0 0 0 0 0 0 0 0 0 0 0 0 0 0 0 0 0 0 0 0 0 496 963 1260 1584 1816 2133 1962 1822 1644 1424 1189 1094 940 914 836 915 781 514
0 0 0 0 0 0 0 0 0 0 0 0 0 0 0 0 0 0 0 0 0 0 0 0 0 0 0 0 0 0 0 315 836 1273 1307 1497 1725 1722 1542 1474 1483 1156 1054 944 864 690 801 725 639
0 0 0 0 0 0 0 0 0 0 0 1 2 0 0 0 0 0 0 0 0 0 0 0 0 0 0 0 1 3 6 47 731 936 1423 1579 1681 1429 1365 1320 1340 1171 1081 814 860 795 767 680 660
0 0 0 0 0 0 0 0 0 0 1 1 2 2 0 0 0 0 0 0 0 0 0 0 0 1 0 2 2 3 14 189 1057 992 1531 1732 1714 1184 1292 1236 1217 1031 984 887 828 721 656 608 578
0 0 0 0 0 0 0 0 0 0 0 3 1 1 0 1 0 1 2 2 1 0 1 1 2 4 2 3 4 3 8 489 1036 1403 1439 1676 1682 1251 1084 1241 1232 1098 1028 968 868 741 654 640 665
0 0 0 0 0 0 0 0 0 0 0 0 0 0 1 0 0 1 3 2 2 1 1 2 4 3 3 2 3 6 41 989 1378 1627 1777 1801 1808 1345 1322 1213 1043 1013 928 893 823 732 616 627 780
0 0 3 0 1 0 0 1 21 0 1 0 2 1 2 1 0 2 3 5 4 1 1 1 2 2 2 2 3 6 25 841 1788 1828 1812 1760 1856 1605 1437 1219 1026 867 822 855 748 700 624 612 674
0 0 0 9 15 11 10 4 3 3 4 3 1 1 1 1 1 1 1 2 2 1 1 2 1 2 3 2 3 5 9 1412 1931 1652 1595 1728 1763 1407 1468 1474 1096 817 741 678 664 656 578 517 657
0 3 12 9 7 8 7 1 1 1 1 1 0 0 0 1 1 2 1 1 1 1 0 2 0 1 2 2 3 8 10 250 1552 1431 1437 1577 1444 1516 1233 1035 794 587 528 527 629 490 446 519 443

GFSSGP_con_mlcape_117.txt.gz
CAPE
0 0 0 0 0 0 0 0 0 0 0 0 0 0 0 0 0 0 0 346 710 1043 2518 1333 1025 996 995 1155 1381 1581 1616 1516 1355 1099 1095 1202 1286 1364 1448 1485 1535 1718 1929 1809 1664 1617 1642 1592 1380
0 0 0 0 0 0 0 0 0 0 0 0 0 0 0 0 0 0 0 150 1081 1504 2458 1854 1157 1016 1019 1258 1536 1746 1820 1649 1459 1250 1272 1343 1360 1451 1592 1514 1712 1660 1885 1726 1912 1839 1808 1277 1121
0 0 0 0 0 0 0 0 0 0 0 0 0 0 0 0 0 0 0 1061 1614 1794 2276 2223 1326 1032 1076 1320 1636 1832 1906 1768 1606 1428 1392 1501 1479 1519 1596 1623 1777 1746 1806 1666 1736 2012 1561 1117 1208
0 0 0 0 0 0 0 0 0 0 0 0 0 0 0 0 0 0 3 1272 1861 1986 2101 2017 1371 1096 1062 1244 1632 1842 1888 1859 1804 1695 1499 1593 1633 1595 1649 1706 1747 1778 1877 1843 1920 1810 1325 1054 1132
0 0 0 0 0 0 0 0 0 0 0 0 0 0 0 0 0 0 21 1345 2046 2055 2226 2325 1500 1209 1095 1204 1461 1701 1863 1913 1913 1857 1758 1725 1631 1638 1613 1665 1766 1818 1925 2038 2009 1436 1226 1115 1079
0 0 0 0 0 0 0 0 0 0 0 0 0 0 0 0 0 0 57 902 2351 2230 2414 2869 1786 1441 1221 1190 1334 1422 1537 1736 1905 1907 1918 1807 1661 1598 1586 1719 1792 1862 1985 2116 1804 1170 1133 1072 1047
0 0 0 0 0 0 0 0 0 0 0 0 0 0 0 0 0 0 0 654 2224 2631 2533 2898 2264 1813 1412 1186 1182 1341 1452 1610 1833 1984 1914 1844 1716 1649 1661 1753 1813 1905 2022 1962 1644 1158 1080 1063 1019
0 0 0 0 0 0 0 0 0 0 0 0 0 0 0 0 0 0 0 0 1763 2640 2837 3139 2577 2252 1929 1577 1209 1237 1356 1555 1800 1950 1945 1918 1926 1816 1797 1842 1861 1929 1932 1759 1526 1197 1108 1071 995
0 0 0 0 0 0 0 0 0 0 0 0 0 0 0 0 0 0 0 0 701 2251 2530 2979 2653 2519 2346 2130 1799 1307 1264 1461 1753 1975 2018 2106 2366 2295 2229 2024 1903 1802 1770 1672 1488 1242 1113 1059 972
0 0 0 0 0 0 0 0 0 0 0 0 0 0 0 0 0 0 0 0 0 601 2358 2416 2585 2473 2855 2394 2408 1867 1756 1557 1731 1935 2268 2314 2066 2210 2014 1974 2022 1721 1731 1668 1507 1201 1069 986 1172
0 0 0 0 0 0 0 0 0 0 0 0 0 0 0 0 0 0 0 0 0 3 1993 2478 2339 2316 2448 2732 2532 2244 2141 2011 1974 1974 2057 2000 2100 2221 2055 2306 2140 2222 1812 1973 1505 1168 1220 1124 1002
0 0 0 0 0 0 0 0 0 0 0 0 0 0 0 0 0 0 0 0 0 0 862 2417 2455 2473 2380 2634 2442 2297 2081 2241 2139 2204 2472 2243 2259 2340 2361 2195 2222 2194 2134 1939 1805 1457 1227 1273 1323
0 0 0 0 0 0 0 0 0 0 0 0 0 0 0 0 0 0 0 0 0 0 0 909 2356 2413 2523 2581 2589 2470 2481 2098 2174 2225 2470 2360 2027 2324 2463 2063 2300 2117 2055 2018 1992 1604 1484 1397 1255
0 0 0 0 0 0 0 0 0 0 0 0 0 0 0 0 0 0 0 0 0 0 0 0 23 2123 2111 2357 2509 2539 2522 2235 2369 2200 2338 2692 2364 2355 2360 2228 1877 2129 1856 2000 2141 1834 1579 1498 1424
0 0 0 0 0 0 0 0 0 0 0 0 0 0 0 0 0 0 0 0 0 0 0 0 0 0 1178 1819 2210 2389 2228 2228 2192 2144 2556 2438 2783 2558 2367 2411 2102 1644 1832 2093 2207 2194 1831 1581 1625
0 0 0 0 0 0 0 0 0 0 0 0 0 0 0 0 0 0 0 0 0 0 0 0 0 0 0 444 1503 2092 2145 2267 2068 2181 2091 2341 2338 2504 2524 2201 2311 1956 1875 2235 2315 2234 2080 1645 1541
0 0 0 0 0 0 0 0 0 0 0 0 0 0 0 0 0 0 0 0 0 0 0 0 0 0 0 0 560 1503 1902 2180 2058 1917 2075 2170 2394 2550 2498 2207 2192 2314 2160 2327 2192 2124 1979 1785 1721
0 0 0 0 0 0 0 0 0 0 0 0 0 0 0 0 0 0 0 0 0 0 0 0 0 0 0 0 0 554 1380 1791 2276 2182 1959 2055 2679 2597 2436 2152 2158 2140 2367 2448 2420 2093 2007 1941 1768
0 0 0 0 0 0 0 0 0 0 0 0 0 0 0 0 0 0 0 0 0 0 0 0 0 0 0 0 0 0 936 1416 1920 2266 2414 2060 2339 2795 2558 2474 2418 2222 2092 2127 2218 2240 2026 1722 1834
0 0 0 0 0 0 0 0 0 0 0 0 0 0 0 0 0 0 0 0 0 0 0 0 0 0 0 0 0 0 0 470 1448 1877 2138 2545 2587 2668 2906 2794 2546 2601 2015 1774 1776 1867 2087 2075 2002
0 0 0 0 0 0 0 0 0 0 0 0 0 0 0 0 0 0 0 0 0 0 0 0 0 0 0 0 0 0 0 0 601 1479 1810 2336 2730 2868 2947 2912 2685 2426 2268 1784 1570 1517 1646 1703 1891
0 0 0 0 0 0 0 0 0 0 0 0 0 1 0 0 0 0 0 0 0 0 0 0 0 0 0 0 0 0 0 0 42 1144 1657 1712 2611 2851 3058 3018 2909 2496 2226 1749 1451 1368 1426 1261 1222
0 0 0 0 0 0 0 0 0 0 0 1 0 0 0 0 0 0 0 0 0 0 0 0 0 0 0 0 0 0 0 0 0 3 1448 1649 2071 2458 2936 2895 2921 2590 2164 1815 1548 1305 1354 1320 1098
0 0 0 0 0 0 0 0 0 0 0 0 0 0 0 0 0 0 0 0 0 0 0 0 0 0 0 0 0 1 2 0 0 28 347 1336 1760 2073 2740 2747 2636 2489 2072 1818 1711 1427 1110 1263 1061
0 0 0 0 0 0 0 0 0 0 0 0 0 0 0 0 0 0 0 0 0 0 0 0 0 0 0 0 1 1 1 4 1 0 120 1092 1527 1891 2101 2316 2148 2157 2024 1761 1698 1357 1106 1089 1004
0 0 0 0 0 0 0 0 10 0 0 0 0 0 0 0 0 0 1 1 1 1 1 2 1 1 1 0 0 1 2 2 2 0 106 392 1537 1942 2230 1986 1777 1765 1944 1712 1503 1161 1061 961 1017
0 0 0 0 0 0 0 0 1 0 0 0 0 0 1 1 2 1 2 4 4 5 3 3 2 2 1 1 2 2 3 3 3 3 333 833 1299 1947 2030 1834 1478 1399 1487 1472 1258 1139 996 992 1095
0 0 0 0 0 0 0 1 0 3 2 0 1 1 2 2 0 2 3 3 2 1 4 5 2 2 1 1 2 2 2 3 3 80 722 1306 1494 1873 1679 1824 1433 1303 1311 1263 1111 1062 1015 906 889
0 0 0 0 10 20 20 8 2 2 4 3 1 0 0 2 0 1 0 1 1 2 1 1 1 1 2 2 3 2 2 3 4 280 1148 1688 1551 1411 1604 1684 1399 1213 1197 1146 1075 987 948 829 894
0 1 2 7 4 7 5 4 0 0 1 0 0 2 1 0 1 1 1 1 1 0 0 1 1 3 2 1 2 3 2 3 3 403 1137 1498 1360 1373 1530 1432 1377 1285 1110 1050 919 855 773 858 796

GFSSGP_con_mlcape_120.txt.gz
CAPE
0 0 0 0 0 0 0 0 0 0 0 0 0 0 0 0 0 0 0 377 1122 1326 1737 1235 1058 1018 1089 1158 1233 1304 1362 1373 1202 969 849 933 1015 1073 1224 1391 1504 1646 1917 2110 2003 1706 1542 1726 1205
0 0 0 0 0 0 0 0 0 0 0 0 0 0 0 0 0 0 0 364 1340 1718 2245 1523 1170 1077 1079 1208 1351 1480 1620 1617 1491 1221 1004 1103 1198 1230 1324 1429 1480 1729 2005 1833 1915 1810 1931 1695 1223
0 0 0 0 0 0 0 0 0 0 0 0 0 0 0 0 0 0 0 466 1560 1783 2859 2094 1237 1217 1182 1337 1548 1745 1877 1774 1597 1317 1169 1307 1400 1412 1474 1452 1589 1756 1805 1710 2080 1985 1900 1237 1110
0 0 0 0 0 0 0 0 0 0 0 0 0 0 0 0 0 0 0 750 1859 1965 2550 2096 1518 1241 1264 1514 1795 1979 1981 1840 1668 1466 1364 1452 1551 1583 1636 1501 1709 1811 1803 1760 1966 1969 1424 1182 1173
0 0 0 0 0 0 0 0 0 0 0 0 0 0 0 0 0 0 15 798 2121 2407 2492 2217 1816 1234 1323 1599 1907 2037 1944 1836 1759 1680 1561 1610 1680 1688 1623 1667 1828 1900 1885 1950 1902 1711 1282 1118 1144
0 0 0 0 0 0 0 0 0 0 0 0 0 0 0 0 0 0 0 453 2153 2681 2964 2087 1648 1282 1292 1510 1838 1953 1929 1912 1915 1881 1738 1771 1783 1723 1633 1738 1805 1917 1935 2047 1892 1368 1240 1171 1127
0 0 0 0 0 0 0 0 0 0 0 0 0 0 0 0 0 0 0 0 1763 2693 3262 2886 2158 1491 1216 1411 1528 1690 1814 1917 1965 1992 1909 1961 1852 1709 1681 1774 1822 1840 1952 2007 1791 1211 1156 1102 1066
0 0 0 0 0 0 0 0 0 0 0 0 0 0 0 0 0 0 0 0 1599 2435 2944 3298 2589 1971 1426 1305 1285 1438 1551 1662 1878 1934 1995 2033 1864 1765 1768 1835 1860 1749 1892 1898 1686 1205 1086 1058 1000
0 0 0 0 0 0 0 0 0 0 0 0 0 0 0 0 0 0 0 0 156 2094 2263 3001 2839 2436 1949 1635 1306 1234 1392 1626 1850 2017 2055 1966 2039 1960 1936 1913 1946 1881 1709 1863 1638 1293 1112 1062 966
0 0 0 0 0 0 0 0 0 0 0 0 0 0 0 0 0 0 0 0 0 61 2377 2571 2884 2468 2497 1993 1835 1292 1354 1505 1885 2131 2121 2235 2403 2496 2380 2183 2044 1856 1708 1695 1583 1335 1154 1057 1035
0 0 0 0 0 0 0 0 0 0 0 0 0 0 0 0 0 0 0 0 0 0 1500 2562 2430 2293 2618 2592 2292 1683 1668 1439 1793 2134 2445 2347 2528 2567 2075 2171 1886 2020 1801 1786 1611 1346 1185 1110 1300
0 0 0 0 0 0 0 0 0 0 0 0 0 0 0 0 0 0 0 0 0 0 0 2325 2424 2051 2109 2862 2648 2280 2065 1919 1913 1965 2278 2233 2306 2227 1736 2189 2124 2065 2024 1940 1876 1578 1231 1193 1182
0 0 0 0 0 0 0 0 0 0 0 0 0 0 0 0 0 0 0 0 0 0 0 174 2302 2255 2112 2181 2084 2276 2222 2224 2266 2198 2308 2493 2133 2294 2327 1872 2236 2072 2265 1971 2001 1785 1295 1303 1237
0 0 0 0 0 0 0 0 0 0 0 0 0 0 0 0 0 0 0 0 0 0 0 0 0 1404 1820 1992 1837 2065 2096 2361 2382 2465 2569 2479 2477 2358 2379 2122 2447 2146 2144 2239 1977 2057 1739 1456 1569
0 0 0 0 0 0 0 0 0 0 0 0 0 0 0 0 0 0 0 0 0 0 0 0 0 0 66 1493 1617 1762 1995 1858 2188 2190 2699 2620 2511 2428 2638 2217 2281 2394 2015 2358 2015 2167 1930 1663 1472
0 0 0 0 0 0 0 0 0 0 0 0 0 0 0 0 0 0 0 0 0 0 0 0 0 0 0 0 512 1243 1514 1915 2098 2208 2175 2457 2707 2812 2488 2407 2565 2379 2376 2328 1877 1900 2153 1752 1512
0 0 0 0 0 0 0 0 0 0 0 0 0 0 0 0 0 0 0 0 0 0 0 0 0 0 0 0 0 0 1248 1360 1835 2064 2289 2600 2369 2416 2919 2405 2237 2434 2601 2312 2114 2071 2184 2033 1692
0 0 0 0 0 0 0 0 0 0 0 0 0 0 0 0 0 0 0 0 0 0 0 0 0 0 0 0 0 0 0 1604 1857 1923 1920 2319 2497 1980 2233 2775 2430 1886 2415 2535 2353 2145 2182 2184 1807
0 0 0 0 0 0 0 0 0 0 0 0 0 0 0 0 0 0 0 0 0 0 0 0 0 0 0 0 0 0 0 0 1831 2141 2155 2048 2277 2495 2071 2328 2661 2212 1815 2356 2549 2372 1954 1901 1836
0 0 0 0 0 0 0 0 0 0 0 0 0 0 0 0 0 0 0 0 0 0 0 0 0 0 0 0 0 0 0 0 0 1277 2154 2247 2267 2423 2590 2417 2391 2465 1918 1948 2697 2551 2161 1984 1872
0 0 0 0 0 0 0 0 0 0 0 0 0 0 0 0 0 0 0 0 0 0 0 0 0 0 0 0 0 0 0 0 0 0 116 2154 2243 2245 2672 2673 2338 2427 2367 1899 2070 2429 2250 1782 1969
0 0 0 0 0 0 0 0 0 0 0 0 0 0 0 0 0 0 0 0 0 0 0 0 0 0 0 0 0 0 0 0 0 0 0 1275 2196 2266 2506 2715 2780 2539 2616 2318 2142 1976 1761 2019 1940
0 0 0 0 0 0 0 0 0 0 0 0 0 0 0 0 0 0 0 0 0 0 0 0 0 0 0 0 0 0 0 0 0 0 0 0 338 1914 2063 2070 2409 2742 2374 2442 1980 1733 1567 1720 1610
0 0 0 0 0 0 0 0 0 0 0 0 0 0 0 0 0 0 0 0 0 0 0 0 0 0 0 0 0 0 0 0 0 0 0 0 3 672 1802 1703 2102 2399 2490 1646 784 1567 1556 1535 1459
0 0 0 0 0 0 0 0 0 0 0 0 0 0 0 0 0 0 0 0 0 0 0 0 0 0 0 0 0 0 0 0 0 0 0 0 0 36 1021 1430 1855 2206 2595 2056 1969 1701 1493 1378 1262
0 0 0 0 0 0 0 0 0 0 0 0 0 0 0 0 0 0 0 0 0 0 0 0 0 1 0 0 1 1 1 1 1 0 1 0 0 0 381 1075 1176 1776 2031 2081 2002 1891 1626 1301 1109
0 0 0 0 0 0 0 0 0 0 0 0 0 0 0 0 0 0 2 1 1 0 0 1 1 1 0 0 1 1 2 2 3 2 4 3 0 0 98 880 1145 1178 1839 1881 2008 1754 1585 1222 1115
0 0 0 0 0 0 0 0 0 0 0 0 0 0 0 0 0 2 1 1 2 1 0 0 0 1 0 1 1 2 2 2 1 1 2 3 1 0 222 647 966 870 1234 1558 1572 1511 1312 1169 875
0 0 0 0 0 0 1 0 1 1 2 1 0 1 0 0 0 0 0 0 1 1 0 0 1 1 1 1 1 1 2 1 2 2 2 1 2 1 345 774 495 0 563 1097 1085 1368 1203 1097 921
0 0 0 1 0 0 10 0 0 0 0 1 1 2 0 0 0 1 1 1 1 0 0 2 0 0 0 1 1 1 1 1 2 2 3 2 2 54 909 963 499 0 795 1071 1233 1048 1091 1012 917

GFSSGP_con_mlcape_123.txt.gz
CAPE
0 0 0 0 0 0 0 0 0 0 0 0 0 0 0 0 0 0 40 677 1264 1735 1297 1324 1255 1170 1249 1392 1352 1294 1277 1293 1030 785 709 755 788 973 1150 1217 1131 1390 1520 1587 1531 1411 1369 1446 836
0 0 0 0 0 0 0 0 0 0 0 0 0 0 0 0 0 0 0 1084 1443 2045 1582 1273 1278 1265 1265 1349 1514 1465 1487 1491 1240 983 849 875 901 993 1164 1324 1436 1609 1895 1970 1916 1667 1714 1668 1024
0 0 0 0 0 0 0 0 0 0 0 0 0 0 0 0 0 0 251 1453 1749 2341 2059 1428 1238 1301 1323 1346 1561 1629 1673 1589 1438 1192 1013 1070 1089 1148 1231 1250 1446 1890 1843 1778 1915 1827 1689 1218 1092
0 0 0 0 0 0 0 0 0 0 0 0 0 0 0 0 0 8 553 1024 2060 2483 2337 1842 1275 1250 1362 1429 1662 1844 1899 1726 1637 1429 1214 1304 1326 1259 1266 1365 1669 1845 1667 1670 2103 1942 1371 987 1022
0 0 0 0 0 0 0 0 0 0 0 0 0 0 0 0 0 0 281 1169 2350 2515 2316 1983 1582 1212 1318 1413 1696 1984 2035 1824 1700 1508 1361 1472 1507 1440 1413 1432 1714 1790 1681 1809 1966 1835 1142 996 1070
0 0 0 0 0 0 0 0 0 0 0 0 0 0 0 0 0 0 32 1124 1914 2680 2210 2015 1778 1398 1223 1357 1679 1943 2037 1854 1722 1656 1537 1620 1650 1522 1461 1508 1767 1800 1741 1910 1788 1492 1136 1019 1068
0 0 0 0 0 0 0 0 0 0 0 0 0 0 0 0 0 0 0 340 793 2668 2598 1956 1763 1513 1249 1284 1621 1854 1965 1860 1796 1786 1712 1684 1719 1571 1481 1649 1801 1826 1772 1831 1777 1344 1191 1096 1051
0 0 0 0 0 0 0 0 0 0 0 0 0 0 0 0 0 0 0 0 979 2019 2939 2567 2147 1660 1253 1209 1442 1681 1869 1873 1881 1873 1848 1713 1735 1617 1514 1670 1807 1831 1759 1750 1611 1232 1140 1082 974
0 0 0 0 0 0 0 0 0 0 0 0 0 0 0 0 0 0 0 0 704 1955 2729 2806 2573 2038 1363 1174 1234 1463 1604 1694 1814 1915 1937 1860 1849 1716 1586 1631 1782 1800 1749 1723 1575 1227 1066 1028 973
0 0 0 0 0 0 0 0 0 0 0 0 0 0 0 0 0 0 0 0 0 114 1936 2855 2685 2234 1755 1412 1218 1197 1328 1516 1644 1806 1926 1960 1825 1679 1624 1630 1708 1751 1692 1745 1593 1306 1116 1041 904
0 0 0 0 0 0 0 0 0 0 0 0 0 0 0 0 0 0 0 0 0 0 826 2262 2594 2596 2288 1918 1571 1095 1142 1263 1532 1799 1835 1975 1920 1805 1740 1671 1708 1844 1689 1585 1519 1340 1148 1081 997
0 0 0 0 0 0 0 0 0 0 0 0 0 0 0 0 0 0 0 0 0 0 0 1425 2363 2172 2050 2350 2152 1599 1097 1035 1222 1741 1848 1877 1950 2220 1962 1842 1667 1683 1665 1439 1469 1363 1189 1070 1029
0 0 0 0 0 0 0 0 0 0 0 0 0 0 0 0 0 0 0 0 0 0 0 66 1326 1546 1959 1873 1824 1970 1633 1217 1225 1344 2043 1984 2003 2146 2214 1911 1851 1745 1679 1602 1411 1364 1273 1013 824
0 0 0 0 0 0 0 0 0 0 0 0 0 0 0 0 0 0 0 0 0 0 0 0 0 159 1457 1115 1071 1409 1643 1846 1553 1450 1525 2169 1838 1962 2062 1676 1870 1865 1754 1652 1568 1470 1320 1052 790
0 0 0 0 0 0 0 0 0 0 0 0 0 0 0 0 0 0 0 0 0 0 0 0 0 0 0 0 8 694 951 1250 1371 1666 1754 1764 2057 1733 2072 1988 1737 1866 1820 1679 1652 1565 1489 1269 975
0 0 0 0 0 0 0 0 0 0 0 0 0 0 0 0 0 0 0 0 0 0 0 0 0 0 0 0 0 0 0 107 975 915 1538 2109 1991 2109 1800 2193 1831 2063 1761 1762 1703 1672 1665 1552 1286
0 0 0 0 0 0 0 0 0 0 0 0 0 0 0 0 0 0 0 0 0 0 0 0 0 0 0 0 0 0 0 0 10 864 1196 1307 1443 1798 2147 2055 2066 1834 2020 1852 1804 1777 1708 1629 1468
0 0 0 0 0 0 0 0 0 0 0 0 0 0 0 0 0 0 0 0 0 0 0 0 0 0 0 0 0 0 0 0 0 27 810 1045 1215 1490 1457 2132 2123 2095 2094 1988 1759 1700 1717 1649 1487
0 0 0 0 0 0 0 0 0 0 0 0 0 0 0 0 0 0 0 0 0 0 0 0 0 0 0 0 0 0 0 0 0 0 0 898 1029 1094 1696 1623 1973 1999 1789 2082 1764 1691 1577 1610 1621
0 0 0 0 0 0 0 0 0 0 0 0 0 0 0 0 0 0 0 0 0 0 0 0 0 0 0 0 0 0 0 0 0 0 0 0 95 1371 1384 1213 1284 1952 1770 1527 1959 1758 1671 1657 1664
0 0 0 0 0 0 0 0 0 0 0 0 0 0 0 0 0 0 0 0 0 0 0 0 0 0 0 0 0 0 0 0 0 0 0 0 0 182 1294 1235 981 1504 1922 1640 1491 1947 1785 1652 1559
0 0 0 0 0 0 0 0 0 0 0 0 0 0 0 0 0 0 0 0 0 0 0 0 0 0 0 0 0 0 0 0 0 0 0 0 0 0 5 1110 1313 976 1492 1948 1412 1760 1876 1547 1433
0 0 0 0 0 0 0 0 0 0 0 0 0 0 0 0 0 0 0 0 0 0 0 0 0 0 0 0 0 0 0 0 0 0 0 0 0 0 0 29 1056 1394 1351 1777 1493 1381 1698 1510 1339
0 0 0 0 0 0 0 0 0 0 0 0 0 0 0 0 0 0 0 0 0 0 0 0 0 0 0 0 0 0 0 0 0 0 0 0 0 0 0 0 28 1045 1414 1444 1587 1547 1250 1228 1052
0 0 0 0 0 0 0 0 1 0 0 0 0 0 0 0 0 0 0 0 0 0 0 0 0 0 0 0 0 0 0 0 1 0 0 0 0 0 0 0 0 215 1082 1417 1556 1415 869 461 497
0 0 0 0 0 0 0 0 0 0 0 0 0 0 0 0 0 0 0 0 0 0 0 1 1 1 0 0 0 0 1 1 1 0 1 1 1 1 1 0 0 1 404 1126 1218 1179 883 153 2
0 0 0 0 0 0 0 0 0 0 0 0 0 0 0 0 0 1 0 0 0 0 1 2 2 1 1 0 1 1 1 1 1 1 1 1 0 1 0 1 0 0 85 606 928 1044 867 583 105
0 0 0 0 0 0 0 0 0 0 0 2 0 0 0 0 0 0 0 0 0 0 1 5 0 1 0 0 1 1 1 1 1 1 1 0 0 0 0 1 0 0 4 400 733 727 661 593 669
0 0 0 0 0 0 0 0 0 0 0 0 0 0 0 0 0 1 0 0 0 0 1 1 0 1 1 1 0 1 1 2 2 2 2 1 1 0 0 1 2 0 4 646 655 674 518 479 828
0 0 0 0 0 0 0 0 0 0 0 0 0 0 0 0 1 1 1 1 0 1 0 1 0 1 0 0 0 0 1 1 2 3 3 2 4 3 2 1 0 1 0 18 241 66 28 0 119

GFSSGP_con_mlcape_126.txt.gz
CAPE
0 0 0 0 0 0 0 0 0 0 0 0 0 0 0 0 0 0 447 913 1624 1449 1380 1369 1369 1531 1438 1288 1300 1306 1192 990 774 687 706 760 838 822 1097 1402 1723 1910 1851 1674 1436 1276 1176 902 938
0 0 0 0 0 0 0 0 0 0 0 0 0 0 0 0 0 0 39 1366 1743 1694 1518 1434 1384 1423 1618 1427 1325 1308 1409 1230 944 775 803 799 910 1021 1017 1116 1351 1555 1909 1802 1598 1584 1412 1040 1070
0 0 0 0 0 0 0 0 0 0 0 0 0 0 0 0 0 137 764 1852 2013 1899 1539 1418 1347 1360 1428 1552 1404 1393 1465 1405 1161 900 968 969 928 1043 1190 1297 1461 1873 2078 2216 2095 1918 1647 1229 1039
0 0 0 0 0 0 0 0 0 0 0 0 0 0 0 0 0 169 630 1857 2132 2172 1836 1404 1312 1305 1388 1475 1526 1468 1528 1534 1352 1057 1068 1118 1043 1042 1115 1218 1567 1790 1655 1986 2169 1992 1431 1123 1064
0 0 0 0 0 0 0 0 0 0 0 0 0 0 0 0 6 415 464 900 1956 2312 2047 1600 1356 1326 1379 1392 1481 1605 1650 1629 1553 1331 1157 1264 1198 1119 1133 1238 1577 1636 1560 1818 2182 1787 1216 1066 1144
0 0 0 0 0 0 0 0 0 0 0 0 0 0 0 0 0 0 97 329 1342 2360 2239 1936 1508 1271 1233 1378 1537 1731 1789 1738 1695 1494 1238 1427 1341 1156 1175 1280 1517 1506 1562 1765 1882 1637 1119 1102 1160
0 0 0 0 0 0 0 0 0 0 0 0 0 0 0 0 0 0 7 670 1207 2019 2091 2006 1740 1468 1305 1268 1433 1764 1831 1790 1751 1547 1311 1491 1473 1292 1248 1289 1486 1497 1509 1659 1625 1400 1140 1054 1088
0 0 0 0 0 0 0 0 0 0 0 0 0 0 0 0 0 0 0 281 1869 1901 2203 2004 1868 1667 1483 1330 1408 1545 1856 1796 1744 1680 1483 1508 1540 1427 1307 1313 1489 1509 1515 1575 1533 1287 1151 1094 986
0 0 0 0 0 0 0 0 0 0 0 0 0 0 0 0 0 0 0 0 323 1940 2378 2289 2055 1859 1590 1303 1334 1587 1711 1840 1808 1796 1727 1609 1707 1603 1401 1356 1448 1503 1483 1512 1425 1186 1055 1017 899
0 0 0 0 0 0 0 0 0 0 0 0 0 0 0 0 0 0 0 0 0 0 1670 2567 2484 2177 1739 1383 1242 1355 1592 1710 1826 1891 1874 1799 1732 1660 1507 1366 1410 1493 1474 1458 1363 1143 942 926 810
0 0 0 0 0 0 0 0 0 0 0 0 0 0 0 0 0 0 0 0 0 0 281 1592 2402 2278 1962 1579 1198 1044 1253 1470 1493 1697 1811 1826 1723 1693 1594 1436 1476 1524 1523 1508 1414 1183 986 872 761
0 0 0 0 0 0 0 0 0 0 0 0 0 0 0 0 0 0 0 0 0 0 0 716 525 1437 1918 2015 1664 1411 1088 1033 1151 1436 1650 1645 1685 1617 1587 1435 1372 1435 1473 1319 1362 1135 1034 919 822
0 0 0 0 0 0 0 0 0 0 0 0 0 0 0 0 0 0 0 0 0 0 0 0 0 0 0 3 164 1208 1443 1203 1046 1262 1537 1665 1674 1621 1576 1532 1358 1418 1445 1228 1141 1063 985 925 839
0 0 0 0 0 0 0 0 0 0 0 0 0 0 0 0 0 0 0 0 0 0 0 0 0 0 0 0 0 0 0 333 1105 1092 1379 1414 1421 1697 1844 1649 1557 1479 1451 1345 1118 1013 1000 1022 859
0 0 0 0 0 0 0 0 0 0 0 0 0 0 0 0 0 0 0 0 0 0 0 0 0 0 0 0 0 0 0 0 0 480 1321 1336 1026 1282 1507 1854 1829 1712 1546 1383 1288 1116 1022 999 906
0 0 0 0 0 0 0 0 0 0 0 0 0 0 0 0 0 0 0 0 0 0 0 0 0 0 0 0 0 0 0 0 0 0 0 341 681 688 946 1400 1753 1753 1541 1462 1379 1277 1098 1021 938
0 0 0 0 0 0 0 0 0 0 0 0 0 0 0 0 0 0 0 0 0 0 0 0 0 0 0 0 0 0 0 0 0 0 0 0 88 372 305 988 1464 1390 1446 1554 1492 1293 1197 1039 1050
0 0 0 0 0 0 0 0 0 0 0 0 0 0 0 0 0 0 0 0 0 0 0 0 0 0 0 0 0 0 0 0 0 0 0 0 0 0 27 482 808 1040 1443 1363 1489 1355 1274 1156 1098
0 0 0 0 0 0 0 0 0 0 0 0 0 0 0 0 0 0 0 0 0 0 0 0 0 0 0 0 0 0 0 0 0 0 0 0 0 0 0 241 5 59 982 1122 1376 1410 1406 1338 1280
0 0 0 0 0 0 0 0 0 0 0 0 0 0 0 0 0 0 0 0 0 0 0 0 0 0 0 0 0 0 0 0 0 0 0 0 0 0 0 0 389 6 732 796 1050 1142 1180 1259 1029
0 0 0 0 0 0 0 0 0 0 0 0 0 0 0 0 0 0 0 0 0 0 0 0 0 0 0 0 0 0 0 0 0 0 0 0 0 0 0 0 0 239 1 19 727 1045 957 664 852
0 0 0 0 0 0 0 0 0 0 0 0 0 0 0 0 0 0 0 0 0 0 0 0 0 0 0 0 0 0 0 0 0 0 0 0 0 0 0 0 0 0 342 460 651 817 878 839 673
0 0 0 0 0 0 0 0 0 0 0 0 0 0 0 0 0 0 0 0 0 0 0 0 0 0 0 0 0 0 0 0 0 0 0 0 0 0 0 0 0 0 0 298 380 574 690 854 828
0 0 0 0 0 0 0 0 0 0 0 0 0 0 0 0 0 0 0 0 0 0 0 0 0 0 0 0 0 0 0 0 0 0 0 0 0 0 0 0 0 0 0 0 189 570 790 691 663
0 0 0 0 0 0 0 0 0 0 0 0 0 0 0 0 0 0 0 0 0 0 0 0 1 0 0 0 0 0 0 0 1 1 0 0 0 0 0 0 0 0 0 0 0 275 519 453 434
0 0 0 0 0 0 0 0 0 0 0 0 0 0 0 0 0 0 0 0 1 1 0 0 0 0 0 0 0 0 1 1 1 1 1 1 0 0 0 0 0 0 0 0 0 0 369 463 401
0 0 0 0 0 0 0 0 0 0 0 0 0 0 0 0 0 0 0 1 1 0 0 3 1 1 0 0 1 1 1 2 1 0 0 1 1 0 0 0 0 1 0 0 0 0 48 471 279
0 0 0 0 0 0 0 0 0 0 0 0 0 0 0 0 0 0 1 1 1 1 1 2 0 1 0 1 3 1 2 1 1 2 1 2 3 5 1 1 0 1 1 2 0 0 19 258 151
0 0 0 0 0 0 0 0 0 0 0 0 0 0 0 0 0 0 0 0 0 0 0 0 0 0 1 1 2 1 1 1 1 1 2 2 2 2 1 1 2 1 1 1 1 0 14 316 280
0 0 0 0 0 0 0 0 0 0 0 0 0 0 0 0 0 0 1 0 1 2 0 1 1 1 1 1 1 1 1 1 0 1 1 2 2 3 3 3 4 5 2 1 0 0 25 460 465